[[{"header":{"parameterUnit":"m.s-1","parameterCategory":1,"la1":30.6,"la2":28.766,"lo1":-90.7593,"lo2":-88.6598,"dx":0.0162,"dy":0.0183,"nx":116,"ny":114,"refTime":"2023-02-03T06:00:00:Z","depth":0,"parameterNumber":2,"parameterNumberName":"U-component_of_WINDS"},"data":[0.0,0.0,0.0,0.0,0.0,0.0,0.0,0.0,0.0,0.0,0.0,0.0,0.0,0.0,0.0,0.0,0.0,0.0,0.0,0.0,0.0,0.0,0.0,0.0,0.0,0.0,0.0,0.0,0.0,0.0,0.0,0.0,0.0,0.0,0.0,0.0,0.0,0.0,0.0,0.0,0.0,0.0,0.0,0.0,0.0,0.0,0.0,0.0,0.0,0.0,0.0,0.0,0.0,0.0,0.0,0.0,0.0,0.0,0.0,0.0,0.0,0.0,0.0,0.0,0.0,0.0,0.0,0.0,0.0,0.0,0.0,0.0,0.0,0.0,0.0,0.0,0.0,0.0,0.0,0.0,0.0,0.0,0.0,0.0,0.0,0.0,0.0,0.0,0.0,0.0,0.0,0.0,0.0,0.0,0.0,0.0,0.0,0.0,0.0,0.0,0.0,0.0,0.0,0.0,0.0,0.0,0.0,0.0,0.0,0.0,0.0,0.0,0.0,0.0,0.0,0.0,0.0,0.0,0.0,0.0,0.0,0.0,0.0,0.0,0.0,0.0,0.0,0.0,0.0,0.0,0.0,0.0,0.0,0.0,0.0,0.0,0.0,0.0,0.0,0.0,0.0,0.0,0.0,0.0,0.0,0.0,0.0,0.0,0.0,0.0,0.0,0.0,0.0,0.0,0.0,0.0,0.0,0.0,0.0,0.0,0.0,0.0,0.0,0.0,0.0,0.0,0.0,0.0,0.0,0.0,0.0,0.0,0.0,0.0,0.0,0.0,0.0,0.0,0.0,0.0,0.0,0.0,0.0,0.0,0.0,0.0,0.0,0.0,0.0,0.0,0.0,0.0,0.0,0.0,0.0,0.0,0.0,0.0,0.0,0.0,0.0,0.0,0.0,0.0,0.0,0.0,0.0,0.0,0.0,0.0,0.0,0.0,0.0,0.0,0.0,0.0,0.0,0.0,0.0,0.0,0.0,0.0,0.0,0.0,0.0,0.0,0.0,0.0,0.0,0.0,0.0,0.0,0.0,0.0,0.0,0.0,0.0,0.0,0.0,0.0,0.0,0.0,0.0,0.0,0.0,0.0,0.0,0.0,0.0,0.0,0.0,0.0,0.0,0.0,0.0,0.0,0.0,0.0,0.0,0.0,0.0,0.0,0.0,0.0,0.0,0.0,0.0,0.0,0.0,0.0,0.0,0.0,0.0,0.0,0.0,0.0,0.0,0.0,0.0,0.0,0.0,0.0,0.0,0.0,0.0,0.0,0.0,0.0,0.0,0.0,0.0,0.0,0.0,0.0,0.0,0.0,0.0,0.0,0.0,0.0,0.0,0.0,0.0,0.0,0.0,0.0,0.0,0.0,0.0,0.0,0.0,0.0,0.0,0.0,0.0,0.0,0.0,0.0,0.0,0.0,0.0,0.0,0.0,0.0,0.0,0.0,0.0,0.0,0.0,0.0,0.0,0.0,0.0,0.0,0.0,0.0,0.0,0.0,0.0,0.0,0.0,0.0,0.0,0.0,0.0,0.0,0.0,0.0,0.0,0.0,0.0,0.0,0.0,0.0,0.0,0.0,0.0,0.0,0.0,0.0,0.0,0.0,0.0,0.0,0.0,0.0,0.0,0.0,0.0,0.0,0.0,0.0,0.0,0.0,0.0,0.0,0.0,0.0,0.0,0.0,0.0,0.0,0.0,0.0,0.0,0.0,0.0,0.0,0.0,0.0,0.0,0.0,0.0,0.0,0.0,0.0,0.0,0.0,0.0,0.0,0.0,0.0,0.0,0.0,0.0,0.0,0.0,0.0,0.0,0.0,0.0,0.0,0.0,0.0,0.0,0.0,0.0,0.0,0.0,0.0,0.0,0.0,0.0,0.0,0.0,0.0,0.0,0.0,0.0,0.0,0.0,0.0,0.0,0.0,0.0,0.0,0.0,0.0,0.0,0.0,0.0,0.0,0.0,0.0,0.0,0.0,0.0,0.0,0.0,0.0,0.0,0.0,0.0,0.0,0.0,0.0,0.0,0.0,0.0,0.0,0.0,0.0,0.0,0.0,0.0,0.0,0.0,0.0,0.0,0.0,0.0,0.0,0.0,0.0,0.0,0.0,0.0,0.0,0.0,0.0,0.0,0.0,0.0,0.0,0.0,0.0,0.0,0.0,0.0,0.0,0.0,0.0,0.0,0.0,0.0,0.0,0.0,0.0,0.0,0.0,0.0,0.0,0.0,0.0,0.0,0.0,0.0,0.0,0.0,0.0,0.0,0.0,0.0,0.0,0.0,0.0,0.0,0.0,0.0,0.0,0.0,0.0,0.0,0.0,0.0,0.0,0.0,0.0,0.0,0.0,0.0,0.0,0.0,0.0,0.0,0.0,0.0,0.0,0.0,0.0,0.0,0.0,0.0,0.0,0.0,0.0,0.0,0.0,0.0,0.0,0.0,0.0,0.0,0.0,0.0,0.0,0.0,0.0,0.0,0.0,0.0,0.0,0.0,0.0,0.0,0.0,0.0,0.0,0.0,0.0,0.0,0.0,0.0,0.0,0.0,0.0,0.0,0.0,0.0,0.0,0.0,0.0,0.0,0.0,0.0,0.0,0.0,0.0,0.0,0.0,0.0,0.0,0.0,0.0,0.0,0.0,0.0,0.0,0.0,0.0,0.0,0.0,0.0,0.0,0.0,0.0,0.0,0.0,0.0,0.0,0.0,0.0,0.0,0.0,0.0,0.0,0.0,0.0,0.0,0.0,0.0,0.0,0.0,0.0,0.0,0.0,0.0,0.0,0.0,0.0,0.0,0.0,0.0,0.0,0.0,0.0,0.0,0.0,0.0,0.0,0.0,0.0,0.0,0.0,0.0,0.0,0.0,0.0,0.0,0.0,0.0,0.0,0.0,0.0,0.0,0.0,0.0,0.0,0.0,0.0,0.0,0.0,0.0,0.0,0.0,0.0,0.0,0.0,0.0,0.0,0.0,0.0,0.0,0.0,0.0,0.0,0.0,0.0,0.0,0.0,0.0,0.0,0.0,0.0,0.0,0.0,0.0,0.0,0.0,0.0,0.0,0.0,0.0,0.0,0.0,0.0,0.0,0.0,0.0,0.0,0.0,0.0,0.0,0.0,0.0,0.0,0.0,0.0,0.0,0.0,0.0,0.0,0.0,0.0,0.0,0.0,0.0,0.0,0.0,0.0,0.0,0.0,0.0,0.0,0.0,0.0,0.0,0.0,0.0,0.0,0.0,0.0,0.0,0.0,0.0,0.0,0.0,0.0,0.0,0.0,0.0,0.0,0.0,0.0,0.0,0.0,0.0,0.0,0.0,0.0,0.0,0.0,0.0,0.0,0.0,0.0,0.0,0.0,0.0,0.0,0.0,0.0,0.0,0.0,0.0,0.0,0.0,0.0,0.0,0.0,0.0,0.0,0.0,0.0,0.0,0.0,0.0,0.0,0.0,0.0,0.0,0.0,0.0,0.0,0.0,0.0,0.0,0.0,0.0,0.0,0.0,0.0,0.0,0.0,0.0,0.0,0.0,0.0,0.0,0.0,0.0,0.0,0.0,0.0,0.0,0.0,0.0,0.0,0.0,0.0,0.0,0.0,0.0,0.0,0.0,0.0,0.0,0.0,0.0,0.0,0.0,0.0,0.0,0.0,0.0,0.0,0.0,0.0,0.0,0.0,0.0,0.0,0.0,0.0,0.0,0.0,0.0,0.0,0.0,0.0,0.0,0.0,0.0,0.0,0.0,0.0,0.0,0.0,0.0,0.0,0.0,0.0,0.0,0.0,0.0,0.0,0.0,0.0,0.0,0.0,0.0,0.0,0.0,0.0,0.0,0.0,0.0,0.0,0.0,0.0,0.0,0.0,0.0,0.0,0.0,0.0,0.0,0.0,0.0,0.0,0.0,0.0,0.0,0.0,0.0,0.0,0.0,0.0,0.0,0.0,0.0,0.0,0.0,0.0,0.0,0.0,0.0,0.0,0.0,0.0,0.0,0.0,0.0,0.0,0.0,0.0,0.0,0.0,0.0,0.0,0.0,0.0,0.0,0.0,0.0,0.0,0.0,0.0,0.0,0.0,0.0,0.0,0.0,0.0,0.0,0.0,0.0,0.0,0.0,0.0,0.0,0.0,0.0,0.0,0.0,0.0,0.0,0.0,0.0,0.0,0.0,0.0,0.0,0.0,0.0,0.0,0.0,0.0,0.0,0.0,0.0,0.0,0.0,0.0,0.0,0.0,0.0,0.0,0.0,0.0,0.0,0.0,0.0,0.0,0.0,0.0,0.0,0.0,0.0,0.0,0.0,0.0,0.0,0.0,0.0,0.0,0.0,0.0,0.0,0.0,0.0,0.0,0.0,0.0,0.0,0.0,0.0,0.0,0.0,0.0,0.0,0.0,0.0,0.0,0.0,0.0,0.0,0.0,0.0,0.0,0.0,0.0,0.0,0.0,0.0,0.0,0.0,0.0,0.0,0.0,0.0,0.0,0.0,0.0,0.0,0.0,0.0,0.0,0.0,0.0,0.0,0.0,0.0,0.0,0.0,0.0,0.0,0.0,0.0,0.0,0.0,0.0,0.0,0.0,0.0,0.0,0.0,0.0,0.0,0.0,0.0,0.0,0.0,0.0,0.0,0.0,0.0,0.0,0.0,0.0,0.0,0.0,0.0,0.0,0.0,0.0,0.0,0.0,0.0,0.0,0.0,0.0,0.0,0.0,0.0,0.0,0.0,0.0,0.0,0.0,0.0,0.0,0.0,0.0,0.0,0.0,0.0,0.0,0.0,0.0,0.0,0.0,0.0,0.0,0.0,0.0,0.0,0.0,0.0,0.0,0.0,0.0,0.0,0.0,0.0,0.0,0.0,0.0,0.0,0.0,0.0,0.0,0.0,0.0,0.0,0.0,0.0,0.0,0.0,0.0,0.0,0.0,0.0,0.0,0.0,0.0,0.0,0.0,0.0,0.0,0.0,0.0,0.0,0.0,0.0,0.0,0.0,0.0,0.0,0.0,0.0,0.0,0.0,0.0,0.0,0.0,0.0,0.0,0.0,0.0,0.0,0.0,0.0,0.0,0.0,0.0,0.0,0.0,0.0,0.0,0.0,0.0,0.0,0.0,0.0,0.0,0.0,0.0,0.0,0.0,0.0,0.0,0.0,0.0,0.0,0.0,0.0,0.0,0.0,0.0,0.0,0.0,0.0,0.0,0.0,0.0,0.0,0.0,0.0,0.0,0.0,0.0,0.0,0.0,0.0,0.0,0.0,0.0,0.0,0.0,0.0,0.0,0.0,0.0,0.0,0.0,0.0,0.0,0.0,0.0,0.0,0.0,0.0,0.0,0.0,0.0,0.0,0.0,0.0,0.0,0.0,0.0,0.0,0.0,0.0,0.0,0.0,0.0,0.0,0.0,0.0,0.0,0.0,0.0,0.0,0.0,0.0,0.0,0.0,0.0,0.0,0.0,0.0,0.0,0.0,0.0,0.0,0.0,0.0,0.0,0.0,0.0,0.0,0.0,0.0,0.0,0.0,0.0,0.0,0.0,0.0,0.0,0.0,0.0,0.0,0.0,0.0,0.0,0.0,0.0,0.0,0.0,0.0,0.0,0.0,0.0,0.0,0.0,0.0,0.0,0.0,0.0,0.0,0.0,0.0,0.0,0.0,0.0,0.0,0.0,0.0,0.0,0.0,0.0,0.0,0.0,0.0,0.0,0.0,0.0,0.0,0.0,0.0,0.0,0.0,0.0,0.0,0.0,0.0,0.0,0.0,0.0,0.0,0.0,0.0,0.0,0.0,0.0,0.0,0.0,0.0,0.0,0.0,0.0,0.0,0.0,0.0,0.0,0.0,0.0,0.0,0.0,0.0,0.0,0.0,0.0,0.0,0.0,0.0,0.0,0.0,0.0,0.0,0.0,0.0,0.0,0.0,0.0,0.0,0.0,0.0,0.0,0.0,0.0,0.0,0.0,0.0,0.0,0.0,0.0,0.0,0.0,0.0,0.0,0.0,0.0,0.0,0.0,0.0,0.0,0.0,0.0,0.0,0.0,0.0,0.0,0.0,0.0,0.0,0.0,0.0,0.0,0.0,0.0,0.0,0.0,0.0,0.0,0.0,0.0,-2.9302,0.0,0.0,0.0,0.0,0.0,0.0,0.0,0.0,0.0,0.0,0.0,0.0,0.0,0.0,0.0,0.0,0.0,0.0,0.0,0.0,0.0,0.0,0.0,0.0,0.0,0.0,0.0,0.0,0.0,0.0,0.0,0.0,0.0,0.0,0.0,0.0,0.0,0.0,0.0,0.0,0.0,0.0,0.0,0.0,0.0,0.0,0.0,0.0,0.0,0.0,0.0,0.0,0.0,0.0,0.0,0.0,0.0,0.0,0.0,0.0,0.0,0.0,0.0,0.0,0.0,0.0,0.0,0.0,0.0,0.0,0.0,0.0,0.0,0.0,0.0,0.0,0.0,0.0,0.0,0.0,0.0,0.0,0.0,0.0,0.0,0.0,0.0,0.0,0.0,0.0,0.0,0.0,0.0,0.0,0.0,0.0,0.0,0.0,0.0,0.0,0.0,0.0,0.0,0.0,0.0,0.0,0.0,0.0,0.0,0.0,0.0,0.0,0.0,0.0,0.0,0.0,-2.9329,0.0,0.0,0.0,0.0,0.0,0.0,0.0,0.0,0.0,0.0,0.0,0.0,0.0,0.0,0.0,0.0,0.0,0.0,0.0,0.0,0.0,0.0,0.0,0.0,0.0,0.0,0.0,0.0,0.0,0.0,0.0,0.0,0.0,0.0,0.0,0.0,0.0,0.0,0.0,0.0,0.0,0.0,0.0,0.0,0.0,0.0,0.0,0.0,0.0,0.0,0.0,0.0,0.0,0.0,0.0,0.0,0.0,0.0,0.0,0.0,0.0,0.0,0.0,0.0,0.0,0.0,0.0,0.0,0.0,0.0,0.0,0.0,0.0,0.0,0.0,0.0,0.0,0.0,0.0,0.0,0.0,0.0,0.0,0.0,0.0,0.0,0.0,0.0,0.0,0.0,0.0,0.0,0.0,0.0,0.0,0.0,0.0,0.0,0.0,0.0,0.0,0.0,0.0,0.0,0.0,0.0,0.0,0.0,-2.8634,-2.8541,-2.8762,-2.8762,-2.8226,-2.7315,-2.8085,-2.8085,-2.7652,-2.8459,0.0,0.0,0.0,0.0,0.0,0.0,0.0,0.0,0.0,0.0,0.0,0.0,0.0,0.0,0.0,0.0,0.0,0.0,0.0,0.0,0.0,0.0,0.0,0.0,0.0,0.0,0.0,0.0,0.0,0.0,0.0,0.0,0.0,0.0,0.0,0.0,0.0,0.0,-3.1913,-3.1749,-3.1705,-3.1705,0.0,0.0,0.0,0.0,0.0,0.0,0.0,0.0,0.0,0.0,0.0,0.0,0.0,0.0,0.0,0.0,0.0,0.0,0.0,0.0,0.0,0.0,0.0,0.0,0.0,0.0,0.0,0.0,0.0,0.0,0.0,0.0,0.0,0.0,0.0,0.0,0.0,0.0,0.0,0.0,0.0,0.0,0.0,0.0,-2.951,-3.0351,0.0,0.0,0.0,0.0,0.0,0.0,0.0,0.0,0.0,0.0,0.0,0.0,0.0,-2.9453,-2.905,-2.8226,-2.7673,-2.7463,-2.6562,-2.6149,-2.6197,-2.6197,-2.61,-2.5965,-2.6062,0.0,-2.7626,-2.7704,0.0,0.0,0.0,0.0,0.0,0.0,0.0,0.0,0.0,0.0,0.0,0.0,0.0,0.0,0.0,0.0,0.0,0.0,0.0,0.0,0.0,0.0,0.0,0.0,0.0,0.0,0.0,0.0,0.0,0.0,0.0,0.0,0.0,0.0,0.0,0.0,-3.2735,-3.2077,-3.1705,-3.1705,-3.1705,-3.1705,-3.1705,-3.1705,-3.1705,-3.1705,0.0,0.0,0.0,0.0,0.0,0.0,0.0,0.0,0.0,0.0,0.0,0.0,0.0,0.0,0.0,0.0,0.0,0.0,0.0,0.0,0.0,0.0,0.0,0.0,0.0,0.0,0.0,0.0,0.0,0.0,0.0,0.0,0.0,0.0,0.0,0.0,0.0,0.0,0.0,-3.0384,-3.0158,-3.0453,-3.0845,-3.1202,0.0,0.0,0.0,0.0,0.0,0.0,0.0,0.0,0.0,-2.8204,-2.8308,-2.7992,-2.7163,-2.6754,-2.6476,-2.637,-2.5917,-2.5781,-2.5917,-2.5917,-2.6014,-2.6169,-2.6169,-2.639,-2.6754,-2.6754,-2.7484,-2.8588,0.0,0.0,0.0,0.0,-2.9532,-2.9863,0.0,0.0,0.0,0.0,0.0,0.0,0.0,0.0,0.0,0.0,0.0,0.0,0.0,0.0,0.0,-3.7197,0.0,0.0,0.0,0.0,0.0,0.0,0.0,0.0,0.0,0.0,0.0,0.0,-3.2001,-3.1705,-3.1705,-3.1705,-3.1705,-3.1705,-3.1705,-3.1705,-3.1705,-3.1705,-3.1705,0.0,0.0,0.0,0.0,0.0,0.0,0.0,0.0,0.0,0.0,0.0,0.0,0.0,0.0,0.0,0.0,0.0,0.0,0.0,0.0,0.0,0.0,0.0,0.0,0.0,0.0,0.0,0.0,0.0,0.0,0.0,0.0,0.0,0.0,0.0,0.0,0.0,0.0,-3.0486,-3.017,-3.0441,-3.0373,-3.0508,0.0,0.0,0.0,0.0,0.0,0.0,-2.8588,-2.8716,-2.8204,-2.6867,-2.702,-2.6658,-2.5684,-2.5693,-2.5693,-2.5693,-2.5693,-2.5781,-2.6004,-2.6004,-2.6149,-2.64,-2.64,-2.6294,-2.6197,-2.6149,-2.6514,-2.722,-2.7109,-2.806,-2.9269,-2.8023,-2.8034,-2.8585,0.0,0.0,0.0,0.0,0.0,0.0,0.0,0.0,0.0,0.0,0.0,0.0,0.0,0.0,-3.6056,-3.5237,-3.5102,-3.5061,0.0,0.0,0.0,0.0,0.0,0.0,0.0,0.0,0.0,-3.1749,-3.1705,-3.1705,-3.1705,-3.1705,-3.1705,-3.1705,-3.1705,-3.1705,-3.1705,-3.1705,-3.1705,-3.1705,0.0,0.0,0.0,0.0,0.0,0.0,0.0,0.0,0.0,0.0,0.0,0.0,0.0,0.0,0.0,0.0,0.0,0.0,0.0,0.0,0.0,0.0,0.0,0.0,0.0,0.0,0.0,0.0,0.0,0.0,0.0,0.0,0.0,0.0,0.0,0.0,0.0,0.0,0.0,-3.026,-2.8877,0.0,0.0,0.0,0.0,-2.9096,-2.905,-2.8484,-2.7332,-2.7274,-2.6829,-2.583,-2.5781,-2.5781,-2.5693,-2.5693,-2.5693,-2.5693,-2.5693,-2.5684,-2.5732,-2.5732,-2.5878,-2.61,-2.61,-2.6245,-2.6448,-2.6197,-2.6139,-2.6284,-2.722,-2.7908,-2.8366,-2.8272,-2.8423,-2.8585,0.0,0.0,0.0,0.0,0.0,0.0,0.0,0.0,0.0,0.0,0.0,0.0,0.0,-3.5504,-3.5088,-3.4761,-3.4098,-3.3943,-3.4513,0.0,0.0,0.0,0.0,0.0,0.0,0.0,-3.1705,-3.1705,-3.1705,-3.1705,-3.1705,-3.1705,-3.1705,-3.1705,-3.1705,-3.1705,-3.1705,-3.1705,-3.1705,-3.1705,-3.1705,-3.1705,0.0,0.0,0.0,0.0,0.0,0.0,0.0,0.0,0.0,0.0,0.0,0.0,0.0,0.0,0.0,0.0,0.0,0.0,0.0,0.0,0.0,0.0,0.0,0.0,0.0,0.0,0.0,0.0,0.0,0.0,0.0,0.0,0.0,0.0,0.0,0.0,0.0,-2.9372,-2.8366,0.0,-2.8912,-2.8552,-2.8132,-2.784,-2.7247,-2.6706,-2.6284,-2.6235,-2.6052,-2.5684,-2.5693,-2.5693,-2.5693,-2.5693,-2.5693,-2.5693,-2.5693,-2.5781,-2.5955,-2.6159,-2.6255,-2.6352,-2.6544,-2.6544,-2.6496,-2.64,-2.6352,-2.64,-2.6918,-2.7251,-2.7431,-2.7563,-2.7704,-2.7762,0.0,0.0,0.0,0.0,0.0,0.0,0.0,0.0,0.0,0.0,0.0,-3.6089,-3.4926,-3.4345,-3.393,-3.3636,-3.298,-3.2821,-3.3395,0.0,0.0,0.0,0.0,0.0,0.0,-3.2001,-3.1705,-3.1705,-3.1705,-3.1705,-3.1705,-3.1339,-3.1383,-3.1705,-3.1339,-3.1383,-3.1705,-3.1705,-3.1705,-3.1705,-3.1705,-3.1705,-3.1705,0.0,0.0,0.0,0.0,0.0,0.0,0.0,0.0,0.0,0.0,0.0,0.0,0.0,0.0,0.0,0.0,0.0,0.0,0.0,0.0,0.0,0.0,0.0,0.0,0.0,0.0,0.0,0.0,0.0,0.0,0.0,0.0,0.0,0.0,0.0,-2.7955,-2.8912,-2.7814,-2.7352,-2.8308,-2.7531,-2.6897,-2.6686,-2.61,-2.5732,-2.582,-2.582,-2.5888,-2.6094,-2.6153,-2.6212,-2.6251,-2.6369,-2.6419,-2.6419,-2.6419,-2.6556,-2.6694,-2.69,-2.6998,-2.7085,-2.7232,-2.728,-2.7222,-2.7021,-2.695,-2.6939,-2.6807,-2.6805,-2.69,-2.7081,-2.7214,-2.7309,0.0,0.0,0.0,0.0,0.0,0.0,0.0,0.0,0.0,0.0,-3.6413,-3.5507,-3.3483,-3.3096,-3.2618,-3.1793,-3.1705,-3.1705,-3.1705,-3.1705,0.0,0.0,0.0,0.0,-3.1705,-3.1705,-3.1705,-3.1705,-3.1705,-3.1705,-3.1661,-3.0678,-3.0722,-3.1661,-3.0633,-3.0734,-3.1705,-3.1661,-3.1661,-3.1705,-3.1705,-3.1705,-3.1705,0.0,0.0,0.0,0.0,0.0,0.0,0.0,0.0,0.0,0.0,0.0,0.0,0.0,0.0,0.0,0.0,0.0,0.0,0.0,0.0,0.0,0.0,0.0,0.0,0.0,0.0,0.0,0.0,0.0,0.0,0.0,0.0,0.0,-2.9177,-2.8319,-2.7908,-2.8773,-2.703,-2.61,-2.7047,-2.6284,-2.5693,-2.5684,-2.5703,-2.5839,-2.612,-2.613,-2.6338,-2.6814,-2.7092,-2.7282,-2.7389,-2.7723,-2.7895,-2.7895,-2.7895,-2.7895,-2.7895,-2.7895,-2.8026,-2.8196,-2.8196,-2.8357,-2.8526,-2.8082,-2.7896,-2.7855,-2.6909,-2.6699,-2.69,-2.69,-2.7081,-2.7309,0.0,0.0,0.0,0.0,0.0,0.0,0.0,0.0,0.0,0.0,-3.5556,-3.4656,-3.2835,-3.2296,-3.1957,-3.1705,-3.1705,-3.1705,-3.1705,0.0,0.0,0.0,0.0,0.0,-3.1705,-3.1705,-3.1705,-3.1705,-3.1705,-3.1705,-3.1661,-3.0678,-3.0722,-3.1617,-2.9886,-3.0079,-3.1661,-3.0913,-3.1048,-3.1705,-3.1705,-3.1705,-3.1705,0.0,0.0,0.0,0.0,0.0,0.0,0.0,0.0,0.0,0.0,0.0,0.0,0.0,0.0,0.0,0.0,0.0,0.0,0.0,0.0,0.0,0.0,0.0,0.0,0.0,0.0,0.0,0.0,0.0,0.0,0.0,0.0,-2.7426,-2.7746,-2.7067,-2.6514,-2.661,-2.6235,-2.6004,-2.61,-2.5868,-2.5781,-2.5955,-2.6124,-2.6399,-2.6881,-2.6784,-2.7011,-2.7593,-2.7432,-2.7492,-2.7774,-2.7834,-2.7895,-2.7895,-2.7895,-2.7895,-2.7895,-2.8066,-2.8066,-2.7975,-2.8156,-2.8247,-2.8287,-2.8164,-2.8212,-2.8299,-2.7417,-2.7119,-2.7167,-2.7167,-2.7214,-2.7309,0.0,0.0,0.0,0.0,0.0,0.0,0.0,0.0,0.0,0.0,-3.4847,-3.3869,-3.2299,-3.185,-3.1705,-3.1705,-3.1705,-3.1705,-3.1705,0.0,0.0,0.0,0.0,-3.1705,-3.1705,-3.1705,-3.1705,-3.1705,-3.1705,-3.1705,-3.1661,-3.0678,-3.0722,-3.1617,-2.9612,-2.9555,-3.1003,-2.9977,-3.017,-3.1059,-3.1059,-3.1059,-3.1104,-3.1528,-3.1059,-3.0215,-3.0215,-2.9758,-2.915,-2.8892,0.0,0.0,0.0,0.0,0.0,0.0,0.0,0.0,0.0,0.0,0.0,0.0,0.0,0.0,0.0,0.0,0.0,0.0,0.0,0.0,0.0,0.0,0.0,0.0,-2.7105,-2.6552,-2.6552,-2.6187,-2.5868,-2.5742,-2.583,-2.5937,-2.5996,-2.6094,-2.6271,-2.6438,-2.6804,-2.7102,-2.7282,-2.7422,-2.7702,-2.8157,-2.8198,-2.8329,-2.8583,-2.8696,-2.8799,-2.8799,-2.8799,-2.8799,-2.8799,-2.8881,-2.8881,0.0,-2.8881,-2.8921,-2.8962,-2.8716,-2.8746,0.0,0.0,0.0,0.0,0.0,-2.7309,-2.7309,0.0,0.0,0.0,0.0,0.0,0.0,0.0,0.0,0.0,0.0,0.0,-3.3292,-3.1881,-3.1705,-3.1705,-3.1705,-3.1705,-3.1705,0.0,0.0,0.0,-3.1705,-3.1705,-3.1705,-3.1705,-3.1705,-3.1705,-3.1705,-3.1705,-3.1705,-3.1661,-3.0678,-3.0722,-3.1617,-2.9612,-2.9326,-3.0306,-2.928,-2.9372,-3.0215,-3.0215,-3.026,-3.0441,-3.1238,-3.0913,-3.0022,-2.9886,-2.9235,-2.8337,-2.7841,0.0,0.0,0.0,0.0,0.0,0.0,0.0,0.0,0.0,0.0,0.0,0.0,0.0,0.0,0.0,0.0,0.0,0.0,0.0,0.0,0.0,0.0,0.0,0.0,-2.6476,-2.5781,-2.5791,-2.583,-2.5791,-2.5693,-2.5781,-2.5967,-2.6348,-2.6665,-2.6943,-2.7033,-2.7621,-2.7854,-2.757,0.0,0.0,0.0,0.0,-2.9415,-2.9659,-2.9879,-2.9994,-2.9994,-2.9994,-2.9994,-2.9994,-2.9994,-2.9994,-2.9994,-2.9994,-2.9994,-2.9963,-2.9549,-2.9384,-2.9332,-2.8814,-2.8359,-2.7955,-2.7562,-2.7465,-2.7455,0.0,0.0,0.0,0.0,0.0,0.0,0.0,0.0,0.0,-3.5224,-3.4856,-3.3956,-3.1913,-3.1705,-3.1705,-3.1705,-3.1705,-3.1705,0.0,0.0,-3.1705,-3.1705,-3.1705,-3.1705,-3.1705,-3.1705,-3.1705,-3.1705,-3.1705,-3.1705,-3.1661,-3.0678,-3.0722,-3.1617,-2.9612,-2.9704,-3.1339,-3.0351,-3.0022,-3.0215,-3.0215,-3.0689,-3.1339,-3.0722,-2.9886,-2.8866,-2.8075,-2.7284,-2.6572,-2.6248,-2.6369,-2.6656,-2.6804,0.0,0.0,0.0,0.0,0.0,0.0,0.0,0.0,0.0,0.0,0.0,0.0,0.0,0.0,0.0,0.0,0.0,0.0,0.0,0.0,-2.6678,-2.6342,-2.61,-2.6304,-2.6457,-2.636,-2.5781,-2.6232,-2.6527,-2.6427,-2.6931,-2.73,-2.7338,-2.7993,-2.847,-2.8624,-2.8793,-2.9183,-2.9703,-2.9588,-2.9682,-2.9942,-2.9994,-2.9994,-2.9994,0.0,0.0,-2.9994,-2.9994,-2.9994,-2.9994,-2.9994,-2.9994,-2.9984,-2.9901,-2.986,-2.9777,-2.8938,-2.8556,-2.8473,-2.839,-2.8349,-2.8297,0.0,0.0,0.0,0.0,0.0,0.0,0.0,0.0,0.0,0.0,-3.4979,-3.3998,-3.2686,-3.2145,-3.1849,-3.1849,-3.1761,0.0,0.0,-3.1705,-3.1705,-3.1705,-3.1705,-3.1705,-3.1705,-3.1705,-3.1705,-3.1705,-3.1705,-3.1705,-3.1705,-3.1193,-3.1238,-3.1617,-3.0125,-3.0034,-3.0869,-2.9886,-2.9464,-2.9464,-2.9464,-3.0022,-3.0824,-2.9841,-2.9143,-2.8588,-2.7558,-2.6962,-2.6552,-2.6052,-2.6103,-2.6418,-2.6574,-2.6773,-2.7002,0.0,0.0,0.0,0.0,0.0,0.0,0.0,0.0,0.0,0.0,0.0,0.0,0.0,0.0,-2.6448,0.0,0.0,-2.6294,-2.6294,-2.6197,-2.6228,-2.6603,-2.6724,-2.6626,-2.6261,-2.6615,-2.6979,-2.7247,-2.7658,-2.8021,-2.8241,-2.8731,-2.9019,-2.8977,-2.9232,-2.9501,-2.9774,-2.9774,-2.9879,-2.9994,-2.9994,-2.9994,-2.9994,-2.9994,-2.9994,-2.9994,-2.9994,-2.9994,-2.9994,-2.9994,-2.9994,-2.9994,-2.9994,-2.9994,-2.9953,-2.9487,-2.9166,-2.8928,-2.87,-2.8618,-2.8587,0.0,0.0,0.0,0.0,0.0,0.0,0.0,0.0,0.0,0.0,-3.5264,-3.429,-3.3755,-3.2871,-3.2232,0.0,0.0,0.0,0.0,-3.1761,-3.1749,-3.1705,-3.1761,-3.1749,-3.1705,-3.1705,-3.1705,-3.1705,-3.1705,-3.1705,-3.1705,-3.1705,-3.1705,-3.1661,-3.0869,-3.0498,-3.0453,-2.9612,-2.9189,-2.905,-2.9004,-2.9521,-3.017,-2.9143,-2.8727,-2.8541,-2.7379,-2.701,-2.6962,-2.638,-2.6197,-2.6294,-2.6496,-2.6602,-2.6592,-2.664,-2.664,0.0,0.0,0.0,0.0,0.0,0.0,0.0,0.0,0.0,-2.6805,-2.641,-2.64,-2.6352,-2.6149,-2.6294,-2.64,-2.6294,-2.6315,-2.6543,-2.6952,-2.7102,-2.7112,-2.7142,-2.7219,-2.7471,-2.8075,-2.8403,-2.876,-2.9059,-2.9396,-2.9501,-2.9237,-2.9501,-2.9659,-2.9659,-2.9889,-2.9994,-2.9994,-2.9994,-2.9994,-2.9994,-2.9994,-2.9994,-2.9994,-2.9994,-2.9994,-2.9994,-2.9994,-2.9994,-2.9994,-2.9994,-2.9994,-2.9994,-2.9994,-2.9766,-2.9394,-2.9021,-2.8887,-2.8866,0.0,0.0,0.0,0.0,0.0,0.0,0.0,0.0,0.0,0.0,0.0,0.0,0.0,0.0,0.0,0.0,0.0,0.0,-3.1749,-3.1849,-3.1893,-3.1705,-3.1849,-3.1893,-3.1705,-3.1705,-3.1705,-3.1705,-3.1705,-3.1705,-3.1705,-3.1705,-3.1705,-3.1705,-3.1572,-3.1516,-3.1516,-3.1427,-3.0958,-3.026,-3.0113,-3.0215,-3.0362,-2.9326,-2.8866,-2.8495,-2.6839,-2.638,-2.6582,-2.6496,-2.6592,-2.6805,-2.6853,-2.6853,-2.69,-2.7119,0.0,-2.7214,-2.7214,-2.7034,-2.6853,-2.69,-2.69,-2.6805,0.0,0.0,-2.6709,-2.5927,-2.5965,-2.6149,-2.61,-2.61,-2.6294,-2.6747,-2.7168,-2.7531,-2.7719,-2.8076,-2.8389,-2.8604,-2.8439,-2.8273,-2.8105,-2.8673,-2.9029,-2.9122,-2.9396,-2.9606,-2.9554,-2.9827,-2.9942,-2.9942,-2.9994,-2.9994,-2.9994,-2.9994,-2.9994,-2.9994,-2.9994,-2.9994,-2.9994,-2.9994,-2.9994,-2.9994,-2.9994,-2.9994,-2.9994,-2.9994,-2.9994,-2.9994,-2.9994,-2.9963,-2.9911,-2.986,-2.9839,-2.9777,0.0,0.0,0.0,0.0,0.0,0.0,0.0,0.0,0.0,0.0,0.0,0.0,0.0,0.0,0.0,0.0,0.0,0.0,-3.2698,-3.2419,-3.2213,-3.2125,-3.2038,-3.195,-3.1893,-3.1761,-3.1705,-3.1705,-3.1705,-3.1705,-3.1705,-3.1705,-3.1705,-3.1717,-3.1805,-3.1893,-3.1893,-3.2025,-3.156,-3.0722,-3.0621,-3.0678,-3.0621,-2.9601,-2.9555,-2.9783,-2.8158,-2.7475,0.0,0.0,-2.7056,-2.6948,-2.7081,-2.7129,-2.7177,-2.7262,-2.7309,0.0,-2.7129,-2.6996,0.0,0.0,-2.69,-2.6853,-2.6602,-2.6747,-2.6709,-2.6062,-2.6159,-2.6304,-2.6149,-2.6352,-2.6731,0.0,-2.747,-2.7826,-2.8419,-2.8503,-2.863,-2.8997,-2.9069,-2.9122,-2.8955,-2.9232,-2.9448,-2.9617,-2.9606,-2.9669,-2.9827,-2.9774,-2.9827,-2.9994,-2.9994,-2.9994,-2.9994,-2.9994,-2.9994,-2.9994,-2.9994,-2.9994,-2.9994,-2.9994,-2.9994,-2.9994,-2.9994,-2.9994,-2.9994,-2.9994,-2.9994,-2.9994,-2.9994,-2.9994,-2.9994,-2.9994,-2.9994,-2.9973,0.0,0.0,0.0,0.0,0.0,0.0,0.0,0.0,0.0,0.0,0.0,0.0,0.0,0.0,0.0,0.0,0.0,0.0,0.0,-3.3458,-3.3086,-3.2754,-3.2871,-3.2655,-3.2125,-3.2176,-3.2089,-3.1793,-3.1793,-3.1749,-3.1705,-3.1705,-3.1705,-3.1805,-3.1937,-3.2038,-3.2125,-3.23,-3.2013,-3.1403,-3.1359,-3.1359,-3.1303,-3.0598,-3.0826,-3.1385,-2.9731,-2.8838,0.0,0.0,-2.7817,-2.7404,-2.7309,-2.7309,-2.7309,-2.7309,-2.7309,-2.7262,-2.7081,0.0,0.0,-2.6986,-2.6948,-2.69,-2.69,-2.6948,-2.6842,-2.6294,-2.64,-2.6544,-2.6352,-2.6651,-2.7091,-2.7608,-2.7793,-2.8152,-2.8901,-2.891,-2.8936,-2.9303,-2.9501,-2.9606,-2.9722,-2.9659,-2.9711,-2.9994,-2.9774,-2.9722,-2.9994,-2.9827,-2.9774,-2.9994,-2.9994,-2.9994,-2.9994,-2.9994,-2.9994,-2.9994,-2.9994,-2.9994,-2.9994,-2.9994,-2.9994,-2.9994,-2.9994,-2.9994,-2.9994,-2.9994,-2.9994,-2.9994,-2.9994,-2.9994,-2.9994,-2.9994,-2.9994,-2.9994,0.0,0.0,0.0,0.0,0.0,0.0,0.0,0.0,0.0,0.0,0.0,0.0,0.0,0.0,0.0,0.0,0.0,0.0,0.0,-3.5102,-3.4733,-3.3716,-3.465,-3.4332,-3.2431,-3.3189,-3.3091,-3.1994,-3.1994,-3.1893,-3.1705,-3.1705,-3.1805,-3.1994,-3.1994,-3.2125,-3.24,-3.24,-3.2463,-3.2624,-3.2431,-3.2463,-3.2624,-3.2624,-3.2946,-3.3182,-3.1251,0.0,0.0,0.0,-2.907,-2.8491,-2.7584,-2.7309,0.0,-2.7309,-2.7309,0.0,0.0,0.0,-2.6948,-2.7214,-2.7081,-2.69,-2.69,-2.7081,-2.7119,-2.6592,-2.6699,-2.69,-2.69,-2.69,-2.714,-2.7754,-2.8247,-2.8763,-2.9239,-2.9476,-2.9649,-2.9942,-2.9774,-2.9722,0.0,-2.9774,-2.9711,-2.9994,-2.9774,-2.9722,-2.9994,-2.9994,-2.9994,-2.9994,-2.9994,-2.9994,-2.9994,-2.9994,-2.9994,-2.9994,-2.9994,-2.9994,-2.9994,-2.9994,-2.9994,-2.9994,-2.9994,-2.9994,-2.9994,-2.9994,-2.9994,-2.9994,-2.9994,-2.9994,-2.9994,-2.9994,-2.9994,-2.9994,0.0,0.0,0.0,0.0,0.0,0.0,0.0,0.0,0.0,0.0,0.0,0.0,0.0,0.0,0.0,0.0,0.0,0.0,0.0,-3.5709,-3.5332,-3.4966,-3.5183,-3.4979,-3.4332,-3.4498,-3.4361,-3.3998,-3.3433,-3.3091,-3.3006,-3.245,-3.2213,-3.2257,-3.2419,-3.2506,-3.2593,-3.2779,-3.2896,-3.2939,-3.2896,-3.2896,-3.2977,-3.3352,-3.3602,-3.3763,0.0,0.0,0.0,0.0,0.0,0.0,-2.946,0.0,0.0,-2.7489,0.0,0.0,0.0,0.0,-2.7167,-2.7262,-2.7214,-2.7177,-2.7177,-2.7214,-2.7214,-2.6842,-2.6986,-2.7222,-2.7316,-2.7277,-2.7517,-2.8669,-2.8711,-2.8887,-2.9653,-2.9671,-2.9722,-2.9994,-2.9774,0.0,0.0,0.0,0.0,-2.9994,-2.9942,-2.9889,-2.9994,-2.9994,-2.9994,-2.9994,-2.9994,-2.9994,-2.9994,-2.9994,-2.9994,-2.9994,-2.9994,-2.9994,-2.9994,-2.9994,-2.9994,-2.9994,-2.9994,-2.9994,-2.9994,-2.9994,-2.9994,-2.9994,-2.9994,-2.9994,-2.9994,-2.9994,-2.9994,-2.9994,0.0,0.0,0.0,0.0,0.0,0.0,0.0,0.0,0.0,0.0,0.0,0.0,0.0,0.0,0.0,0.0,0.0,0.0,0.0,0.0,-3.6385,-3.6068,-3.6227,-3.6029,-3.5413,-3.5588,-3.5507,-3.5102,-3.4568,-3.4236,-3.4165,-3.3275,-3.2914,-3.2957,-3.2797,-3.2754,-3.2853,-3.3025,-3.3124,-3.3136,-3.3294,-3.337,-3.3432,-3.3985,-3.4311,0.0,0.0,0.0,0.0,0.0,0.0,0.0,0.0,0.0,0.0,0.0,0.0,0.0,0.0,-2.7309,-2.7309,-2.7309,-2.7309,-2.7309,-2.7309,-2.7309,-2.7262,-2.7081,-2.7167,-2.7345,-2.749,-2.7486,-2.7841,-2.8887,-2.8949,-2.9125,-2.9891,-2.9827,-2.9827,-2.9994,-2.9837,-2.9827,0.0,0.0,0.0,-2.9994,-2.9994,-2.9994,-2.9994,-2.9994,-2.9994,-2.9994,-2.9994,-2.9994,-2.9994,-2.9994,-2.9994,-2.9994,-2.9994,-2.9994,-2.9994,-2.9994,-2.9994,-2.9994,-2.9994,-2.9994,-2.9994,-2.9994,-2.9994,-2.9994,-2.9994,-2.9994,-2.9994,-2.9994,-2.9994,-2.9994,0.0,0.0,0.0,0.0,0.0,0.0,0.0,0.0,0.0,0.0,0.0,0.0,0.0,0.0,0.0,0.0,0.0,0.0,0.0,0.0,0.0,-3.7014,-3.7772,-3.7438,-3.5775,-3.6557,-3.6478,-3.5467,-3.5427,-3.5264,-3.5074,-3.4207,-3.3914,-3.4027,-3.3147,-3.2939,-3.3154,-3.3124,-3.3136,-3.3212,-3.3684,-3.3922,-3.3997,-3.4562,0.0,0.0,0.0,0.0,0.0,0.0,0.0,0.0,0.0,0.0,0.0,0.0,0.0,-2.7309,-2.7309,-2.7309,-2.7309,-2.7309,-2.7309,-2.7309,-2.7309,-2.7309,-2.7309,-2.7309,-2.7309,-2.732,0.0,0.0,-2.8059,-2.8566,-2.9001,-2.9435,-2.9922,-2.9994,-2.9994,0.0,0.0,0.0,0.0,0.0,0.0,-2.9994,0.0,-2.9994,-2.9994,-2.9994,-2.9994,-2.9994,-2.9994,-2.9994,-2.9994,-2.9994,-2.9994,-2.9994,-2.9994,-2.9994,-2.9994,-2.9994,-2.9994,-2.9994,-2.9994,-2.9994,-2.9994,-2.9994,-2.9994,-2.9994,-2.9994,-2.9994,-2.9994,-2.9994,-2.9994,-2.9994,0.0,0.0,0.0,0.0,0.0,0.0,0.0,0.0,0.0,0.0,0.0,0.0,0.0,0.0,0.0,0.0,0.0,0.0,0.0,0.0,0.0,0.0,0.0,0.0,0.0,0.0,0.0,0.0,0.0,-3.6492,-3.6413,-3.5534,-3.5129,0.0,-3.4317,-3.4021,-3.4034,-3.3368,-3.3319,-3.3709,0.0,-3.4148,-3.4575,0.0,0.0,0.0,0.0,0.0,0.0,0.0,0.0,0.0,0.0,0.0,-2.8538,0.0,0.0,-2.7309,-2.7309,-2.7309,-2.7309,-2.7309,-2.7309,-2.7309,-2.7309,-2.7309,-2.7309,-2.7309,-2.7309,-2.7413,0.0,0.0,0.0,-2.8938,-2.8938,0.0,-2.988,-2.9994,0.0,-2.9994,0.0,-2.9994,-2.9994,-2.9994,0.0,0.0,-2.9994,-2.9994,-2.9994,-2.9994,-2.9994,-2.9994,-2.9994,-2.9994,-2.9994,-2.9994,-2.9994,-2.9994,-2.9994,-2.9994,-2.9994,-2.9994,-2.9994,-2.9994,-2.9994,-2.9994,-2.9994,-2.9994,-2.9994,-2.9994,-2.9994,-2.9994,-2.9994,-2.9994,-2.9994,-2.9994,0.0,0.0,0.0,0.0,0.0,0.0,0.0,0.0,0.0,0.0,0.0,0.0,0.0,0.0,0.0,0.0,0.0,0.0,0.0,0.0,0.0,0.0,0.0,0.0,0.0,0.0,0.0,0.0,0.0,0.0,0.0,-3.6596,-3.6148,-3.6108,-3.5291,-3.4937,-3.4896,0.0,0.0,0.0,0.0,0.0,0.0,0.0,0.0,0.0,0.0,0.0,0.0,0.0,0.0,-3.1958,-2.9459,-2.8678,-2.8538,-2.7584,0.0,-2.7309,-2.7309,-2.7309,-2.7309,-2.7309,-2.7309,-2.7309,-2.7309,-2.7309,-2.7309,-2.7309,-2.7309,0.0,0.0,0.0,0.0,0.0,0.0,0.0,-2.9891,-2.9994,-2.9994,0.0,-2.9994,0.0,-2.9994,-2.9994,-2.9994,0.0,-2.9994,-2.9994,-2.9994,-2.9994,-2.9994,-2.9994,-2.9994,-2.9994,-2.9994,-2.9994,-2.9994,-2.9994,-2.9994,-2.9994,-2.9994,-2.9994,-2.9994,-2.9994,0.0,-2.9994,-2.9994,-2.9994,-2.9994,-2.9994,-2.9994,-2.9994,-2.9994,-2.9994,-2.9994,-3.0047,0.0,0.0,0.0,0.0,0.0,0.0,0.0,0.0,0.0,0.0,0.0,0.0,0.0,0.0,0.0,0.0,0.0,0.0,0.0,0.0,0.0,0.0,0.0,0.0,0.0,0.0,0.0,0.0,0.0,0.0,0.0,0.0,0.0,0.0,0.0,0.0,0.0,0.0,0.0,0.0,0.0,0.0,0.0,0.0,0.0,0.0,0.0,0.0,0.0,0.0,-3.2919,-3.1958,-2.9459,-2.8678,-2.8538,-2.7584,-2.7309,-2.7309,-2.7309,-2.7309,-2.7309,-2.7309,-2.7309,-2.7309,-2.7309,-2.7309,-2.7309,-2.7309,0.0,-2.7309,-2.7309,-2.7572,-2.8007,-2.8524,0.0,-2.9394,-2.9922,-2.9994,-2.9994,-2.9994,-2.9994,-2.9994,-2.9994,-2.9994,-2.9994,-2.9994,-2.9994,-2.9994,-2.9994,-2.9994,-2.9994,-2.9994,-2.9994,-2.9994,-2.9994,-2.9994,-2.9994,-2.9994,-2.9994,-2.9994,-2.9994,-2.9994,-2.9994,-2.9994,-2.9994,0.0,-2.9994,-2.9994,-2.9994,-2.9994,-2.9994,-2.9994,-2.9994,-2.9994,-3.0099,-3.0339,0.0,0.0,0.0,0.0,0.0,0.0,0.0,0.0,0.0,0.0,0.0,0.0,0.0,0.0,0.0,0.0,0.0,0.0,0.0,0.0,0.0,0.0,0.0,0.0,0.0,0.0,0.0,0.0,0.0,0.0,0.0,0.0,0.0,0.0,0.0,0.0,0.0,0.0,0.0,0.0,0.0,0.0,0.0,0.0,0.0,0.0,0.0,0.0,0.0,0.0,-3.2919,-3.1958,-2.9459,-2.8678,-2.8538,-2.7584,-2.7309,-2.7309,-2.7309,-2.7309,-2.7309,-2.7309,-2.7309,-2.7309,-2.7309,-2.7309,0.0,0.0,0.0,-2.7309,-2.7309,-2.7372,0.0,-2.8483,0.0,0.0,0.0,0.0,-2.9994,0.0,0.0,0.0,0.0,0.0,0.0,0.0,0.0,-2.9994,-2.9994,-2.9994,-2.9994,-2.9994,-2.9994,-2.9994,-2.9994,-2.9994,-2.9994,-2.9994,-2.9994,-2.9994,-2.9994,-2.9994,-2.9994,-2.9994,-2.9994,0.0,-2.9994,-2.9994,-2.9994,-2.9994,-2.9994,-2.9994,-2.9994,-2.9994,-3.0536,-3.133,0.0,0.0,0.0,0.0,0.0,0.0,0.0,0.0,0.0,0.0,0.0,0.0,0.0,0.0,0.0,0.0,0.0,0.0,0.0,0.0,0.0,0.0,0.0,0.0,0.0,0.0,0.0,0.0,0.0,0.0,0.0,0.0,0.0,0.0,0.0,0.0,0.0,0.0,0.0,0.0,0.0,0.0,0.0,0.0,0.0,0.0,0.0,0.0,0.0,0.0,-3.3995,-3.267,-2.9643,-2.8678,-2.8538,-2.7584,-2.7631,-2.8034,-2.8034,-2.8034,-2.8034,-2.8034,-2.7668,-2.7309,-2.7309,0.0,0.0,0.0,0.0,-2.7603,-2.7603,0.0,0.0,0.0,0.0,0.0,0.0,0.0,0.0,0.0,0.0,0.0,0.0,0.0,0.0,0.0,0.0,-2.9994,-2.9994,-2.9994,-2.9994,-2.9994,-2.9994,-2.9994,-2.9994,-2.9994,-2.9994,-2.9994,-2.9994,-2.9994,-2.9994,-2.9994,-2.9994,-2.9994,-2.9994,0.0,-2.9994,-2.9994,-2.9994,-2.9994,-2.9994,-2.9994,-3.0047,-3.064,-3.1187,-3.1779,0.0,0.0,0.0,0.0,0.0,0.0,0.0,0.0,0.0,0.0,0.0,0.0,0.0,0.0,0.0,0.0,0.0,0.0,0.0,0.0,0.0,0.0,0.0,0.0,0.0,0.0,0.0,0.0,0.0,0.0,0.0,0.0,0.0,0.0,0.0,0.0,0.0,0.0,0.0,0.0,0.0,0.0,0.0,0.0,0.0,0.0,0.0,0.0,0.0,0.0,-3.5102,-3.3605,-3.048,-2.9392,-2.913,-2.8222,-2.8445,-2.8945,-2.8771,-2.8852,-2.8899,-2.8491,-2.7998,-2.7536,-2.7357,-2.7309,0.0,0.0,-2.7686,-2.7955,-2.8059,0.0,0.0,0.0,0.0,0.0,0.0,0.0,0.0,0.0,0.0,0.0,0.0,0.0,0.0,0.0,0.0,0.0,-2.9994,-2.9994,-2.9994,-2.9994,-2.9994,-2.9994,-2.9994,-2.9994,-2.9994,-2.9994,-2.9994,-2.9994,-2.9994,-2.9994,-2.9994,-2.9994,-2.9994,0.0,0.0,-2.9994,-2.9994,-2.9994,-2.9994,-2.9994,-3.0141,-3.1187,-3.1728,-3.2235,0.0,0.0,0.0,0.0,0.0,0.0,0.0,0.0,0.0,0.0,0.0,0.0,0.0,0.0,0.0,0.0,0.0,0.0,0.0,0.0,0.0,0.0,0.0,0.0,0.0,0.0,0.0,0.0,0.0,0.0,0.0,0.0,0.0,0.0,0.0,0.0,0.0,0.0,0.0,0.0,0.0,0.0,0.0,0.0,0.0,0.0,0.0,0.0,0.0,0.0,0.0,-3.464,-3.266,-3.1717,-3.1169,-3.0215,0.0,0.0,-2.8945,-2.936,-2.9624,-2.7857,-2.7998,-2.8362,-2.7489,0.0,0.0,-2.7779,-2.7893,-2.8048,-2.8473,-2.8556,0.0,0.0,0.0,0.0,0.0,0.0,0.0,0.0,0.0,0.0,0.0,0.0,0.0,0.0,0.0,0.0,-2.9994,-2.9994,-2.9994,-2.9994,-2.9994,-2.9994,-2.9994,-2.9994,-2.9994,-2.9994,-2.9994,-2.9994,-2.9994,-2.9994,-2.9994,-2.9994,-2.9994,0.0,0.0,-2.9994,-2.9994,-2.9994,-2.9994,-2.9994,-3.0141,-3.1187,-3.2235,-3.3201,0.0,0.0,0.0,0.0,0.0,0.0,0.0,0.0,0.0,0.0,0.0,0.0,0.0,0.0,0.0,0.0,0.0,0.0,0.0,0.0,0.0,0.0,0.0,0.0,0.0,0.0,0.0,0.0,0.0,0.0,0.0,0.0,0.0,0.0,0.0,0.0,0.0,0.0,0.0,0.0,0.0,0.0,0.0,0.0,0.0,0.0,0.0,0.0,0.0,0.0,0.0,0.0,-3.4357,-3.3751,0.0,0.0,-3.0711,-3.1169,-3.0576,-3.0722,-3.0857,-3.0079,-2.9314,-2.8661,-2.8586,0.0,0.0,-2.8245,-2.8566,-2.8804,-2.9001,-2.9032,-2.9032,0.0,0.0,0.0,0.0,0.0,0.0,0.0,0.0,0.0,0.0,0.0,0.0,0.0,0.0,0.0,-2.9994,-2.9994,-2.9994,-2.9994,-2.9994,-2.9994,-2.9994,-2.9994,-2.9994,-2.9994,-2.9994,-2.9994,-2.9994,-2.9994,-2.9994,-3.0047,-3.0692,0.0,0.0,-3.1403,-3.1545,-3.1032,-3.1648,-3.1953,-3.2055,-3.3128,-3.3784,-3.4337,0.0,0.0,0.0,0.0,0.0,0.0,0.0,0.0,0.0,0.0,0.0,0.0,0.0,0.0,0.0,0.0,0.0,0.0,0.0,0.0,0.0,0.0,0.0,0.0,0.0,0.0,0.0,0.0,0.0,0.0,0.0,0.0,0.0,0.0,0.0,0.0,0.0,0.0,0.0,0.0,0.0,0.0,0.0,0.0,0.0,0.0,0.0,0.0,0.0,0.0,0.0,0.0,0.0,0.0,0.0,0.0,-3.1701,-3.2295,-3.1757,-3.1813,-3.1893,-3.1135,-3.0125,-2.9286,0.0,0.0,-2.8255,-2.8721,-2.9073,-2.9342,-2.9487,-2.9508,-2.9466,0.0,0.0,0.0,0.0,0.0,0.0,0.0,0.0,0.0,0.0,0.0,0.0,0.0,0.0,0.0,-2.9994,-2.9994,-2.9994,-2.9994,-2.9994,-2.9994,-2.9994,-2.9994,-2.9994,-2.9994,-2.9994,-2.9994,-2.9994,-2.9994,-2.9994,-3.0047,-3.1135,0.0,0.0,-3.2448,-3.275,-3.2134,-3.2889,-3.3201,-3.335,-3.4385,-3.4775,-3.4969,0.0,0.0,0.0,0.0,0.0,0.0,0.0,0.0,0.0,0.0,0.0,0.0,0.0,0.0,0.0,0.0,0.0,0.0,0.0,0.0,0.0,0.0,0.0,0.0,0.0,0.0,0.0,0.0,0.0,0.0,0.0,0.0,0.0,0.0,0.0,0.0,0.0,0.0,0.0,0.0,0.0,0.0,0.0,0.0,0.0,0.0,0.0,0.0,0.0,0.0,0.0,0.0,0.0,0.0,0.0,0.0,-3.324,-3.3129,-3.1933,-3.2307,-3.2486,-3.0068,-3.0122,-3.0422,0.0,0.0,-2.8742,-2.9208,-2.9301,-2.9446,-2.9901,-2.9984,-2.9839,-2.9384,0.0,0.0,0.0,0.0,0.0,0.0,0.0,0.0,0.0,0.0,0.0,0.0,0.0,0.0,-2.9994,-2.9994,-2.9994,-2.9994,-2.9994,-2.9994,-2.9994,-2.9994,-2.9994,-2.9994,-2.9994,-2.9994,-2.9994,-2.9994,-2.9994,0.0,0.0,0.0,0.0,-3.275,-3.3201,-3.3201,-3.3201,-3.3201,-3.335,-3.4385,-3.4775,-3.4969,0.0,0.0,0.0,0.0,0.0,0.0,0.0,0.0,0.0,0.0,0.0,0.0,0.0,0.0,0.0,0.0,0.0,0.0,0.0,0.0,0.0,0.0,0.0,0.0,0.0,0.0,0.0,0.0,0.0,0.0,0.0,0.0,0.0,0.0,0.0,0.0,0.0,0.0,0.0,0.0,0.0,0.0,0.0,0.0,0.0,0.0,0.0,0.0,0.0,0.0,0.0,0.0,0.0,0.0,0.0,0.0,0.0,0.0,-3.395,-3.4097,-3.4236,-3.3244,-3.2751,-3.2277,-3.1409,0.0,-3.0088,-2.9829,-2.9777,-2.9818,-2.9973,-2.9994,-2.9942,-2.9798,-2.9508,0.0,0.0,0.0,0.0,0.0,0.0,0.0,0.0,0.0,0.0,0.0,0.0,0.0,-2.9994,-2.9994,-2.9994,-2.9994,-2.9994,-2.9994,-2.9994,-2.9994,-2.9994,-2.9994,-2.9994,-2.9994,-3.0047,-3.0733,-3.1084,0.0,0.0,0.0,0.0,-3.4629,-3.4981,-3.4385,-3.5126,-3.5367,-3.5427,-3.5763,-3.5918,-3.5966,0.0,0.0,0.0,0.0,0.0,0.0,0.0,0.0,0.0,0.0,0.0,0.0,0.0,0.0,0.0,0.0,0.0,0.0,0.0,0.0,0.0,0.0,0.0,0.0,0.0,0.0,0.0,0.0,0.0,0.0,0.0,0.0,0.0,0.0,0.0,0.0,0.0,0.0,0.0,0.0,0.0,0.0,0.0,0.0,0.0,0.0,0.0,0.0,0.0,0.0,0.0,0.0,0.0,0.0,0.0,0.0,0.0,0.0,0.0,-3.5041,-3.5059,-3.4782,-3.4105,0.0,0.0,0.0,-3.0911,-3.0182,-2.9994,-2.9994,-2.9994,-2.9994,-2.9994,-2.9994,-2.9611,0.0,0.0,0.0,0.0,0.0,0.0,0.0,0.0,0.0,0.0,0.0,0.0,0.0,-2.9994,-2.9994,-2.9994,-2.9994,-2.9994,-2.9994,-2.9994,-2.9994,-2.9994,-2.9994,-3.0391,-3.0588,-3.064,-3.1688,-3.2185,0.0,0.0,0.0,0.0,-3.5667,-3.6013,-3.5475,-3.6168,-3.6405,-3.6405,-3.6405,-3.6405,-3.6405,0.0,0.0,0.0,0.0,0.0,0.0,0.0,0.0,0.0,0.0,0.0,0.0,0.0,0.0,0.0,0.0,0.0,0.0,0.0,0.0,0.0,0.0,0.0,0.0,0.0,0.0,0.0,0.0,-4.2795,-4.2795,-4.2474,0.0,0.0,0.0,0.0,0.0,0.0,0.0,0.0,0.0,0.0,0.0,0.0,0.0,0.0,0.0,0.0,0.0,0.0,0.0,0.0,0.0,0.0,0.0,0.0,0.0,0.0,0.0,0.0,0.0,0.0,0.0,0.0,0.0,0.0,0.0,0.0,0.0,-2.9994,-2.9994,-2.9994,-2.9994,-2.9994,-2.9994,-2.9611,0.0,0.0,0.0,0.0,0.0,0.0,0.0,0.0,0.0,0.0,0.0,0.0,0.0,-2.9994,-2.9994,-2.9994,-2.9994,-2.9994,-2.9994,-2.9994,-2.9994,-2.9994,-2.9994,-3.1032,-3.1534,-3.1626,-3.27,-3.325,0.0,0.0,0.0,0.0,-3.6013,-3.6405,-3.6405,-3.6405,-3.6405,-3.6405,-3.6405,-3.6405,-3.6405,0.0,0.0,0.0,0.0,0.0,0.0,0.0,0.0,0.0,0.0,0.0,0.0,0.0,0.0,0.0,0.0,0.0,0.0,0.0,0.0,0.0,0.0,0.0,0.0,0.0,0.0,0.0,-4.2607,-4.305,-4.3076,-4.2875,-4.3115,0.0,0.0,0.0,0.0,0.0,0.0,0.0,0.0,0.0,0.0,0.0,0.0,0.0,0.0,-3.3804,-3.3674,0.0,0.0,0.0,0.0,0.0,0.0,0.0,0.0,-3.6902,0.0,0.0,0.0,0.0,0.0,0.0,0.0,0.0,0.0,0.0,0.0,0.0,-2.9994,-2.9994,-2.9994,-2.9994,-2.9994,-2.9611,0.0,0.0,0.0,0.0,0.0,0.0,0.0,0.0,0.0,0.0,0.0,0.0,-2.9994,-2.9994,-2.9994,-2.9994,-2.9994,-2.9994,-2.9994,-2.9994,-2.9994,-2.9994,-2.9994,-3.0245,-3.0795,-3.1626,-3.27,-3.3648,0.0,0.0,0.0,-3.6061,-3.631,-3.6405,-3.6405,-3.6405,-3.6405,-3.6405,-3.6405,-3.6405,-3.6405,0.0,0.0,0.0,0.0,0.0,0.0,0.0,0.0,0.0,0.0,0.0,0.0,0.0,0.0,0.0,0.0,0.0,0.0,0.0,0.0,0.0,0.0,0.0,0.0,0.0,0.0,0.0,0.0,0.0,-4.321,0.0,0.0,0.0,0.0,0.0,0.0,0.0,0.0,0.0,0.0,0.0,0.0,0.0,0.0,0.0,0.0,-3.3313,-3.324,0.0,-3.3283,-3.3526,-3.3861,0.0,0.0,0.0,0.0,-3.6334,0.0,0.0,0.0,0.0,0.0,0.0,0.0,0.0,0.0,0.0,0.0,0.0,0.0,-2.9994,0.0,0.0,-2.9994,-2.9787,0.0,0.0,0.0,0.0,0.0,0.0,0.0,0.0,0.0,0.0,0.0,0.0,-2.9994,-2.9994,-2.9994,-2.9994,-2.9994,-2.9994,-2.9994,-2.9994,-2.9994,-3.0245,-3.0744,-3.1249,-3.2044,-3.3078,-3.4178,-3.4969,0.0,0.0,0.0,-3.6405,-3.6405,-3.6405,-3.6405,-3.6405,-3.6405,-3.6405,-3.6405,-3.6405,-3.6405,0.0,0.0,0.0,0.0,0.0,0.0,0.0,0.0,0.0,0.0,0.0,0.0,0.0,0.0,0.0,0.0,0.0,0.0,0.0,0.0,0.0,0.0,0.0,0.0,0.0,0.0,0.0,0.0,0.0,0.0,0.0,0.0,0.0,0.0,0.0,0.0,0.0,0.0,0.0,0.0,0.0,0.0,0.0,0.0,0.0,0.0,0.0,0.0,0.0,-3.3197,-3.3569,-3.3992,-3.3368,0.0,0.0,0.0,0.0,0.0,0.0,0.0,0.0,0.0,0.0,0.0,0.0,0.0,0.0,0.0,0.0,0.0,0.0,0.0,0.0,0.0,0.0,0.0,0.0,0.0,0.0,0.0,0.0,0.0,0.0,0.0,0.0,0.0,0.0,-2.9994,-2.9994,-3.0141,-3.0245,-3.0245,-3.0391,-3.0495,-3.0495,-3.0349,-3.0681,-3.1626,-3.2689,-3.3747,-3.4836,-3.5763,-3.6263,-3.6405,0.0,0.0,-3.6405,-3.6405,-3.6405,-3.6405,-3.6405,-3.6405,-3.6405,-3.6405,-3.6405,-3.6405,0.0,0.0,0.0,0.0,0.0,0.0,0.0,0.0,0.0,0.0,0.0,0.0,0.0,0.0,0.0,0.0,0.0,0.0,0.0,0.0,0.0,0.0,0.0,0.0,0.0,0.0,0.0,0.0,0.0,0.0,-4.325,-4.329,-4.329,0.0,0.0,0.0,0.0,0.0,0.0,0.0,0.0,0.0,0.0,0.0,0.0,0.0,0.0,0.0,0.0,-3.3356,-3.3696,-3.4034,-3.3725,0.0,0.0,0.0,0.0,0.0,-3.6954,-3.6191,0.0,0.0,0.0,0.0,0.0,0.0,0.0,0.0,0.0,0.0,0.0,0.0,0.0,0.0,0.0,0.0,0.0,0.0,0.0,0.0,0.0,0.0,0.0,0.0,0.0,0.0,0.0,-2.9994,-2.9994,-3.0888,-3.133,-3.133,-3.2246,-3.27,-3.27,-3.179,-3.1432,-3.1626,-3.2689,-3.3747,-3.4836,-3.4981,-3.5523,-3.6405,0.0,-3.6405,-3.6405,-3.6405,-3.6405,-3.6405,-3.6405,-3.6405,-3.6405,-3.6405,-3.6405,-3.6405,0.0,0.0,0.0,0.0,0.0,0.0,0.0,0.0,0.0,0.0,0.0,0.0,0.0,0.0,0.0,0.0,0.0,0.0,0.0,0.0,0.0,0.0,0.0,0.0,0.0,0.0,0.0,0.0,0.0,-4.321,-4.329,-4.329,-4.329,-4.329,0.0,0.0,0.0,0.0,0.0,0.0,0.0,0.0,0.0,0.0,0.0,0.0,0.0,0.0,0.0,0.0,-3.3696,-3.4034,-3.3641,0.0,0.0,0.0,0.0,0.0,-3.6414,-3.5764,0.0,0.0,0.0,0.0,0.0,0.0,0.0,0.0,0.0,0.0,0.0,0.0,0.0,0.0,0.0,0.0,0.0,0.0,0.0,0.0,0.0,0.0,0.0,0.0,0.0,0.0,0.0,0.0,-3.0836,-3.133,-3.188,-3.2437,-3.2951,-3.3201,-3.3201,-3.3289,-3.3327,-3.3327,-3.3834,-3.4629,-3.5667,-3.5667,-3.5918,-3.6405,0.0,-3.6405,-3.6405,-3.6405,-3.6405,-3.6405,-3.6405,-3.6405,-3.6405,-3.6405,-3.6405,-3.6405,0.0,0.0,0.0,0.0,0.0,0.0,0.0,0.0,0.0,0.0,0.0,0.0,0.0,0.0,0.0,0.0,0.0,0.0,0.0,0.0,0.0,0.0,0.0,0.0,0.0,0.0,0.0,-4.2981,-4.3036,-4.3155,-4.329,-4.329,-4.329,0.0,0.0,0.0,0.0,0.0,0.0,0.0,0.0,0.0,0.0,0.0,0.0,0.0,0.0,0.0,0.0,0.0,0.0,0.0,0.0,0.0,0.0,0.0,-3.4433,-3.4765,-3.5902,-3.5244,-3.4328,0.0,0.0,0.0,0.0,0.0,0.0,0.0,0.0,0.0,0.0,0.0,0.0,0.0,0.0,0.0,0.0,0.0,0.0,0.0,0.0,0.0,0.0,0.0,0.0,0.0,0.0,0.0,-3.1524,-3.183,-3.2488,-3.3549,-3.3796,-3.3944,-3.3944,-3.4775,-3.5078,-3.4775,-3.5078,-3.5619,-3.6405,-3.6405,-3.6405,-3.6405,-3.6405,-3.6405,-3.6405,-3.6405,-3.6405,-3.6405,-3.6405,-3.6405,-3.6405,-3.6405,-3.6405,-3.6405,0.0,0.0,0.0,0.0,0.0,0.0,0.0,0.0,0.0,0.0,0.0,0.0,0.0,0.0,0.0,0.0,0.0,0.0,0.0,0.0,0.0,0.0,0.0,0.0,0.0,-4.2581,-4.2769,-4.2981,-4.321,-4.329,-4.329,-4.329,-4.329,0.0,0.0,0.0,0.0,0.0,0.0,0.0,0.0,0.0,0.0,0.0,0.0,0.0,0.0,0.0,0.0,0.0,0.0,0.0,0.0,0.0,0.0,0.0,-3.4274,-3.423,-3.5547,-3.429,-3.2713,-3.3235,0.0,0.0,0.0,0.0,0.0,0.0,0.0,0.0,0.0,0.0,0.0,0.0,0.0,0.0,0.0,0.0,0.0,0.0,0.0,0.0,0.0,0.0,0.0,0.0,0.0,0.0,-3.1524,-3.2538,-3.3598,-3.4629,-3.5667,-3.6156,-3.6156,-3.6263,-3.5763,-3.4824,-3.581,-3.631,-3.6405,-3.6405,-3.6405,-3.6405,-3.6405,-3.6405,-3.6405,-3.6405,-3.6405,-3.6405,-3.6405,-3.6405,-3.6405,-3.6405,-3.6405,-3.6405,0.0,0.0,0.0,0.0,0.0,0.0,0.0,0.0,0.0,0.0,0.0,0.0,0.0,0.0,0.0,0.0,0.0,0.0,0.0,0.0,0.0,0.0,0.0,-4.2133,-4.2201,-4.2392,-4.2622,-4.2795,-4.313,-4.329,-4.329,-4.329,0.0,0.0,0.0,0.0,0.0,0.0,0.0,0.0,0.0,0.0,0.0,0.0,0.0,0.0,0.0,0.0,0.0,0.0,-3.3641,0.0,0.0,0.0,0.0,0.0,-3.3764,-3.3985,-3.4533,-3.3535,-3.2452,0.0,0.0,0.0,0.0,0.0,0.0,0.0,0.0,0.0,0.0,0.0,0.0,0.0,0.0,0.0,0.0,0.0,0.0,0.0,0.0,0.0,0.0,0.0,0.0,0.0,0.0,0.0,-3.2549,-3.3586,-3.469,-3.5763,-3.6216,-3.6405,-3.6405,-3.6405,-3.6216,-3.581,-3.6216,-3.6405,-3.6405,-3.6405,-3.6405,-3.6405,-3.6405,-3.6405,-3.6405,-3.6405,-3.6405,-3.6405,-3.6405,-3.6405,-3.6405,-3.6405,-3.6405,-3.6405,0.0,0.0,0.0,0.0,0.0,0.0,0.0,0.0,0.0,0.0,0.0,0.0,0.0,0.0,0.0,0.0,0.0,0.0,0.0,0.0,0.0,0.0,0.0,-4.2092,-4.2092,-4.2351,-4.2541,-4.2622,-4.301,-4.325,-4.329,0.0,0.0,0.0,0.0,0.0,0.0,0.0,0.0,0.0,0.0,0.0,0.0,0.0,0.0,0.0,0.0,0.0,0.0,0.0,-3.3471,-3.3471,0.0,0.0,0.0,0.0,0.0,-3.3422,-3.3583,-3.2676,0.0,0.0,0.0,0.0,0.0,0.0,0.0,0.0,0.0,0.0,0.0,0.0,0.0,0.0,0.0,0.0,0.0,0.0,0.0,0.0,0.0,0.0,0.0,0.0,0.0,0.0,0.0,0.0,0.0,-3.3895,-3.4921,-3.6358,-3.6405,-3.6405,-3.6405,-3.6405,-3.6405,-3.6405,-3.6405,-3.6405,-3.6405,-3.6405,-3.6405,-3.6405,-3.6405,-3.6405,-3.6405,-3.6405,-3.6405,-3.6405,-3.6405,-3.6405,-3.6405,-3.6405,-3.6405,-3.6405,0.0,0.0,0.0,0.0,0.0,0.0,0.0,0.0,0.0,0.0,0.0,0.0,0.0,0.0,0.0,0.0,0.0,0.0,0.0,0.0,0.0,0.0,0.0,-4.2092,-4.2092,-4.2514,-4.2622,-4.2392,-4.2809,-4.3115,-4.329,0.0,0.0,0.0,0.0,0.0,0.0,0.0,0.0,0.0,0.0,-4.2795,0.0,0.0,0.0,0.0,0.0,0.0,0.0,0.0,-3.3725,-3.367,0.0,0.0,0.0,0.0,-3.2732,-3.2436,-3.2927,-3.1615,0.0,0.0,0.0,0.0,0.0,0.0,0.0,0.0,0.0,0.0,0.0,0.0,0.0,0.0,0.0,0.0,0.0,0.0,0.0,0.0,0.0,0.0,0.0,0.0,0.0,0.0,0.0,0.0,0.0,-3.325,-3.419,-3.631,-3.6405,-3.6405,-3.6405,-3.6405,-3.6405,-3.6405,-3.6405,-3.6405,-3.6405,-3.6405,-3.6405,-3.6405,-3.6405,-3.6405,-3.6405,-3.6405,-3.6405,-3.6405,-3.6405,-3.6405,-3.6405,-3.6405,-3.6405,-3.6405,0.0,0.0,0.0,0.0,0.0,0.0,0.0,0.0,0.0,0.0,0.0,0.0,0.0,0.0,0.0,0.0,0.0,0.0,0.0,0.0,0.0,0.0,0.0,0.0,0.0,0.0,-4.2514,-4.3025,-4.313,-4.325,0.0,0.0,0.0,-4.329,0.0,0.0,0.0,0.0,0.0,0.0,0.0,-4.2795,0.0,0.0,0.0,0.0,0.0,0.0,0.0,0.0,0.0,0.0,0.0,0.0,0.0,-3.3154,-3.3008,-3.2753,-3.218,0.0,0.0,0.0,0.0,0.0,0.0,0.0,0.0,0.0,0.0,0.0,0.0,0.0,0.0,0.0,0.0,0.0,0.0,0.0,0.0,0.0,0.0,0.0,0.0,0.0,0.0,0.0,0.0,0.0,0.0,-3.503,-3.5763,-3.6358,-3.6405,-3.6405,-3.6405,-3.6405,-3.6405,-3.6405,-3.6405,-3.6405,-3.6405,-3.6405,-3.6405,-3.6405,-3.6405,-3.6405,-3.6405,-3.6405,-3.6405,-3.6405,-3.6405,-3.6405,-3.6405,-3.6405,-3.6405,-3.6405,0.0,0.0,0.0,0.0,0.0,0.0,0.0,0.0,0.0,0.0,0.0,0.0,0.0,0.0,0.0,0.0,0.0,0.0,0.0,0.0,0.0,0.0,0.0,0.0,0.0,-4.2201,-4.2555,0.0,0.0,0.0,0.0,0.0,0.0,-4.329,0.0,0.0,0.0,0.0,0.0,-4.329,-4.329,-4.2996,-4.2456,0.0,0.0,0.0,0.0,0.0,0.0,0.0,0.0,0.0,0.0,0.0,0.0,-3.2884,-3.2641,-3.2286,-3.1483,0.0,0.0,0.0,0.0,0.0,0.0,0.0,0.0,0.0,0.0,0.0,0.0,0.0,0.0,0.0,0.0,0.0,0.0,0.0,0.0,0.0,0.0,0.0,0.0,0.0,0.0,0.0,0.0,0.0,0.0,-3.5415,-3.5966,-3.6405,-3.6405,-3.6405,-3.6405,-3.6405,-3.6405,-3.6405,-3.6405,-3.6405,-3.6405,-3.6405,-3.6405,-3.6405,-3.6405,-3.6405,-3.6405,-3.6405,-3.6405,-3.6405,-3.6405,-3.6405,-3.6405,-3.6405,-3.6405,-3.6405,0.0,0.0,0.0,0.0,0.0,0.0,0.0,0.0,0.0,0.0,0.0,0.0,0.0,0.0,0.0,0.0,0.0,0.0,0.0,0.0,0.0,0.0,0.0,0.0,0.0,0.0,0.0,0.0,0.0,0.0,0.0,0.0,-4.329,-4.329,0.0,-4.329,0.0,0.0,-4.329,-4.329,-4.329,-4.329,-4.3115,-4.1449,0.0,0.0,0.0,0.0,0.0,0.0,0.0,0.0,-3.4224,0.0,-3.3114,-3.2601,-3.2053,-3.1458,0.0,0.0,0.0,0.0,0.0,0.0,0.0,0.0,0.0,0.0,0.0,0.0,0.0,0.0,0.0,0.0,0.0,0.0,0.0,0.0,0.0,0.0,0.0,0.0,0.0,0.0,0.0,0.0,0.0,0.0,0.0,-3.4933,-3.5367,-3.6358,-3.6405,-3.6405,-3.6405,-3.6405,-3.6405,-3.6405,-3.6405,-3.6405,-3.6405,-3.6405,-3.6405,-3.6405,-3.6405,-3.6405,-3.6405,-3.6405,-3.6405,-3.6405,-3.6405,-3.6405,-3.6405,-3.6405,-3.6405,-3.6405,0.0,0.0,0.0,0.0,0.0,0.0,0.0,0.0,0.0,0.0,0.0,0.0,0.0,0.0,0.0,0.0,0.0,0.0,0.0,0.0,0.0,0.0,0.0,0.0,0.0,0.0,0.0,0.0,0.0,0.0,0.0,0.0,0.0,-4.329,0.0,-4.329,0.0,-4.329,-4.329,-4.329,-4.329,-4.329,-4.325,-4.286,-4.1838,0.0,0.0,0.0,0.0,0.0,0.0,0.0,-3.4952,-3.447,-3.3896,-3.3626,-3.2876,0.0,0.0,0.0,0.0,0.0,0.0,0.0,0.0,0.0,0.0,0.0,0.0,0.0,0.0,0.0,0.0,0.0,0.0,0.0,0.0,0.0,0.0,0.0,0.0,0.0,0.0,0.0,0.0,0.0,0.0,0.0,-3.6013,-3.6061,-3.6156,-3.6405,-3.6405,-3.6405,-3.6405,-3.6405,-3.6405,0.0,-3.6405,-3.6405,-3.6405,-3.6405,-3.6405,-3.6405,-3.6405,-3.6405,-3.6405,-3.6405,-3.6405,-3.6405,-3.6405,-3.6405,-3.6405,-3.6405,-3.6405,-3.6405,0.0,0.0,0.0,0.0,0.0,0.0,0.0,0.0,0.0,0.0,0.0,0.0,0.0,0.0,0.0,0.0,0.0,0.0,0.0,0.0,0.0,0.0,0.0,0.0,0.0,0.0,0.0,0.0,0.0,0.0,0.0,0.0,0.0,0.0,0.0,-4.329,0.0,-4.329,-4.329,-4.329,-4.329,-4.329,-4.325,-4.2714,0.0,0.0,0.0,0.0,0.0,0.0,0.0,0.0,0.0,0.0,-3.4381,-3.4033,-3.3363,0.0,0.0,0.0,0.0,0.0,0.0,0.0,0.0,0.0,0.0,0.0,0.0,0.0,0.0,0.0,0.0,0.0,0.0,0.0,0.0,0.0,0.0,0.0,0.0,0.0,0.0,0.0,0.0,0.0,0.0,-3.5271,-3.6358,-3.6405,-3.6405,-3.6405,-3.6405,-3.6405,-3.6405,-3.6405,-3.6405,-3.6405,-3.6405,-3.6405,-3.6405,-3.6405,-3.6405,-3.6405,-3.6405,-3.6405,-3.6405,-3.6405,-3.6405,-3.6405,-3.6405,-3.6405,-3.6405,-3.6405,-3.6405,-3.6405,0.0,0.0,0.0,0.0,0.0,0.0,0.0,0.0,0.0,0.0,0.0,0.0,0.0,0.0,0.0,0.0,0.0,0.0,0.0,0.0,0.0,0.0,0.0,0.0,0.0,0.0,0.0,0.0,0.0,0.0,0.0,0.0,0.0,0.0,0.0,0.0,-4.325,-4.329,-4.329,-4.329,-4.329,-4.321,-4.2955,0.0,0.0,0.0,0.0,0.0,0.0,-3.6781,0.0,0.0,0.0,0.0,-3.4757,-3.4344,0.0,0.0,0.0,0.0,0.0,0.0,0.0,0.0,0.0,0.0,0.0,0.0,0.0,0.0,0.0,0.0,0.0,0.0,0.0,0.0,0.0,0.0,0.0,0.0,0.0,0.0,0.0,0.0,0.0,0.0,0.0,-3.5463,-3.6358,-3.6405,-3.6405,-3.6405,-3.6405,-3.6405,-3.6405,-3.6405,-3.6405,-3.6405,-3.6405,-3.6405,-3.6405,-3.6405,-3.6405,-3.6405,-3.6405,-3.6405,-3.6405,-3.6405,-3.6405,-3.6405,-3.6405,-3.6405,-3.6405,-3.6405,-3.6405,-3.6405,0.0,0.0,0.0,0.0,0.0,0.0,0.0,0.0,0.0,0.0,0.0,0.0,0.0,0.0,0.0,0.0,0.0,0.0,0.0,0.0,0.0,0.0,0.0,0.0,0.0,0.0,0.0,0.0,0.0,0.0,0.0,0.0,0.0,0.0,0.0,0.0,0.0,-4.325,-4.329,-4.329,-4.329,-4.2835,0.0,0.0,0.0,0.0,0.0,0.0,0.0,0.0,-3.6449,0.0,0.0,0.0,0.0,0.0,0.0,0.0,0.0,0.0,0.0,0.0,0.0,0.0,0.0,0.0,0.0,0.0,0.0,0.0,0.0,0.0,0.0,0.0,0.0,0.0,0.0,0.0,0.0,0.0,0.0,0.0,0.0,0.0,0.0,0.0,-3.6216,-3.6263,-3.6405,-3.6405,-3.6405,-3.6405,-3.6405,-3.6405,-3.6405,-3.6405,-3.6405,-3.6405,-3.6405,-3.6405,-3.6405,-3.6405,-3.6405,-3.6405,-3.6405,-3.6405,-3.6405,-3.6405,-3.6405,-3.6405,-3.6405,-3.6405,-3.6405,-3.6405,-3.6405,-3.6405,0.0,0.0,0.0,0.0,0.0,0.0,0.0,0.0,0.0,0.0,0.0,0.0,0.0,0.0,0.0,0.0,0.0,0.0,0.0,0.0,0.0,0.0,0.0,0.0,0.0,0.0,0.0,0.0,0.0,0.0,0.0,-4.1296,-4.1976,0.0,0.0,0.0,0.0,0.0,0.0,0.0,0.0,0.0,0.0,0.0,0.0,0.0,0.0,0.0,0.0,0.0,0.0,0.0,0.0,0.0,0.0,0.0,0.0,0.0,0.0,0.0,0.0,0.0,0.0,0.0,0.0,0.0,0.0,0.0,0.0,0.0,0.0,0.0,0.0,0.0,0.0,0.0,0.0,0.0,0.0,0.0,0.0,0.0,0.0,0.0,0.0,0.0,-3.6405,-3.6405,-3.6405,-3.6405,-3.6405,-3.6405,-3.6405,-3.6452,-3.6581,-3.6452,-3.6405,-3.6405,-3.6405,-3.6405,-3.6405,-3.6405,-3.6405,-3.6405,-3.6405,-3.6405,-3.6405,-3.6405,-3.6405,-3.6405,-3.6405,-3.6405,-3.6405,-3.6534,-3.6581,-3.6581,0.0,0.0,0.0,0.0,0.0,0.0,0.0,0.0,0.0,0.0,0.0,0.0,0.0,0.0,0.0,0.0,0.0,0.0,0.0,0.0,0.0,0.0,0.0,0.0,0.0,0.0,0.0,0.0,0.0,0.0,-3.9434,-3.9972,-4.0817,0.0,-4.2389,0.0,0.0,0.0,0.0,0.0,0.0,0.0,0.0,0.0,0.0,0.0,0.0,0.0,0.0,0.0,0.0,0.0,0.0,0.0,0.0,0.0,0.0,0.0,0.0,0.0,0.0,0.0,0.0,0.0,0.0,0.0,0.0,0.0,0.0,0.0,0.0,0.0,0.0,0.0,0.0,0.0,0.0,0.0,0.0,0.0,0.0,0.0,0.0,0.0,0.0,0.0,-3.6405,-3.6405,-3.6405,-3.6405,-3.6405,-3.6405,-3.6405,-3.6452,-3.6628,-3.6452,-3.6452,-3.6499,-3.6405,-3.6452,-3.6452,-3.6405,-3.6405,-3.6405,-3.6405,-3.6405,-3.6405,-3.6405,-3.6405,-3.6405,-3.6405,-3.6405,-3.6405,-3.6628,-3.6709,-3.6722,0.0,0.0,0.0,0.0,0.0,0.0,0.0,0.0,0.0,0.0,0.0,0.0,0.0,0.0,0.0,0.0,0.0,0.0,0.0,0.0,0.0,0.0,0.0,0.0,0.0,0.0,0.0,0.0,0.0,0.0,-3.9197,-3.9241,-3.9285,-3.9461,-4.1506,-4.25,-4.2648,0.0,0.0,0.0,0.0,0.0,0.0,0.0,0.0,0.0,0.0,0.0,0.0,0.0,0.0,0.0,0.0,0.0,0.0,0.0,0.0,0.0,0.0,0.0,0.0,0.0,0.0,0.0,0.0,0.0,0.0,0.0,0.0,0.0,0.0,0.0,0.0,0.0,0.0,0.0,0.0,0.0,0.0,0.0,0.0,0.0,0.0,0.0,0.0,0.0,-3.6405,-3.6405,-3.6405,-3.6405,-3.6405,-3.6405,-3.6405,-3.6405,-3.6405,-3.6405,-3.6499,-3.6675,-3.6499,-3.6499,-3.6675,-3.6499,-3.6405,-3.6405,-3.6405,-3.6405,-3.6405,-3.6405,-3.6405,-3.6405,-3.6405,-3.6405,-3.6405,-3.6628,-3.6709,-3.6722,0.0,0.0,0.0,0.0,0.0,0.0,0.0,0.0,0.0,0.0,0.0,0.0,0.0,0.0,0.0,0.0,0.0,0.0,0.0,0.0,0.0,0.0,0.0,0.0,0.0,0.0,0.0,0.0,0.0,-3.7381,-3.7428,-3.8024,-3.8283,-3.8373,-3.9738,-4.0389,-4.0418,-4.0218,0.0,0.0,0.0,0.0,0.0,0.0,0.0,0.0,0.0,0.0,0.0,0.0,0.0,0.0,0.0,0.0,0.0,0.0,0.0,0.0,0.0,0.0,0.0,0.0,0.0,0.0,0.0,0.0,0.0,0.0,0.0,0.0,0.0,0.0,0.0,0.0,0.0,0.0,0.0,0.0,0.0,0.0,0.0,0.0,0.0,0.0,0.0,0.0,0.0,-3.6405,-3.6405,-3.6405,-3.6452,-3.6581,-3.6581,-3.6581,-3.6581,-3.6581,-3.6534,-3.6499,-3.6452,-3.6452,-3.6499,-3.6452,-3.6405,-3.6405,-3.6405,-3.6405,-3.6405,-3.6405,-3.6405,-3.6405,-3.6405,-3.6499,-3.6628,-3.6862,-3.7062,-3.7261,0.0,0.0,0.0,0.0,0.0,0.0,0.0,0.0,0.0,0.0,0.0,0.0,0.0,0.0,0.0,0.0,0.0,0.0,0.0,0.0,0.0,0.0,0.0,0.0,0.0,0.0,0.0,0.0,0.0,0.0,0.0,0.0,-3.7315,-3.7361,-3.7965,0.0,0.0,0.0,0.0,-4.0532,0.0,0.0,-3.9033,0.0,0.0,0.0,0.0,0.0,0.0,0.0,0.0,0.0,0.0,0.0,0.0,0.0,0.0,0.0,0.0,0.0,0.0,0.0,0.0,0.0,0.0,0.0,0.0,0.0,0.0,0.0,0.0,0.0,0.0,0.0,0.0,0.0,0.0,0.0,0.0,0.0,0.0,0.0,0.0,0.0,0.0,0.0,0.0,0.0,-3.6405,-3.6452,-3.6534,-3.6581,-3.6675,-3.6709,-3.6709,-3.6709,-3.6675,-3.664,-3.6546,-3.6499,-3.6499,-3.6452,-3.6405,-3.6405,-3.6405,-3.6405,-3.6405,-3.6405,-3.6405,-3.6405,-3.6405,-3.6546,-3.6722,-3.7015,-3.7261,-3.7505,0.0,0.0,0.0,0.0,0.0,0.0,0.0,0.0,0.0,0.0,0.0,0.0,0.0,0.0,0.0,0.0,0.0,0.0,0.0,0.0,0.0,0.0,0.0,0.0,0.0,0.0,0.0,0.0,0.0,0.0,0.0,0.0,-3.6405,0.0,-3.6405,-3.7494,-3.942,0.0,-3.942,-3.9376,0.0,-3.7952,-3.7717,0.0,0.0,0.0,-3.6405,-3.6405,0.0,0.0,0.0,0.0,0.0,0.0,0.0,0.0,0.0,0.0,0.0,0.0,0.0,0.0,0.0,0.0,0.0,0.0,0.0,0.0,0.0,0.0,0.0,0.0,0.0,0.0,0.0,0.0,0.0,0.0,0.0,0.0,0.0,0.0,0.0,0.0,0.0,0.0,-3.6581,-3.6628,-3.6405,-3.6581,-3.6628,-3.6405,-3.6628,-3.6709,-3.6709,-3.6709,-3.6815,-3.7062,-3.6815,-3.6709,-3.6675,-3.6499,-3.6405,-3.6405,-3.6405,-3.6405,-3.6405,-3.6405,-3.6405,-3.6405,-3.6417,-3.6534,-3.6722,-3.7015,-3.7261,-3.7505,0.0,0.0,0.0,0.0,0.0,0.0,0.0,0.0,0.0,0.0,0.0,0.0,0.0,0.0,0.0,0.0,0.0,0.0,0.0,0.0,0.0,0.0,0.0,0.0,0.0,0.0,0.0,0.0,0.0,0.0,0.0,0.0,0.0,0.0,-3.6405,-3.6709,-3.7289,-3.7289,0.0,0.0,-3.7322,-3.7335,0.0,0.0,0.0,0.0,0.0,-3.6405,0.0,0.0,-3.6405,-3.6405,0.0,0.0,0.0,0.0,0.0,0.0,-3.6405,0.0,0.0,0.0,0.0,0.0,0.0,0.0,0.0,0.0,0.0,0.0,0.0,0.0,0.0,0.0,0.0,0.0,0.0,0.0,0.0,0.0,0.0,0.0,0.0,0.0,0.0,0.0,-3.6781,-3.6828,-3.6405,-3.6781,-3.6968,-3.6922,-3.6968,-3.7015,-3.7015,-3.6815,-3.6675,-3.6593,-3.6675,-3.6628,-3.6499,-3.6452,-3.6405,-3.6405,-3.6405,-3.6499,-3.6628,-3.6628,-3.6534,-3.6452,-3.6781,-3.6922,-3.7015,-3.7307,-3.7564,-3.7808,0.0,0.0,0.0,0.0,0.0,0.0,0.0,0.0,0.0,0.0,0.0,0.0,0.0,0.0,0.0,0.0,0.0,0.0,0.0,0.0,0.0,0.0,0.0,0.0,0.0,0.0,0.0,0.0,0.0,0.0,0.0,0.0,0.0,0.0,0.0,0.0,0.0,0.0,0.0,0.0,-3.7196,0.0,0.0,-3.6675,-3.6405,0.0,0.0,0.0,-3.6405,-3.6405,-3.6405,0.0,0.0,0.0,0.0,0.0,0.0,0.0,0.0,0.0,0.0,0.0,0.0,0.0,-3.6263,-3.4835,-3.3885,0.0,0.0,0.0,0.0,0.0,0.0,0.0,0.0,0.0,0.0,0.0,0.0,0.0,0.0,0.0,0.0,-3.6391,-3.6628,-3.6405,-3.6934,-3.7121,-3.6687,-3.7074,-3.7121,-3.6828,-3.7121,-3.7214,-3.7108,-3.7062,-3.6922,-3.6687,-3.6815,-3.6769,-3.6546,-3.6452,-3.6452,-3.6534,-3.6534,-3.6534,-3.6581,-3.6769,-3.6722,-3.6534,-3.6828,-3.7015,-3.7108,-3.74,-3.7657,-3.79,0.0,0.0,0.0,0.0,0.0,0.0,0.0,0.0,0.0,0.0,0.0,0.0,0.0,0.0,0.0,0.0,0.0,0.0,0.0,0.0,0.0,0.0,0.0,0.0,0.0,0.0,0.0,0.0,0.0,0.0,0.0,0.0,0.0,0.0,0.0,0.0,0.0,0.0,0.0,-3.6499,-3.7494,-3.7276,0.0,0.0,-3.6405,0.0,-3.6405,-3.6405,-3.6405,-3.6405,-3.6405,0.0,0.0,0.0,0.0,0.0,-3.6405,0.0,0.0,0.0,0.0,0.0,0.0,0.0,-3.6405,-3.5618,-3.515,-3.6191,0.0,0.0,0.0,0.0,0.0,0.0,0.0,0.0,0.0,0.0,0.0,0.0,0.0,0.0,-3.6355,-3.6628,-3.6675,-3.6452,-3.7074,-3.7353,-3.7108,-3.7353,-3.718,-3.6499,-3.7121,-3.7413,-3.7155,-3.7353,-3.7307,-3.7062,-3.7108,-3.6968,-3.6675,-3.6499,-3.6534,-3.6709,-3.6675,-3.6581,-3.6499,-3.6922,-3.6922,-3.6722,-3.6769,-3.6909,-3.7168,-3.7459,-3.7703,-3.79,0.0,0.0,0.0,0.0,0.0,0.0,0.0,0.0,0.0,0.0,0.0,0.0,0.0,0.0,0.0,0.0,0.0,0.0,0.0,0.0,0.0,0.0,0.0,0.0,0.0,0.0,0.0,0.0,0.0,0.0,0.0,0.0,0.0,0.0,0.0,0.0,0.0,0.0,0.0,-3.6405,-3.6628,0.0,-3.6405,-3.6405,-3.6405,-3.6405,-3.6405,-3.6405,-3.6405,0.0,-3.6405,-3.6405,0.0,0.0,0.0,0.0,0.0,0.0,0.0,0.0,0.0,0.0,0.0,0.0,-3.6405,-3.5878,-3.5538,0.0,0.0,0.0,0.0,0.0,0.0,0.0,0.0,0.0,0.0,0.0,0.0,0.0,0.0,0.0,-3.6355,-3.6781,-3.6922,-3.6675,-3.6968,-3.7168,-3.7108,-3.7353,-3.7366,-3.6968,-3.7307,-3.7459,-3.7413,-3.7261,-3.7062,-3.6769,-3.7015,-3.6875,-3.6452,-3.6581,-3.6675,-3.6675,-3.6534,-3.664,-3.6968,-3.6815,-3.6769,-3.6722,-3.7168,-3.7366,-3.7459,-3.7703,-3.7854,-3.79,0.0,0.0,0.0,0.0,0.0,0.0,0.0,0.0,0.0,0.0,0.0,0.0,0.0,0.0,0.0,0.0,0.0,0.0,0.0,0.0,0.0,0.0,0.0,0.0,0.0,0.0,0.0,0.0,0.0,0.0,0.0,0.0,0.0,0.0,0.0,0.0,0.0,0.0,-3.6405,-3.6405,-3.6405,0.0,-3.6405,-3.6405,-3.6405,-3.6405,-3.6405,-3.6405,-3.6405,-3.6405,-3.6405,0.0,0.0,-3.6405,-3.6405,0.0,-3.6405,-3.6405,0.0,0.0,0.0,-3.6405,0.0,0.0,0.0,-3.6157,-3.6031,-3.6355,0.0,0.0,0.0,0.0,0.0,0.0,0.0,0.0,0.0,0.0,0.0,0.0,0.0,0.0,-3.6508,-3.7015,-3.7307,-3.7307,-3.7307,-3.7307,-3.7307,-3.7551,-3.7459,-3.6922,-3.7413,-3.7564,-3.7307,-3.7307,-3.7155,-3.6909,-3.7062,-3.6922,-3.6534,-3.6769,-3.6909,-3.6909,-3.6781,-3.6875,-3.7108,-3.6956,-3.6968,-3.7108,-3.74,-3.7505,-3.7505,-3.7808,-3.79,-3.7946,0.0,0.0,0.0,0.0,0.0,0.0,0.0,0.0,0.0,0.0,0.0,0.0,0.0,0.0,0.0,0.0,0.0,0.0,0.0,0.0,0.0,0.0,0.0,-3.7533,0.0,0.0,0.0,0.0,0.0,0.0,0.0,0.0,0.0,0.0,0.0,0.0,0.0,0.0,0.0,-3.6405,0.0,-3.6405,-3.6358,-3.6156,-3.6108,-3.6108,-3.6108,-3.6203,-3.6405,-3.6405,0.0,-3.6405,-3.6405,-3.6405,0.0,0.0,0.0,0.0,0.0,0.0,0.0,0.0,0.0,-3.6405,0.0,0.0,0.0,-3.6452,0.0,0.0,0.0,0.0,0.0,0.0,0.0,0.0,0.0,0.0,0.0,0.0,0.0,0.0,-3.6769,-3.7214,-3.7564,-3.7749,-3.7657,-3.7505,-3.7353,-3.7703,-3.7505,-3.6722,-3.7505,-3.7657,-3.7168,-3.7353,-3.7353,-3.7168,-3.7062,-3.6956,-3.6769,-3.7015,-3.7108,-3.7108,-3.7108,-3.7108,-3.7108,-3.7168,-3.7307,-3.7505,-3.7505,-3.7505,-3.7598,-3.7808,-3.79,-3.7979,0.0,0.0,0.0,0.0,0.0,0.0,0.0,0.0,0.0,0.0,0.0,0.0,0.0,0.0,0.0,0.0,0.0,0.0,-3.8024,0.0,0.0,0.0,0.0,0.0,-3.6546,0.0,0.0,0.0,0.0,0.0,0.0,0.0,0.0,0.0,-3.6405,0.0,0.0,0.0,-3.6405,0.0,-3.6405,-3.6405,0.0,-3.5319,-3.4969,-3.4969,-3.4969,-3.5571,-3.6405,0.0,-3.6405,-3.6405,0.0,-3.6405,0.0,0.0,0.0,0.0,0.0,0.0,0.0,0.0,-3.6405,0.0,0.0,0.0,-3.6452,-3.6628,0.0,0.0,0.0,0.0,0.0,0.0,0.0,0.0,0.0,0.0,0.0,0.0,0.0,0.0,0.0,-3.7307,-3.74,-3.7214,-3.7598,-3.7551,-3.6815,-3.7505,-3.7505,-3.6722,-3.7505,-3.7762,-3.7459,-3.7261,-3.7261,-3.7459,-3.6968,-3.6862,-3.7062,-3.7108,-3.7108,-3.7108,-3.7108,-3.7108,-3.7108,-3.7366,-3.7459,-3.7505,-3.7505,-3.7657,-3.7854,-3.79,-3.79,-3.79,0.0,0.0,0.0,0.0,0.0,0.0,0.0,0.0,0.0,0.0,0.0,0.0,0.0,0.0,0.0,0.0,0.0,-3.7428,0.0,0.0,0.0,0.0,0.0,0.0,0.0,0.0,0.0,0.0,-3.6405,0.0,0.0,0.0,0.0,0.0,-3.6405,0.0,-3.5523,0.0,0.0,0.0,0.0,0.0,0.0,-3.4981,-3.4775,-3.4727,-3.4091,-3.4581,-3.5379,0.0,-3.4981,0.0,0.0,0.0,0.0,0.0,0.0,0.0,0.0,0.0,0.0,0.0,0.0,0.0,0.0,0.0,-3.6405,0.0,0.0,0.0,0.0,0.0,0.0,0.0,0.0,0.0,0.0,0.0,0.0,0.0,0.0,0.0,0.0,0.0,0.0,0.0,-3.7703,-3.7703,-3.7201,-3.7611,-3.7598,-3.6956,-3.7551,-3.7611,-3.7062,-3.7214,-3.7307,-3.7261,-3.7062,-3.7015,-3.7121,-3.7261,-3.7261,-3.7108,-3.7261,-3.7307,-3.7353,-3.7459,-3.7598,-3.7703,-3.7703,-3.7808,-3.79,-3.79,-3.8226,-3.8626,0.0,0.0,0.0,0.0,0.0,0.0,0.0,0.0,0.0,0.0,0.0,0.0,-3.7808,-3.7579,0.0,0.0,0.0,-3.6405,0.0,0.0,-3.6405,0.0,0.0,0.0,0.0,0.0,0.0,0.0,0.0,0.0,0.0,0.0,0.0,0.0,0.0,-3.581,-3.4824,0.0,0.0,-3.4824,-3.5319,-3.4872,-3.3932,-3.3932,-3.3932,-3.3834,-3.3039,-3.3438,-3.4239,-3.3449,-3.3747,0.0,-3.3449,0.0,0.0,0.0,0.0,0.0,-3.587,0.0,0.0,0.0,0.0,0.0,0.0,0.0,0.0,0.0,0.0,0.0,0.0,0.0,0.0,0.0,0.0,0.0,0.0,0.0,0.0,0.0,0.0,0.0,0.0,0.0,0.0,-3.7307,-3.7657,-3.7703,-3.7307,-3.7657,-3.7657,-3.7108,-3.7611,-3.7551,-3.6815,-3.7261,-3.74,-3.7214,-3.7062,-3.7121,-3.7307,-3.7307,-3.7261,-3.7214,-3.7413,-3.7505,-3.7505,-3.7564,-3.7703,-3.79,-3.79,-3.807,-3.8272,-3.8272,-3.8517,-3.8912,0.0,-3.562,0.0,0.0,0.0,0.0,0.0,0.0,0.0,0.0,0.0,0.0,0.0,0.0,0.0,0.0,0.0,-3.6405,-3.6405,0.0,-3.6405,0.0,0.0,-3.6405,0.0,0.0,0.0,0.0,0.0,0.0,0.0,0.0,0.0,0.0,0.0,-3.581,-3.4775,-3.4824,-3.4836,-3.4727,-3.3697,-3.2639,-3.1677,0.0,-3.1677,-3.1677,-3.1677,0.0,0.0,-3.3201,-3.3201,0.0,0.0,0.0,0.0,0.0,0.0,0.0,0.0,0.0,0.0,-3.6108,0.0,0.0,0.0,0.0,-3.6452,0.0,0.0,0.0,0.0,0.0,0.0,0.0,0.0,0.0,0.0,0.0,0.0,0.0,0.0,0.0,0.0,0.0,-3.7551,-3.6769,-3.7459,-3.7564,-3.6769,-3.7459,-3.7657,-3.7108,-3.7611,-3.7657,-3.7108,-3.7353,-3.7505,-3.7505,-3.6956,-3.7108,-3.7854,-3.7062,-3.7015,-3.7505,-3.7505,-3.7505,-3.7505,-3.7762,-3.79,-3.79,-3.79,-3.844,-3.9166,-3.9166,-3.8626,-3.8194,0.0,0.0,0.0,0.0,0.0,0.0,0.0,-3.6675,0.0,0.0,0.0,0.0,0.0,-3.6581,-3.6405,0.0,0.0,-3.6405,-3.6405,-3.6405,0.0,0.0,0.0,-3.6405,0.0,0.0,0.0,0.0,0.0,0.0,0.0,0.0,0.0,0.0,0.0,-3.5415,0.0,0.0,0.0,0.0,0.0,-3.2336,-3.26,0.0,0.0,-3.1534,-3.0785,-3.1238,0.0,-3.1341,-3.1545,-3.2044,-3.13,-3.2055,-3.3051,-3.2336,-3.2639,0.0,0.0,0.0,-3.3128,-3.4872,0.0,0.0,0.0,0.0,0.0,0.0,0.0,0.0,0.0,0.0,0.0,0.0,0.0,0.0,0.0,0.0,0.0,0.0,0.0,0.0,0.0,0.0,0.0,-3.7015,-3.7366,-3.7459,-3.7015,-3.74,-3.7551,-3.7366,-3.7703,-3.7564,-3.6862,-3.7459,-3.7505,-3.6968,-3.7168,-3.7261,-3.7353,-3.7108,-3.7062,-3.7261,-3.7413,-3.7505,-3.7505,-3.7808,-3.79,-3.79,-3.79,-3.807,-3.8349,-3.8349,-3.8908,-3.9839,-3.5572,0.0,0.0,0.0,0.0,0.0,0.0,0.0,0.0,0.0,-3.6405,0.0,-3.6405,0.0,-3.6405,0.0,-3.6405,-3.6405,-3.6405,-3.6405,0.0,-3.6405,-3.6405,0.0,0.0,0.0,0.0,0.0,0.0,-3.6405,0.0,0.0,0.0,0.0,0.0,0.0,0.0,0.0,-3.3227,0.0,0.0,-3.179,0.0,0.0,-3.1278,-3.1483,0.0,-3.0443,-3.094,-3.0245,-3.0443,-3.0888,-3.0193,-3.095,-3.1953,-3.1238,-3.1545,-3.2156,-3.2549,-3.2134,0.0,-3.3784,-3.3697,0.0,-3.5427,0.0,0.0,0.0,0.0,0.0,0.0,0.0,0.0,0.0,0.0,0.0,0.0,0.0,0.0,0.0,0.0,0.0,0.0,0.0,-3.7657,-3.7155,-3.7459,-3.7505,0.0,-3.7353,-3.7551,-3.7657,-3.7703,-3.7505,-3.7015,-3.7598,-3.7551,-3.6862,-3.7307,-3.7366,-3.7108,-3.7108,-3.7108,-3.7108,-3.7366,-3.7505,-3.7505,-3.7808,-3.79,-3.79,-3.79,-3.8103,-3.8349,-3.8349,-3.9502,-4.1169,0.0,0.0,0.0,0.0,-3.6228,0.0,0.0,0.0,-3.6405,0.0,-3.6405,-3.6405,-3.6405,-3.6405,-3.6405,-3.6405,-3.6405,0.0,-3.6405,-3.6405,0.0,0.0,-3.6405,-3.6405,-3.6405,0.0,0.0,0.0,0.0,0.0,0.0,0.0,0.0,0.0,-3.6405,0.0,-3.3201,-3.3201,-3.2538,-3.1524,-3.1524,-3.0929,-3.0088,-3.0047,-3.0692,-3.1483,-3.0391,-2.9994,-2.9994,-2.9994,-2.9994,-2.9994,-2.9994,-2.9994,-2.9994,-2.9994,-2.9994,-3.0245,-3.1227,-3.1524,-3.1779,-3.2851,0.0,0.0,0.0,0.0,-3.5126,0.0,0.0,0.0,0.0,0.0,0.0,0.0,0.0,0.0,0.0,0.0,0.0,0.0,0.0,0.0,0.0,-3.79,-3.7657,-3.7155,-3.7564,-3.7657,0.0,-3.7353,-3.7611,-3.79,-3.7611,-3.7505,-3.7505,-3.7749,-3.7598,-3.7108,-3.7366,-3.7353,-3.7108,-3.7108,-3.7108,-3.7108,-3.74,-3.7505,-3.7551,-3.7808,-3.79,-3.79,-3.79,-3.8395,-3.9166,-3.9254,-4.0375,-4.1949,-3.562,-3.5991,-3.6323,0.0,-3.637,-3.6405,0.0,0.0,0.0,0.0,-3.6405,-3.6405,-3.6405,-3.6405,-3.6405,-3.6405,-3.6405,0.0,0.0,0.0,0.0,-3.6405,-3.6405,-3.6405,-3.6405,-3.6405,0.0,-3.6405,0.0,0.0,-3.6405,0.0,0.0,0.0,0.0,0.0,-3.3201,-3.3201,-3.2095,-3.0391,-3.0391,-3.0744,0.0,0.0,-3.0692,-3.1483,-3.0391,-2.9994,-2.9994,-2.9994,-2.9994,-2.9994,-2.9994,-2.9994,-2.9994,-2.9994,-2.9994,-3.0047,-3.0349,-3.0391,-3.0692,-3.1728,-3.2033,-3.2286,0.0,0.0,0.0,0.0,0.0,0.0,0.0,0.0,0.0,0.0,0.0,0.0,0.0,0.0,0.0,0.0,0.0,0.0,0.0,-3.79,-3.7657,-3.7155,-3.7413,-3.7459,-3.7108,0.0,-3.7413,-3.79,-3.7459,-3.7307,-3.7505,-3.7366,-3.7261,-3.7108,-3.7168,-3.7168,-3.7108,-3.7108,-3.7214,-3.74,-3.7459,-3.7611,-3.7808,-3.7854,-3.79,-3.79,-3.79,-3.8024,-3.8395,-3.9738,-4.0546,-4.1071,-3.562,0.0,0.0,-3.6405,0.0,0.0,-3.6405,0.0,0.0,-3.6405,-3.6405,0.0,-3.6405,-3.6405,-3.6405,-3.6405,-3.6405,0.0,-3.6405,0.0,0.0,-3.6405,-3.6405,-3.6405,-3.6405,-3.6405,0.0,-3.6405,0.0,0.0,-3.6405,0.0,0.0,0.0,0.0,-3.5475,0.0,-3.2889,-3.179,-3.064,-3.0193,0.0,0.0,-3.0245,-3.0391,-3.0836,-3.0193,-2.9994,-2.9994,-2.9994,-2.9994,-2.9994,-2.9994,-2.9994,-2.9994,-2.9994,-2.9994,-2.9994,-2.9994,-2.9994,-3.0141,-3.0744,-3.1227,-3.188,-3.2951,-3.4141,-3.5126,0.0,0.0,0.0,0.0,0.0,0.0,0.0,0.0,0.0,0.0,0.0,0.0,0.0,0.0,0.0,-3.79,-3.7703,-3.7459,-3.7307,-3.74,-3.7366,0.0,0.0,-3.7307,-3.7703,-3.7307,-3.7214,-3.7505,-3.7353,-3.7168,-3.6922,-3.7155,-3.7121,-3.6781,-3.7121,-3.7214,-3.7155,-3.7413,-3.7611,-3.7749,-3.7854,-3.79,-3.79,-3.79,-3.79,-3.807,-3.9489,-4.0246,-4.0774,0.0,0.0,0.0,0.0,0.0,0.0,0.0,-3.6405,0.0,-3.6405,0.0,-3.6405,-3.6405,-3.6405,-3.6405,-3.6405,0.0,-3.6405,-3.6405,-3.6405,-3.6405,-3.6405,-3.6405,-3.6405,-3.6405,-3.6405,0.0,0.0,0.0,0.0,-3.6405,0.0,0.0,0.0,0.0,0.0,0.0,-3.2376,-3.1524,-3.133,-3.0391,-2.9994,-2.9994,-2.9994,-2.9994,-2.9994,-2.9994,-2.9994,-2.9994,-2.9994,-2.9994,-2.9994,-2.9994,-2.9994,-2.9994,-2.9994,-2.9994,-2.9994,-2.9994,-2.9994,-2.9994,-2.9994,-3.0681,-3.1637,-3.2549,-3.3586,-3.4678,-3.5763,-3.6108,-3.6263,0.0,0.0,0.0,0.0,0.0,0.0,0.0,0.0,0.0,0.0,0.0,0.0,0.0,-3.7459,-3.7307,-3.7505,-3.7505,-3.7413,0.0,0.0,-3.7261,-3.7459,-3.7214,-3.7214,-3.7505,-3.7413,-3.7214,-3.6815,-3.7168,-3.7074,-3.6499,-3.7168,-3.7214,-3.6815,-3.7307,-3.7551,-3.7564,-3.7808,-3.79,-3.79,-3.79,-3.79,-3.8024,-3.9015,-3.9899,-4.0859,0.0,0.0,0.0,0.0,0.0,-3.6405,-3.6405,-3.6405,-3.6405,-3.6405,-3.6405,-3.6405,-3.6405,-3.6405,-3.6405,-3.6405,-3.6405,0.0,0.0,0.0,0.0,-3.6405,-3.6405,-3.6405,-3.6405,-3.6405,-3.6405,0.0,-3.6405,-3.6405,0.0,0.0,0.0,0.0,0.0,0.0,-3.2123,-3.1779,0.0,-3.0245,-3.0099,-2.9994,-2.9994,-2.9994,-2.9994,-2.9994,-2.9994,-2.9994,-2.9994,-2.9994,-2.9994,-2.9994,-2.9994,-2.9994,-2.9994,-2.9994,-2.9994,-2.9994,-2.9994,-2.9994,-2.9994,-2.9994,-3.0141,-3.0349,-3.0495,-3.1381,-3.2476,-3.3537,-3.4483,-3.5415,-3.6427,0.0,0.0,0.0,0.0,0.0,0.0,0.0,0.0,0.0,0.0,0.0,0.0,0.0,0.0,0.0,0.0,0.0,0.0,0.0,-3.7353,0.0,-3.7108,0.0,0.0,0.0,-3.7015,-3.7353,-3.6841,-3.6734,-3.6968,-3.7121,-3.7261,-3.7366,-3.7703,-3.7854,-3.7854,-3.79,-3.79,-3.79,-3.79,-3.79,-3.8116,-3.9752,-4.0461,-4.0774,0.0,0.0,0.0,0.0,0.0,0.0,0.0,-3.6405,0.0,-3.6405,-3.6405,-3.6405,-3.6405,-3.6405,-3.6405,-3.6405,-3.6405,-3.6405,-3.6405,-3.6405,-3.6405,-3.6405,-3.6405,0.0,-3.6405,-3.6405,-3.6405,-3.6405,-3.6405,-3.6405,0.0,0.0,0.0,0.0,0.0,-3.4325,0.0,0.0,0.0,-3.0785,-3.0245,-2.9994,-2.9994,-2.9994,-2.9994,-2.9994,-2.9994,-2.9994,-2.9994,-2.9994,-2.9994,-2.9994,-2.9994,-2.9994,-2.9994,-2.9994,-2.9994,-2.9994,-2.9994,-2.9994,-2.9994,-2.9994,-3.0443,-3.0836,-3.0836,-3.1637,-3.2739,-3.3796,-3.4434,-3.521,-3.6474,-3.6922,0.0,0.0,0.0,0.0,0.0,0.0,0.0,0.0,0.0,0.0,0.0,0.0,0.0,0.0,0.0,0.0,0.0,0.0,-3.7214,0.0,0.0,0.0,-3.7307,0.0,-3.6781,-3.6934,-3.6687,-3.6675,-3.6909,-3.7062,-3.7168,-3.7307,-3.7564,-3.7703,-3.7703,-3.7854,-3.79,-3.79,-3.79,-3.79,-3.807,-3.9401,-3.9855,-4.0201,0.0,-3.6405,0.0,0.0,-3.6405,0.0,-3.6405,-3.6405,-3.6405,-3.6405,-3.6405,-3.6405,-3.6405,-3.6405,-3.6405,-3.6405,-3.6405,-3.6405,-3.6405,-3.6405,-3.6405,-3.6405,-3.6405,-3.6405,-3.6405,-3.6405,-3.6405,0.0,-3.6405,-3.6342,0.0,0.0,0.0,0.0,0.0,0.0,0.0,0.0,-3.1637,-3.133,-3.0391,-2.9994,-2.9994,-2.9994,-2.9994,-2.9994,-2.9994,-2.9994,-2.9994,-2.9994,-2.9994,-2.9994,-2.9994,-2.9994,-2.9994,-2.9994,-2.9994,-2.9994,-2.9994,-2.9994,-2.9994,-2.9994,-3.064,-3.133,-3.1534,-3.2235,-3.3239,-3.4532,-3.4969,-3.5463,-3.6521,-3.6828,0.0,0.0,0.0,0.0,0.0,0.0,0.0,0.0,0.0,0.0,0.0,0.0,0.0,0.0,0.0,-3.7459,-3.7108,-3.7214,-3.7201,0.0,0.0,-3.6956,-3.7108,0.0,-3.6628,-3.6452,-3.6581,-3.6628,-3.6628,-3.6922,-3.7062,-3.7108,-3.7366,-3.7505,-3.7598,-3.7808,-3.79,-3.79,-3.79,-3.79,-3.8037,-3.8881,-3.921,-3.9689,0.0,0.0,0.0,0.0,0.0,0.0,-3.6405,-3.6405,-3.6405,-3.6405,-3.6405,-3.6405,-3.6405,-3.6405,-3.6405,-3.6405,-3.6405,-3.6405,-3.6405,-3.6405,-3.6405,-3.6405,-3.6405,-3.6405,-3.6405,-3.6405,-3.6405,0.0,-3.6405,-3.6107,-3.5596,0.0,0.0,0.0,0.0,0.0,0.0,-3.2004,-3.175,-3.0836,-3.0245,-2.9994,-2.9994,-2.9994,-2.9994,-2.9994,-2.9994,-2.9994,-2.9994,-2.9994,-2.9994,-2.9994,-2.9994,-2.9994,-2.9994,-2.9994,-2.9994,-2.9994,-2.9994,-2.9994,-2.9994,-2.9994,-3.0099,-3.0391,-3.1381,-3.1677,-3.2325,-3.4374,-3.5571,-3.6345,-3.6615,-3.6581,-3.6593,0.0,0.0,0.0,0.0,0.0,0.0,0.0,0.0,0.0,0.0,0.0,0.0,0.0,-3.7749,-3.7657,-3.7108,-3.7551,-3.7505,-3.6756,-3.7168,-3.7307,-3.7108,-3.6815,-3.6675,-3.6675,-3.6499,-3.6452,-3.6452,-3.6628,-3.6862,-3.7108,-3.7366,-3.7657,-3.7854,-3.79,-3.79,-3.79,-3.79,-3.79,-3.8037,-3.8881,-3.921,-3.9669,0.0,0.0,0.0,0.0,0.0,0.0,0.0,-3.6405,-3.6405,-3.6405,-3.6405,-3.6405,-3.6405,-3.6405,-3.6405,-3.6405,-3.6405,-3.6405,-3.6405,-3.6405,-3.6405,-3.6405,-3.6405,-3.6405,-3.6405,-3.6405,-3.6405,0.0,0.0,-3.6304,-3.6044,-3.5616,0.0,0.0,0.0,-3.2588,-3.1483,-3.1094,-3.0703,-3.0287,-3.0099,-2.9994,-2.9994,-2.9994,-2.9994,-2.9994,-2.9994,-2.9994,-2.9994,-2.9994,-2.9994,-2.9994,-2.9994,-2.9994,-2.9994,-2.9994,-2.9994,-2.9994,-2.9994,-3.0495,-3.094,-3.094,-3.1443,-3.2055,-3.2437,-3.2538,-3.2989,-3.4483,-3.5667,-3.6405,-3.6499,-3.6534,-3.6581,0.0,0.0,0.0,0.0,0.0,0.0,0.0,0.0,0.0,0.0,0.0,0.0,0.0,0.0,-3.7749,-3.7353,-3.74,-3.7366,-3.7214,0.0,-3.6922,-3.7108,-3.6734,-3.6546,-3.6546,-3.6452,-3.6452,-3.6581,-3.6815,-3.7155,-3.7564,-3.7505,-3.7657,-3.79,-3.79,-3.79,-3.79,-3.79,-3.79,-3.8037,-3.8881,-3.9441,-4.0175,-3.6405,0.0,-3.6405,0.0,-3.6405,-3.6405,-3.6405,-3.6405,-3.6405,-3.6405,-3.6405,-3.6405,-3.6405,-3.6405,-3.6405,-3.6405,-3.6405,-3.6405,-3.6405,-3.6405,-3.6405,-3.6405,-3.6405,0.0,-3.6405,-3.6405,-3.6405,-3.6405,-3.6405,-3.6329,-3.6119,-3.5039,0.0,0.0,-3.2325,-3.1779,-3.1575,-3.064,-3.0245,-3.0245,-3.0047,-2.9994,-2.9994,-2.9994,-2.9994,-2.9994,-2.9994,-2.9994,-3.0047,-3.0193,-3.0141,-2.9994,-2.9994,-2.9994,-3.0047,-3.0391,-3.0495,-3.0547,-3.0847,-3.1494,-3.2083,-3.2083,-3.265,-3.33,-3.3598,-3.3648,-3.3993,-3.5078,-3.587,-3.6405,-3.6405,-3.6546,-3.6581,-3.6499,0.0,0.0,0.0,0.0,0.0,0.0,0.0,-3.7413,-3.7657,0.0,0.0,0.0,0.0,-3.7564,-3.74,-3.7261,-3.7214,0.0,0.0,0.0,-3.6968,-3.6593,-3.6405,-3.6405,-3.6405,-3.6452,-3.6628,-3.6968,-3.7307,-3.7657,-3.7611,-3.7703,-3.79,-3.79,-3.79,-3.79,-3.79,-3.79,-3.7979,-3.8594,-3.9226,-4.0078,-3.6405,-3.6405,-3.6405,-3.6405,-3.6405,-3.6405,-3.6405,-3.6405,-3.6405,-3.6405,-3.6405,-3.6405,-3.6405,-3.6405,-3.6405,-3.6405,-3.6405,-3.6405,-3.6405,-3.6405,-3.6405,0.0,0.0,-3.6405,-3.6405,-3.6405,-3.6405,-3.6405,0.0,0.0,-3.5508,0.0,-3.3741,-3.3201,-3.2611,-3.1801,-3.0785,-3.0785,-3.0785,-3.0733,-3.0193,-2.9994,-2.9994,-2.9994,-2.9994,-2.9994,-2.9994,-2.9994,-3.0099,-3.0588,-3.0443,-2.9994,-2.9994,-2.9994,-3.0193,-3.1278,-3.1575,-3.183,-3.2851,-3.3151,-3.3201,-3.3201,-3.3201,-3.3499,-3.4532,-3.4775,-3.5078,-3.6156,-3.6405,-3.6405,-3.6405,-3.6405,-3.6452,-3.6675,0.0,0.0,0.0,0.0,0.0,0.0,-3.79,-3.7703,-3.7155,0.0,0.0,0.0,0.0,0.0,0.0,0.0,0.0,-3.6722,-3.6709,0.0,-3.6709,-3.6499,-3.6405,-3.6405,-3.6405,-3.6405,-3.6405,-3.6875,-3.7108,-3.7155,-3.7657,-3.79,-3.79,-3.79,-3.79,-3.79,-3.79,-3.79,-3.79,-3.79,-3.824,-3.8963,-3.6405,-3.6405,-3.6405,-3.6405,-3.6405,-3.6405,-3.6405,-3.6405,-3.6405,-3.6405,-3.6405,-3.6405,-3.6405,-3.6405,-3.6405,0.0,-3.6405,-3.6405,0.0,-3.6405,-3.6405,-3.6405,-3.6405,-3.6405,-3.6405,-3.6405,-3.6405,-3.6405,0.0,0.0,0.0,-3.433,-3.3287,-3.1054,-3.1597,-3.1432,-3.0785,-3.0785,-3.1002,-3.1311,-3.0744,-3.0536,-3.0495,-3.0151,-2.9994,-2.9994,-2.9994,-2.9994,-3.0047,-3.0193,-3.0141,-3.0141,-3.0888,-3.0588,-3.0193,-3.1289,-3.1575,-3.183,-3.2901,-3.3747,-3.4288,-3.4288,-3.4824,-3.5475,-3.581,-3.5918,-3.6013,-3.631,-3.6405,-3.6405,-3.6405,-3.6499,-3.6628,-3.6675,-3.6709,0.0,0.0,0.0,0.0,0.0,-3.7201,-3.7168,0.0,-3.7459,0.0,0.0,0.0,0.0,0.0,0.0,0.0,0.0,-3.6675,0.0,-3.6709,-3.6499,-3.6405,-3.6405,-3.6405,-3.6452,-3.6628,-3.6968,-3.7214,-3.74,-3.7762,-3.79,-3.79,-3.79,-3.79,-3.79,-3.79,-3.79,-3.79,-3.79,-3.8939,-4.04,-3.6405,-3.6405,-3.6405,-3.6405,-3.6405,-3.6405,-3.6405,-3.6405,-3.6405,-3.6405,-3.6405,-3.6405,-3.6405,-3.6405,0.0,-3.6405,-3.6405,-3.6405,-3.6405,-3.6405,-3.6405,-3.6405,-3.6405,-3.6405,-3.6405,-3.6405,0.0,-3.6405,-3.6499,-3.5763,-3.4239,-3.4532,-3.3289,-3.0899,-3.1187,-3.0981,-3.0495,-3.0495,-3.0692,-3.0961,-3.0651,-3.0495,-3.0443,-3.0141,-3.0151,-3.0287,-3.0047,-3.0141,-3.0287,-3.0287,-3.0443,-3.0795,-3.1739,-3.1739,-3.1534,-3.2527,-3.2778,-3.3028,-3.4091,-3.4872,-3.5415,-3.5415,-3.5906,-3.6405,-3.6405,-3.6405,-3.6405,-3.6405,-3.6405,-3.6405,-3.6405,-3.6499,-3.6581,-3.6581,-3.6675,-3.6769,-3.6922,0.0,0.0,0.0,0.0,0.0,0.0,-3.7261,-3.7307,0.0,0.0,0.0,0.0,0.0,0.0,-3.6828,-3.6546,-3.6452,-3.6581,-3.6452,-3.6405,-3.6405,-3.6405,-3.6499,-3.6722,-3.6862,-3.7155,-3.7505,-3.7657,-3.7808,-3.79,-3.79,-3.79,-3.79,-3.79,-3.79,-3.7926,-3.8135,-3.9196,-4.0569,-3.6405,-3.6405,-3.6405,0.0,-3.6405,0.0,-3.6405,-3.6405,-3.6405,-3.6405,-3.6405,-3.6405,-3.6405,-3.6405,-3.6405,-3.6405,0.0,0.0,0.0,-3.6405,-3.6405,-3.6405,-3.6405,-3.6405,-3.6405,-3.6405,-3.6358,-3.631,-3.6487,-3.6285,-3.5667,-3.4727,-3.3549,-3.2218,-3.1249,-3.0588,-3.0151,-3.0151,-3.0203,-3.0193,-3.0193,-3.0151,-3.0047,-3.0047,-3.0339,-3.0692,-3.0193,-3.0339,-3.0733,-3.0733,-3.1135,-3.1779,-3.26,-3.3277,-3.3897,-3.4617,-3.4824,-3.5066,-3.6108,-3.6405,-3.6405,-3.6405,-3.6405,-3.6405,-3.6405,-3.6405,-3.6405,-3.6405,-3.6405,-3.6405,-3.6405,-3.6405,-3.6405,-3.6405,-3.6581,-3.6722,-3.6722,0.0,0.0,0.0,0.0,0.0,-3.7062,-3.6862,-3.6815,0.0,0.0,0.0,0.0,0.0,-3.6875,-3.6405,-3.6405,-3.6405,-3.6405,-3.6405,-3.6405,-3.6405,-3.6405,-3.6499,-3.6675,-3.6709,-3.7015,-3.7459,-3.7505,-3.7657,-3.79,-3.79,-3.79,-3.79,-3.79,-3.79,-3.7965,-3.8514,-3.9089,-3.969,0.0,0.0,-3.6405,-3.6405,-3.6405,-3.6405,-3.6405,-3.6405,-3.6405,-3.6405,-3.6405,-3.6405,-3.6405,-3.6405,-3.6405,-3.6405,-3.6405,-3.6405,-3.6405,-3.6405,-3.6405,-3.6405,-3.6405,-3.6405,-3.6405,-3.6405,-3.6013,-3.5174,-3.5223,-3.4362,-3.2666,-3.3239,-3.2448,-3.0599,-3.1135,-3.1586,-3.1812,-3.1812,-3.2055,-3.2448,-3.2448,-3.1699,-3.0588,-3.0588,-3.0443,-3.0193,-3.0047,-3.0099,-3.0193,-3.0193,-3.0929,-3.2072,-3.3116,-3.4154,-3.509,-3.5295,-3.5198,-3.5246,-3.6332,-3.6546,-3.6405,-3.6405,-3.6405,-3.6452,-3.6581,-3.6499,-3.6405,-3.6405,-3.6405,-3.6405,-3.6405,-3.6534,-3.6628,-3.6628,-3.6815,-3.7015,-3.7015,-3.6862,0.0,0.0,-3.6687,-3.664,-3.6769,-3.6909,-3.7015,0.0,0.0,0.0,-3.6815,-3.6815,-3.6675,-3.6405,-3.6405,-3.6405,-3.6405,-3.6405,-3.6405,-3.6405,-3.6405,-3.6405,-3.6499,-3.6828,-3.7062,-3.7214,-3.7611,-3.7854,-3.79,-3.79,-3.79,-3.79,-3.79,-3.79,-3.7965,-3.8514,-3.9089,-3.969,-3.6405,-3.6405,-3.6405,-3.6405,-3.6405,-3.6405,-3.6405,-3.6405,-3.6405,-3.6405,-3.6405,-3.6405,-3.6405,-3.6405,-3.6405,-3.6405,-3.6405,-3.6405,-3.6405,-3.6405,-3.6405,-3.6405,-3.6405,-3.6405,-3.6405,-3.5918,-3.521,-3.4264,-3.4264,-3.3525,-3.2145,-3.275,-3.2207,-3.0754,-3.175,-3.2246,-3.2409,-3.2878,-3.2978,-3.2862,-3.2951,-3.2398,-3.1494,-3.0991,-3.0899,-3.1002,-3.0245,-3.0453,-3.1105,-3.094,-3.2033,-3.3525,-3.3946,-3.509,-3.6178,-3.5928,-3.5833,-3.5976,-3.6521,-3.6534,-3.6405,-3.6405,-3.6405,-3.6452,-3.6534,-3.6499,-3.6405,-3.6405,-3.6405,-3.6405,-3.6405,-3.6499,-3.6534,-3.6534,-3.6687,-3.6781,-3.6781,-3.664,0.0,-3.6862,-3.6675,-3.6628,-3.6862,-3.6909,-3.6922,-3.6922,-3.6968,0.0,-3.6709,-3.6628,-3.6499,-3.6405,-3.6405,-3.6405,-3.6405,-3.6405,-3.6405,-3.6405,-3.6405,-3.6452,-3.6546,-3.6815,-3.7062,-3.7307,-3.7598,-3.7808,-3.79,-3.79,-3.79,-3.79,-3.79,-3.8057,-3.8344,-3.8906,-3.9481,-4.0056,-3.6405,-3.6405,-3.6405,-3.6405,-3.6405,-3.6405,-3.6405,-3.6405,-3.6405,-3.6405,-3.6405,-3.6405,-3.6405,-3.6405,-3.6405,-3.6405,-3.6405,-3.6405,-3.6405,-3.6405,-3.6405,-3.6405,-3.6405,-3.6405,-3.6405,-3.5523,-3.4569,-3.3552,-3.3601,-3.3266,-3.251,-3.2561,-3.2218,-3.1516,-3.2359,-3.2561,-3.2359,-3.3342,-3.3204,-3.2308,-3.2801,-3.2711,-3.2207,-3.1341,-3.1545,-3.2106,-3.0795,-3.1197,-3.2359,-3.2275,-3.3464,-3.4957,-3.4642,-3.5582,-3.6769,-3.6367,-3.6461,-3.6709,-3.6709,-3.6534,-3.6417,-3.6499,-3.6452,-3.6405,-3.6499,-3.6452,-3.6405,-3.6452,-3.6452,-3.6452,-3.6452,-3.6452,-3.6452,-3.6452,-3.6452,-3.6452,-3.6452,0.0,-3.6593,-3.6968,-3.6769,-3.6722,-3.6968,-3.6815,-3.6675,-3.6675,-3.6546,-3.6499,-3.6675,-3.6499,-3.6405,-3.6405,-3.6405,-3.6405,-3.6405,-3.6405,-3.6405,-3.6405,-3.6405,-3.6499,-3.6675,-3.6722,-3.7015,-3.7459,-3.7505,-3.7703,-3.79,-3.79,-3.79,-3.79,-3.79,-3.824,-3.8776,-3.939,-3.9952,-4.0501,-3.6405,-3.6405,-3.6405,-3.6405,-3.6405,-3.6405,-3.6405,-3.6405,-3.6405,-3.6405,-3.6405,-3.6405,-3.6405,-3.6405,-3.6405,-3.6405,-3.6405,-3.6405,-3.6405,-3.6405,-3.6405,-3.6405,-3.6405,-3.6405,-3.6405,-3.6263,-3.5223,-3.3239,-3.3735,-3.2989,-3.1146,-3.1556,-3.1465,-3.0991,-3.2004,-3.2207,-3.1779,-3.2839,-3.2689,-3.1841,-3.3239,-3.2989,-3.179,-3.2055,-3.1953,-3.1728,-3.1677,-3.183,-3.2174,-3.3055,-3.3688,-3.407,-3.3836,-3.4691,-3.5773,-3.5939,-3.6295,-3.6709,-3.6709,-3.6534,-3.6499,-3.6875,-3.6687,-3.6499,-3.6922,-3.6687,-3.6452,-3.6628,-3.6675,-3.6675,-3.6675,-3.6675,-3.6675,-3.6675,-3.6675,-3.6675,-3.6675,0.0,-3.6628,-3.6499,-3.6452,-3.6452,-3.6499,-3.6628,-3.6628,-3.6452,-3.6581,-3.6581,-3.6452,-3.6405,-3.6405,-3.6405,-3.6405,-3.6405,-3.6405,-3.6405,-3.6405,-3.6405,-3.6405,-3.6405,-3.6452,-3.6875,-3.7062,-3.7201,-3.7657,-3.7854,-3.79,-3.79,-3.79,-3.79,-3.79,-3.824,-3.8776,-3.939,-3.9952,-4.0501,-3.6405,-3.6405,-3.6405,-3.6405,-3.6405,-3.6405,-3.6405,-3.6405,-3.6405,-3.6405,-3.6405,-3.6405,-3.6405,-3.6405,-3.6405,-3.6405,-3.6405,-3.6405,-3.6405,-3.6405,-3.6405,-3.6405,-3.6405,-3.6108,-3.5571,-3.5523,-3.4483,-3.2336,-3.2588,-3.1891,-3.0391,-3.1197,-3.1597,-3.175,-3.325,-3.3537,-3.2989,-3.4617,-3.4362,-3.2989,-3.3834,-3.3685,-3.2789,-3.1902,-3.1891,-3.2387,-3.1931,-3.2527,-3.3624,-3.4264,-3.4884,-3.5366,-3.4993,-3.5487,-3.6071,-3.5798,-3.6285,-3.6875,-3.6628,-3.6534,-3.6628,-3.6815,-3.6828,-3.6828,-3.7062,-3.6828,-3.6628,-3.6862,-3.6722,-3.6581,-3.6675,-3.6628,-3.6581,-3.6675,-3.6628,0.0,-3.6675,-3.6628,-3.6534,-3.6534,-3.6534,-3.6534,-3.6534,-3.6675,-3.6628,-3.6405,-3.6499,-3.6499,-3.6405,-3.6405,-3.6405,-3.6405,-3.6405,-3.6405,-3.6405,-3.6405,-3.6405,-3.6405,-3.6405,-3.6405,-3.6405,-3.6734,-3.6956,-3.7108,-3.7505,-3.7762,-3.79,-3.79,-3.79,-3.7926,-3.8227,-3.8697,-3.9259,-3.9834,-4.0409,-4.0932,-3.6405,-3.6405,-3.6405,-3.6405,-3.6405,-3.6405,-3.6405,-3.6405,-3.6405,-3.6452,-3.6452,-3.6405,-3.6452,-3.6452,-3.6405,-3.6405,-3.6405,-3.6405,-3.6405,-3.6405,-3.6405,-3.6405,-3.6405,-3.6013,-3.5174,-3.5174,-3.4227,-3.2325,-3.2488,-3.1993,-3.095,-3.1891,-3.2499,-3.2851,-3.4581,-3.4775,-3.3944,-3.5846,-3.5499,-3.3648,-3.3993,-3.4091,-3.3883,-3.2044,-3.2297,-3.3549,-3.2728,-3.3476,-3.4981,-3.5415,-3.5893,-3.6285,-3.5858,-3.5953,-3.6143,-3.5644,-3.6216,-3.6922,-3.6499,-3.6534,-3.6709,-3.6709,-3.6815,-3.6968,-3.7015,-3.6815,-3.6722,-3.6956,-3.6734,-3.6546,-3.6769,-3.6687,-3.6593,-3.6769,0.0,-3.6546,-3.6675,-3.6534,-3.6452,-3.6628,-3.6628,-3.6628,-3.6628,-3.6675,-3.6628,-3.6405,-3.6452,-3.6452,-3.6405,-3.6405,-3.6405,-3.6405,-3.6405,-3.6405,-3.6405,-3.6405,-3.6405,-3.6405,-3.6405,-3.6405,-3.6405,-3.6675,-3.6922,-3.7108,-3.7459,-3.7703,-3.79,-3.79,-3.7978,-3.8135,-3.8553,-3.9155,-3.9847,-4.0265,-4.0788,-4.1311,-3.6405,-3.6405,-3.6405,-3.6405,-3.6405,-3.6405,-3.6405,-3.6405,-3.6452,-3.6675,-3.6546,-3.6452,-3.6675,-3.6499,-3.6405,-3.6405,-3.6405,-3.6405,-3.6405,-3.6405,-3.6405,-3.6405,-3.6405,-3.6358,-3.6263,-3.6263,-3.5715,-3.4581,-3.5054,-3.4763,-3.3747,-3.4311,-3.4311,-3.3944,-3.5331,-3.4921,-3.335,-3.4727,-3.4239,-3.2561,-3.3101,-3.3747,-3.4288,-3.335,-3.3883,-3.503,-3.4969,-3.503,-3.5319,-3.6285,-3.6036,-3.5271,-3.4981,-3.4921,-3.4969,-3.5174,-3.5941,-3.6675,-3.6452,-3.6534,-3.6709,-3.6709,-3.6581,-3.6499,-3.6675,-3.6581,-3.6499,-3.6675,-3.6709,-3.6769,-3.7015,-3.7062,-3.7062,-3.7062,0.0,0.0,-3.6709,-3.6534,-3.6405,-3.6405,-3.6405,-3.6405,-3.6405,-3.6581,-3.6628,-3.6405,-3.6581,-3.6581,-3.6405,-3.6405,-3.6405,-3.6405,-3.6405,-3.6405,-3.6405,-3.6405,-3.6405,-3.6405,-3.6405,-3.6405,-3.6417,-3.6875,-3.7062,-3.7108,-3.7657,-3.79,-3.79,-3.79,-3.82,-3.8658,-3.8697,-3.9377,-4.0357,-4.0396,-4.0788,-4.1311,-3.6405,-3.6405,-3.6405,-3.6405,-3.6405,-3.6405,-3.6405,-3.6405,-3.6452,-3.6499,-3.6452,-3.6452,-3.6499,-3.6534,-3.6534,-3.6405,-3.6499,-3.6534,-3.6405,-3.6405,-3.6405,-3.6405,-3.6405,-3.6405,-3.6405,-3.6405,-3.5858,-3.4775,-3.4981,-3.4544,-3.3549,-3.4544,-3.4945,-3.4775,-3.6096,-3.5941,-3.4703,-3.569,-3.5451,-3.4313,-3.4239,-3.4483,-3.4775,-3.3648,-3.3944,-3.4933,-3.4933,-3.5379,-3.6013,-3.6405,-3.625,-3.5953,-3.5953,-3.5906,-3.581,-3.5906,-3.6298,-3.6675,-3.6452,-3.6534,-3.6709,-3.6709,-3.6769,-3.6828,-3.6922,-3.6769,-3.6628,-3.6922,-3.6734,-3.6581,-3.6815,-3.6734,-3.6687,-3.6815,0.0,-3.6534,-3.6675,-3.6534,-3.6405,-3.6405,-3.6405,-3.6405,-3.6405,-3.6452,-3.6499,-3.6405,-3.6452,-3.6499,-3.6405,-3.6405,-3.6405,-3.6405,-3.6405,-3.6405,-3.6405,-3.6405,-3.6405,-3.6405,-3.6405,-3.6452,-3.6581,-3.664,-3.6934,-3.7353,-3.74,-3.7598,-3.79,-3.79,-3.8227,-3.8749,-3.9115,-3.9743,-4.0461,-4.084,-4.1115,-4.1311,-3.6405,-3.6405,-3.6405,-3.6405,-3.6405,-3.6405,-3.6499,-3.6499,-3.6546,-3.6593,-3.6546,-3.6546,-3.6593,-3.6675,-3.6628,-3.6499,-3.6628,-3.6628,-3.6499,-3.6499,-3.6452,-3.6405,-3.6405,-3.6405,-3.6405,-3.6405,-3.6061,-3.5319,-3.5319,-3.4933,-3.4239,-3.5126,-3.5571,-3.5619,-3.6581,-3.6521,-3.5833,-3.6427,-3.6238,-3.5511,-3.4981,-3.5078,-3.5319,-3.4141,-3.4422,-3.5415,-3.5319,-3.5775,-3.6405,-3.6405,-3.6405,-3.6405,-3.6534,-3.6499,-3.6405,-3.6499,-3.6534,-3.6581,-3.6499,-3.6534,-3.6628,-3.6628,-3.6722,-3.6875,-3.6875,-3.6734,-3.6675,-3.6828,-3.664,-3.6452,-3.6675,-3.6581,-3.6534,-3.6675,-3.6581,-3.6546,-3.6581,-3.6499,-3.6405,-3.6405,-3.6405,-3.6405,-3.6405,-3.6452,-3.6452,-3.6405,-3.6452,-3.6452,-3.6405,-3.6405,-3.6405,-3.6405,-3.6405,-3.6405,-3.6405,-3.6405,-3.6405,-3.6405,-3.6405,-3.6452,-3.6581,-3.6534,-3.6828,-3.7366,-3.7261,-3.7505,-3.7913,-3.8083,-3.8488,-3.905,-3.9638,-4.02,-4.0749,-4.1167,-4.1311,-4.1311,-3.6405,-3.6405,-3.6405,-3.6405,-3.6405,-3.6452,-3.6675,-3.6709,-3.6815,-3.7062,-3.6862,-3.6815,-3.7062,-3.6862,-3.6709,-3.6709,-3.6709,-3.6722,-3.6709,-3.6709,-3.6628,-3.6405,-3.6405,-3.6405,-3.6405,-3.6405,-3.6405,-3.6405,-3.6405,-3.6405,-3.6405,-3.6405,-3.6405,-3.6405,-3.6628,-3.6581,-3.6405,-3.6628,-3.6298,-3.556,-3.5042,-3.5271,-3.5918,-3.5126,-3.5607,-3.6675,-3.6452,-3.6405,-3.6405,-3.6405,-3.6405,-3.6405,-3.6405,-3.6405,-3.6452,-3.6628,-3.6534,-3.6452,-3.6628,-3.6534,-3.6405,-3.6405,-3.6405,-3.6405,-3.6405,-3.6405,-3.6405,-3.6405,-3.6405,-3.6452,-3.6675,-3.6709,-3.6709,-3.6709,-3.6709,-3.6628,-3.6452,-3.6405,-3.6405,-3.6405,-3.6405,-3.6405,-3.6405,-3.6581,-3.6628,-3.6405,-3.6581,-3.6628,-3.6405,-3.6405,-3.6405,-3.6405,-3.6405,-3.6405,-3.6405,-3.6405,-3.6405,-3.6405,-3.6405,-3.6405,-3.6405,-3.6628,-3.6862,-3.7108,-3.7366,-3.7657,-3.7952,-3.8488,-3.9076,-3.9677,-4.0213,-4.0788,-4.1311,-4.1311,-4.1311,-4.1311,-3.6405,-3.6405,-3.6405,-3.6405,-3.6405,-3.6452,-3.6675,-3.6581,-3.6593,-3.6769,-3.664,-3.6581,-3.6815,-3.6922,-3.6909,-3.6722,-3.7062,-3.7168,-3.7015,-3.6815,-3.6675,-3.6628,-3.6499,-3.6405,-3.6405,-3.6405,-3.6405,-3.6405,-3.6405,-3.6405,-3.6405,-3.6534,-3.6628,-3.6628,-3.6862,-3.6968,-3.6875,-3.6769,-3.6675,-3.6593,-3.6108,-3.6156,-3.6427,-3.6061,-3.6156,-3.6499,-3.6405,-3.6405,-3.6263,-3.5523,-3.5775,-3.6405,-3.6405,-3.6499,-3.6581,-3.6499,-3.6452,-3.6405,-3.6452,-3.6452,-3.6405,-3.6405,-3.6405,-3.6405,-3.6405,-3.6405,-3.6405,-3.6405,-3.6405,-3.6405,-3.6499,-3.6499,-3.6499,-3.6499,-3.6499,-3.6452,-3.6405,-3.6405,-3.6405,-3.6405,-3.6405,-3.6405,-3.6405,-3.6452,-3.6452,-3.6405,-3.6452,-3.6452,-3.6405,-3.6405,-3.6405,-3.6405,-3.6405,-3.6405,-3.6405,-3.6405,-3.6405,-3.6405,-3.6405,-3.6452,-3.6628,-3.6675,-3.6956,-3.7413,-3.7459,-3.7878,-3.8488,-3.8645,-3.9285,-4.0187,-4.0357,-4.0788,-4.1311,-4.1311,-4.1311,-4.1311,-3.6405,-3.6405,-3.6405,-3.6405,-3.6405,-3.6452,-3.6675,-3.6581,-3.6581,-3.6815,-3.6734,-3.6781,-3.7015,-3.7062,-3.7015,-3.6862,-3.7155,-3.7261,-3.7108,-3.6956,-3.6815,-3.6709,-3.6499,-3.6405,-3.6405,-3.6405,-3.6405,-3.6405,-3.6405,-3.6405,-3.6405,-3.6546,-3.6581,-3.6581,-3.6734,-3.6828,-3.6828,-3.664,-3.6675,-3.6781,-3.6499,-3.6452,-3.6581,-3.6452,-3.6405,-3.6405,-3.6405,-3.6405,-3.631,-3.5667,-3.5858,-3.6405,-3.6405,-3.6499,-3.6534,-3.6452,-3.6405,-3.6405,-3.6405,-3.6405,-3.6405,-3.6405,-3.6405,-3.6405,-3.6405,-3.6405,-3.6405,-3.6405,-3.6405,-3.6405,-3.6405,-3.6405,-3.6405,-3.6405,-3.6405,-3.6405,-3.6405,-3.6405,-3.6405,-3.6405,-3.6405,-3.6405,-3.6405,-3.6405,-3.6405,-3.6405,-3.6405,-3.6405,-3.6405,-3.6405,-3.6405,-3.6405,-3.6405,-3.6405,-3.6405,-3.6405,-3.6405,-3.6405,-3.6405,-3.6499,-3.6709,-3.6709,-3.7015,-3.7518,-3.7738,-3.8163,-3.8736,-3.9194,-3.9795,-4.0435,-4.0671,-4.0997,-4.1311,-4.1311,-4.1311,-4.1311,-3.6405,-3.6405,-3.6405,-3.6405,-3.6405,-3.6452,-3.6675,-3.6675,-3.6769,-3.7062,-3.7062,-3.7168,-3.7413,-3.7214,-3.7062,-3.7108,-3.7108,-3.7155,-3.7155,-3.7108,-3.6968,-3.6709,-3.6499,-3.6405,-3.6405,-3.6405,-3.6405,-3.6405,-3.6405,-3.6405,-3.6405,-3.6405,-3.6405,-3.6405,-3.6405,-3.6405,-3.6405,-3.6405,-3.6405,-3.6405,-3.6405,-3.6405,-3.6405,-3.6405,-3.6405,-3.6405,-3.6405,-3.6405,-3.6405,-3.6405,-3.6358,-3.625,-3.6358,-3.6405,-3.6405,-3.6405,-3.6405,-3.6405,-3.6405,-3.6405,-3.6405,-3.6405,-3.6405,-3.6405,-3.6405,-3.6405,-3.6405,-3.6405,-3.6405,-3.6405,-3.6405,-3.6405,-3.6405,-3.6405,-3.6405,-3.6405,-3.6405,-3.6405,-3.6405,-3.6405,-3.6405,-3.6405,-3.6405,-3.6405,-3.6405,-3.6405,-3.6405,-3.6405,-3.6405,-3.6405,-3.6405,-3.6405,-3.6405,-3.6405,-3.6405,-3.6405,-3.6405,-3.6405,-3.6405,-3.6499,-3.6675,-3.6675,-3.6994,-3.7575,-3.8173,-3.8587,-3.8945,-3.9978,-4.0448,-4.0553,-4.1102,-4.1311,-4.1311,-4.1311,-4.1311,-4.1311,-3.6405,-3.6405,-3.6405,-3.6405,-3.6405,-3.6452,-3.6675,-3.6581,-3.664,-3.7062,-3.6781,-3.6687,-3.7155,-3.6956,-3.6862,-3.7062,-3.7307,-3.7413,-3.7413,-3.7214,-3.6968,-3.6709,-3.6499,-3.6405,-3.6405,-3.6405,-3.6405,-3.6405,-3.6405,-3.6405,-3.6405,-3.6405,-3.6405,-3.6405,-3.6405,-3.6405,-3.6405,-3.6405,-3.6405,-3.6405,-3.6405,-3.6405,-3.6405,-3.6405,-3.6405,-3.6405,-3.6405,-3.6405,-3.6405,-3.6405,-3.581,-3.5271,-3.6168,-3.6405,-3.6405,-3.6405,-3.6405,-3.6405,-3.6405,-3.6405,-3.6405,-3.6405,-3.6405,-3.6405,-3.6405,-3.6405,-3.6405,-3.6405,-3.6405,-3.6405,-3.6405,-3.6405,-3.6405,-3.6405,-3.6405,-3.6405,-3.6405,-3.6405,-3.6405,-3.6405,-3.6405,-3.6405,-3.6405,-3.6405,-3.6405,-3.6405,-3.6405,-3.6405,-3.6405,-3.6405,-3.6405,-3.6405,-3.6405,-3.6405,-3.6405,-3.6405,-3.6405,-3.6405,-3.6405,-3.6405,-3.6452,-3.6628,-3.7164,-3.7908,-3.8247,-3.9029,-4.0069,-4.0318,-4.0697,-4.1141,-4.1259,-4.1311,-4.1311,-4.1311,-4.1311,-4.1311,-3.6405,-3.6405,-3.6405,-3.6405,-3.6405,-3.6452,-3.6534,-3.6452,-3.6499,-3.6862,-3.6687,-3.6687,-3.7062,-3.6956,-3.6956,-3.7108,-3.7108,-3.7108,-3.7108,-3.7015,-3.6815,-3.6581,-3.6452,-3.6405,-3.6405,-3.6405,-3.6405,-3.6405,-3.6405,-3.6405,-3.6405,-3.6405,-3.6405,-3.6405,-3.6405,-3.6405,-3.6405,-3.6405,-3.6405,-3.6405,-3.6405,-3.6405,-3.6405,-3.6405,-3.6405,-3.6405,-3.6405,-3.6405,-3.6405,-3.6405,-3.6013,-3.5667,-3.6203,-3.6405,-3.6405,-3.6405,-3.6405,-3.6405,-3.6405,-3.6405,-3.6405,-3.6405,-3.6405,-3.6405,-3.6405,-3.6405,-3.6405,-3.6405,-3.6405,-3.6405,-3.6405,-3.6405,-3.6405,-3.6405,-3.6405,-3.6405,-3.6405,-3.6405,-3.6405,-3.6405,-3.6405,-3.6405,-3.6405,-3.6405,-3.6405,-3.6405,-3.6405,-3.6405,-3.6405,-3.6405,-3.6405,-3.6405,-3.6405,-3.6405,-3.6405,-3.6405,-3.6405,-3.6405,-3.6405,-3.6603,-3.6998,-3.7093,-3.7636,-3.8582,-3.8997,-3.9631,-4.0435,-4.0723,-4.1036,-4.1311,-4.1311,-4.1311,-4.1311,-4.1311,-4.1311,-4.135,-3.6405,-3.6405,-3.6405,-3.6405,-3.6405,-3.6405,-3.6405,-3.6405,-3.6452,-3.6675,-3.6675,-3.6769,-3.7015,-3.7015,-3.7015,-3.7015,-3.6909,-3.6815,-3.6769,-3.6769,-3.6675,-3.6452,-3.6405,-3.6405,-3.6405,-3.6405,-3.6405,-3.6405,-3.6405,-3.6405,-3.6405,-3.6405,-3.6405,-3.6405,-3.6405,-3.6405,-3.6405,-3.6405,-3.6405,-3.6405,-3.6405,-3.6405,-3.6405,-3.6405,-3.6405,-3.6405,-3.6405,-3.6405,-3.6405,-3.6405,-3.6405,-3.6405,-3.6405,-3.6405,-3.6405,-3.6405,-3.6405,-3.6405,-3.6405,-3.6405,-3.6405,-3.6405,-3.6405,-3.6405,-3.6405,-3.6405,-3.6405,-3.6405,-3.6405,-3.6405,-3.6405,-3.6405,-3.6405,-3.6405,-3.6405,-3.6405,-3.6405,-3.6405,-3.6405,-3.6405,-3.6405,-3.6405,-3.6405,-3.6405,-3.6405,-3.6405,-3.6405,-3.6405,-3.6405,-3.6405,-3.6405,-3.6405,-3.6405,-3.6405,-3.6405,-3.6405,-3.6455,-3.6556,-3.6556,-3.689,-3.7536,-3.7638,-3.827,-3.932,-3.9749,-4.0192,-4.0605,-4.1052,-4.1261,-4.1311,-4.1261,-4.1261,-4.1311,-4.1311,-4.1311,-4.1402,-3.6405,-3.6405,-3.6405,-3.6405,-3.6405,-3.6405,-3.6405,-3.6405,-3.6452,-3.6675,-3.6534,-3.6546,-3.6722,-3.6769,-3.6769,-3.6769,-3.7168,-3.7307,-3.7062,-3.7062,-3.6922,-3.6675,-3.6499,-3.6405,-3.6405,-3.6405,-3.6405,-3.6405,-3.6405,-3.6405,-3.6405,-3.6405,-3.6405,-3.6405,-3.6405,-3.6405,-3.6405,-3.6405,-3.6405,-3.6405,-3.6405,-3.6405,-3.6405,-3.6405,-3.6405,-3.6405,-3.6405,-3.6405,-3.6405,-3.6405,-3.6405,-3.6405,-3.6405,-3.6405,-3.6405,-3.6405,-3.6405,-3.6405,-3.6405,-3.6405,-3.6405,-3.6405,-3.6405,-3.6405,-3.6405,-3.6405,-3.6405,-3.6405,-3.6405,-3.6405,-3.6405,-3.6405,-3.6405,-3.6405,-3.6405,-3.6405,-3.6405,-3.6405,-3.6405,-3.6405,-3.6405,-3.6405,-3.6405,-3.6405,-3.6405,-3.6405,-3.6405,-3.6405,-3.6405,-3.6405,-3.6405,-3.6405,-3.6405,-3.6405,-3.6405,-3.6405,-3.6644,-3.7073,-3.7073,-3.7159,-3.7247,-3.7725,-3.855,-3.9655,-3.9732,-4.029,-4.1156,-4.1021,-4.1097,-4.1261,-4.1047,-4.1097,-4.1311,-4.1311,-4.1311,-4.1402,-3.6405,-3.6405,-3.6405,-3.6405,-3.6405,-3.6405,-3.6405,-3.6405,-3.6452,-3.6546,-3.6452,-3.6452,-3.6546,-3.6534,-3.6581,-3.6675,-3.6922,-3.6968,-3.6734,-3.6815,-3.6769,-3.6534,-3.6452,-3.6405,-3.6405,-3.6405,-3.6405,-3.6405,-3.6405,-3.6405,-3.6405,-3.6405,-3.6405,-3.6405,-3.6405,-3.6405,-3.6405,-3.6405,-3.6405,-3.6405,-3.6405,-3.6405,-3.6405,-3.6405,-3.6405,-3.6405,-3.6405,-3.6405,-3.6405,-3.6405,-3.6405,-3.6405,-3.6405,-3.6405,-3.6405,-3.6405,-3.6405,-3.6405,-3.6405,-3.6405,-3.6405,-3.6405,-3.6405,-3.6405,-3.6405,-3.6405,-3.6405,-3.6405,-3.6405,-3.6405,-3.6405,-3.6405,-3.6405,-3.6405,-3.6405,-3.6405,-3.6405,-3.6405,-3.6405,-3.6405,-3.6405,-3.6405,-3.6405,-3.6405,-3.6405,-3.6405,-3.6405,-3.6405,-3.6405,-3.6405,-3.6405,-3.6405,-3.6405,-3.6405,-3.6405,-3.6719,-3.6996,-3.7199,-3.7826,-3.8128,-3.814,-3.8379,-3.9095,-4.0132,-3.9981,-4.0361,-4.1047,-4.0795,-4.0846,-4.1047,-4.0946,-4.1047,-4.1311,-4.1311,-4.1406,-4.1606]},{"header":{"parameterUnit":"m.s-1","parameterCategory":1,"la1":30.6,"la2":28.766,"lo1":-90.7593,"lo2":-88.6598,"dx":0.0162,"dy":0.0183,"nx":116,"ny":114,"refTime":"2023-02-03T06:00:00:Z","depth":0,"parameterNumber":3,"parameterNumberName":"V-component_of_WINDS"},"data":[0.0,0.0,0.0,0.0,0.0,0.0,0.0,0.0,0.0,0.0,0.0,0.0,0.0,0.0,0.0,0.0,0.0,0.0,0.0,0.0,0.0,0.0,0.0,0.0,0.0,0.0,0.0,0.0,0.0,0.0,0.0,0.0,0.0,0.0,0.0,0.0,0.0,0.0,0.0,0.0,0.0,0.0,0.0,0.0,0.0,0.0,0.0,0.0,0.0,0.0,0.0,0.0,0.0,0.0,0.0,0.0,0.0,0.0,0.0,0.0,0.0,0.0,0.0,0.0,0.0,0.0,0.0,0.0,0.0,0.0,0.0,0.0,0.0,0.0,0.0,0.0,0.0,0.0,0.0,0.0,0.0,0.0,0.0,0.0,0.0,0.0,0.0,0.0,0.0,0.0,0.0,0.0,0.0,0.0,0.0,0.0,0.0,0.0,0.0,0.0,0.0,0.0,0.0,0.0,0.0,0.0,0.0,0.0,0.0,0.0,0.0,0.0,0.0,0.0,0.0,0.0,0.0,0.0,0.0,0.0,0.0,0.0,0.0,0.0,0.0,0.0,0.0,0.0,0.0,0.0,0.0,0.0,0.0,0.0,0.0,0.0,0.0,0.0,0.0,0.0,0.0,0.0,0.0,0.0,0.0,0.0,0.0,0.0,0.0,0.0,0.0,0.0,0.0,0.0,0.0,0.0,0.0,0.0,0.0,0.0,0.0,0.0,0.0,0.0,0.0,0.0,0.0,0.0,0.0,0.0,0.0,0.0,0.0,0.0,0.0,0.0,0.0,0.0,0.0,0.0,0.0,0.0,0.0,0.0,0.0,0.0,0.0,0.0,0.0,0.0,0.0,0.0,0.0,0.0,0.0,0.0,0.0,0.0,0.0,0.0,0.0,0.0,0.0,0.0,0.0,0.0,0.0,0.0,0.0,0.0,0.0,0.0,0.0,0.0,0.0,0.0,0.0,0.0,0.0,0.0,0.0,0.0,0.0,0.0,0.0,0.0,0.0,0.0,0.0,0.0,0.0,0.0,0.0,0.0,0.0,0.0,0.0,0.0,0.0,0.0,0.0,0.0,0.0,0.0,0.0,0.0,0.0,0.0,0.0,0.0,0.0,0.0,0.0,0.0,0.0,0.0,0.0,0.0,0.0,0.0,0.0,0.0,0.0,0.0,0.0,0.0,0.0,0.0,0.0,0.0,0.0,0.0,0.0,0.0,0.0,0.0,0.0,0.0,0.0,0.0,0.0,0.0,0.0,0.0,0.0,0.0,0.0,0.0,0.0,0.0,0.0,0.0,0.0,0.0,0.0,0.0,0.0,0.0,0.0,0.0,0.0,0.0,0.0,0.0,0.0,0.0,0.0,0.0,0.0,0.0,0.0,0.0,0.0,0.0,0.0,0.0,0.0,0.0,0.0,0.0,0.0,0.0,0.0,0.0,0.0,0.0,0.0,0.0,0.0,0.0,0.0,0.0,0.0,0.0,0.0,0.0,0.0,0.0,0.0,0.0,0.0,0.0,0.0,0.0,0.0,0.0,0.0,0.0,0.0,0.0,0.0,0.0,0.0,0.0,0.0,0.0,0.0,0.0,0.0,0.0,0.0,0.0,0.0,0.0,0.0,0.0,0.0,0.0,0.0,0.0,0.0,0.0,0.0,0.0,0.0,0.0,0.0,0.0,0.0,0.0,0.0,0.0,0.0,0.0,0.0,0.0,0.0,0.0,0.0,0.0,0.0,0.0,0.0,0.0,0.0,0.0,0.0,0.0,0.0,0.0,0.0,0.0,0.0,0.0,0.0,0.0,0.0,0.0,0.0,0.0,0.0,0.0,0.0,0.0,0.0,0.0,0.0,0.0,0.0,0.0,0.0,0.0,0.0,0.0,0.0,0.0,0.0,0.0,0.0,0.0,0.0,0.0,0.0,0.0,0.0,0.0,0.0,0.0,0.0,0.0,0.0,0.0,0.0,0.0,0.0,0.0,0.0,0.0,0.0,0.0,0.0,0.0,0.0,0.0,0.0,0.0,0.0,0.0,0.0,0.0,0.0,0.0,0.0,0.0,0.0,0.0,0.0,0.0,0.0,0.0,0.0,0.0,0.0,0.0,0.0,0.0,0.0,0.0,0.0,0.0,0.0,0.0,0.0,0.0,0.0,0.0,0.0,0.0,0.0,0.0,0.0,0.0,0.0,0.0,0.0,0.0,0.0,0.0,0.0,0.0,0.0,0.0,0.0,0.0,0.0,0.0,0.0,0.0,0.0,0.0,0.0,0.0,0.0,0.0,0.0,0.0,0.0,0.0,0.0,0.0,0.0,0.0,0.0,0.0,0.0,0.0,0.0,0.0,0.0,0.0,0.0,0.0,0.0,0.0,0.0,0.0,0.0,0.0,0.0,0.0,0.0,0.0,0.0,0.0,0.0,0.0,0.0,0.0,0.0,0.0,0.0,0.0,0.0,0.0,0.0,0.0,0.0,0.0,0.0,0.0,0.0,0.0,0.0,0.0,0.0,0.0,0.0,0.0,0.0,0.0,0.0,0.0,0.0,0.0,0.0,0.0,0.0,0.0,0.0,0.0,0.0,0.0,0.0,0.0,0.0,0.0,0.0,0.0,0.0,0.0,0.0,0.0,0.0,0.0,0.0,0.0,0.0,0.0,0.0,0.0,0.0,0.0,0.0,0.0,0.0,0.0,0.0,0.0,0.0,0.0,0.0,0.0,0.0,0.0,0.0,0.0,0.0,0.0,0.0,0.0,0.0,0.0,0.0,0.0,0.0,0.0,0.0,0.0,0.0,0.0,0.0,0.0,0.0,0.0,0.0,0.0,0.0,0.0,0.0,0.0,0.0,0.0,0.0,0.0,0.0,0.0,0.0,0.0,0.0,0.0,0.0,0.0,0.0,0.0,0.0,0.0,0.0,0.0,0.0,0.0,0.0,0.0,0.0,0.0,0.0,0.0,0.0,0.0,0.0,0.0,0.0,0.0,0.0,0.0,0.0,0.0,0.0,0.0,0.0,0.0,0.0,0.0,0.0,0.0,0.0,0.0,0.0,0.0,0.0,0.0,0.0,0.0,0.0,0.0,0.0,0.0,0.0,0.0,0.0,0.0,0.0,0.0,0.0,0.0,0.0,0.0,0.0,0.0,0.0,0.0,0.0,0.0,0.0,0.0,0.0,0.0,0.0,0.0,0.0,0.0,0.0,0.0,0.0,0.0,0.0,0.0,0.0,0.0,0.0,0.0,0.0,0.0,0.0,0.0,0.0,0.0,0.0,0.0,0.0,0.0,0.0,0.0,0.0,0.0,0.0,0.0,0.0,0.0,0.0,0.0,0.0,0.0,0.0,0.0,0.0,0.0,0.0,0.0,0.0,0.0,0.0,0.0,0.0,0.0,0.0,0.0,0.0,0.0,0.0,0.0,0.0,0.0,0.0,0.0,0.0,0.0,0.0,0.0,0.0,0.0,0.0,0.0,0.0,0.0,0.0,0.0,0.0,0.0,0.0,0.0,0.0,0.0,0.0,0.0,0.0,0.0,0.0,0.0,0.0,0.0,0.0,0.0,0.0,0.0,0.0,0.0,0.0,0.0,0.0,0.0,0.0,0.0,0.0,0.0,0.0,0.0,0.0,0.0,0.0,0.0,0.0,0.0,0.0,0.0,0.0,0.0,0.0,0.0,0.0,0.0,0.0,0.0,0.0,0.0,0.0,0.0,0.0,0.0,0.0,0.0,0.0,0.0,0.0,0.0,0.0,0.0,0.0,0.0,0.0,0.0,0.0,0.0,0.0,0.0,0.0,0.0,0.0,0.0,0.0,0.0,0.0,0.0,0.0,0.0,0.0,0.0,0.0,0.0,0.0,0.0,0.0,0.0,0.0,0.0,0.0,0.0,0.0,0.0,0.0,0.0,0.0,0.0,0.0,0.0,0.0,0.0,0.0,0.0,0.0,0.0,0.0,0.0,0.0,0.0,0.0,0.0,0.0,0.0,0.0,0.0,0.0,0.0,0.0,0.0,0.0,0.0,0.0,0.0,0.0,0.0,0.0,0.0,0.0,0.0,0.0,0.0,0.0,0.0,0.0,0.0,0.0,0.0,0.0,0.0,0.0,0.0,0.0,0.0,0.0,0.0,0.0,0.0,0.0,0.0,0.0,0.0,0.0,0.0,0.0,0.0,0.0,0.0,0.0,0.0,0.0,0.0,0.0,0.0,0.0,0.0,0.0,0.0,0.0,0.0,0.0,0.0,0.0,0.0,0.0,0.0,0.0,0.0,0.0,0.0,0.0,0.0,0.0,0.0,0.0,0.0,0.0,0.0,0.0,0.0,0.0,0.0,0.0,0.0,0.0,0.0,0.0,0.0,0.0,0.0,0.0,0.0,0.0,0.0,0.0,0.0,0.0,0.0,0.0,0.0,0.0,0.0,0.0,0.0,0.0,0.0,0.0,0.0,0.0,0.0,0.0,0.0,0.0,0.0,0.0,0.0,0.0,0.0,0.0,0.0,0.0,0.0,0.0,0.0,0.0,0.0,0.0,0.0,0.0,0.0,0.0,0.0,0.0,0.0,0.0,0.0,0.0,0.0,0.0,0.0,0.0,0.0,0.0,0.0,0.0,0.0,0.0,0.0,0.0,0.0,0.0,0.0,0.0,0.0,0.0,0.0,0.0,0.0,0.0,0.0,0.0,0.0,0.0,0.0,0.0,0.0,0.0,0.0,0.0,0.0,0.0,0.0,0.0,0.0,0.0,0.0,0.0,0.0,0.0,0.0,0.0,0.0,0.0,0.0,0.0,0.0,0.0,0.0,0.0,0.0,0.0,0.0,0.0,0.0,0.0,0.0,0.0,0.0,0.0,0.0,0.0,0.0,0.0,0.0,0.0,0.0,0.0,0.0,0.0,0.0,0.0,0.0,0.0,0.0,0.0,0.0,0.0,0.0,0.0,0.0,0.0,0.0,0.0,0.0,0.0,0.0,0.0,0.0,0.0,0.0,0.0,0.0,0.0,0.0,0.0,0.0,0.0,0.0,0.0,0.0,0.0,0.0,0.0,0.0,0.0,0.0,0.0,0.0,0.0,0.0,0.0,0.0,0.0,0.0,0.0,0.0,0.0,0.0,0.0,0.0,0.0,0.0,0.0,0.0,0.0,0.0,0.0,0.0,0.0,0.0,0.0,0.0,0.0,0.0,0.0,0.0,0.0,0.0,0.0,0.0,0.0,0.0,0.0,0.0,0.0,0.0,0.0,0.0,0.0,0.0,0.0,0.0,0.0,0.0,0.0,0.0,0.0,0.0,0.0,0.0,0.0,0.0,0.0,0.0,0.0,0.0,0.0,0.0,0.0,0.0,0.0,0.0,0.0,0.0,0.0,0.0,0.0,0.0,0.0,0.0,0.0,0.0,0.0,0.0,0.0,0.0,0.0,0.0,0.0,0.0,0.0,0.0,0.0,0.0,0.0,0.0,0.0,0.0,0.0,0.0,0.0,0.0,0.0,0.0,0.0,0.0,0.0,0.0,0.0,0.0,0.0,0.0,0.0,0.0,0.0,0.0,0.0,0.0,0.0,0.0,0.0,0.0,0.0,0.0,0.0,0.0,0.0,0.0,0.0,0.0,0.0,0.0,0.0,0.0,0.0,0.0,0.0,0.0,0.0,0.0,0.0,0.0,0.0,0.0,0.0,0.0,0.0,0.0,0.0,0.0,0.0,0.0,0.0,0.0,0.0,0.0,0.0,0.0,0.0,0.0,0.0,0.0,0.0,0.0,0.0,0.0,0.0,0.0,0.0,0.0,0.0,0.0,0.0,0.0,0.0,0.0,0.0,0.0,0.0,0.0,0.0,0.0,0.0,0.0,0.0,0.0,0.0,0.0,0.0,0.0,0.0,0.0,0.0,0.0,0.0,0.0,0.0,0.0,0.0,0.0,0.0,0.0,0.0,0.0,0.0,0.0,0.0,0.0,0.0,0.0,0.0,0.0,0.0,0.0,0.0,0.0,0.0,0.0,0.0,0.0,0.0,0.0,0.0,0.0,0.0,0.0,0.0,0.0,0.0,0.0,0.0,0.0,0.0,0.0,0.0,0.0,0.0,0.0,0.0,0.0,0.0,0.0,0.0,0.0,0.0,0.0,4.061,0.0,0.0,0.0,0.0,0.0,0.0,0.0,0.0,0.0,0.0,0.0,0.0,0.0,0.0,0.0,0.0,0.0,0.0,0.0,0.0,0.0,0.0,0.0,0.0,0.0,0.0,0.0,0.0,0.0,0.0,0.0,0.0,0.0,0.0,0.0,0.0,0.0,0.0,0.0,0.0,0.0,0.0,0.0,0.0,0.0,0.0,0.0,0.0,0.0,0.0,0.0,0.0,0.0,0.0,0.0,0.0,0.0,0.0,0.0,0.0,0.0,0.0,0.0,0.0,0.0,0.0,0.0,0.0,0.0,0.0,0.0,0.0,0.0,0.0,0.0,0.0,0.0,0.0,0.0,0.0,0.0,0.0,0.0,0.0,0.0,0.0,0.0,0.0,0.0,0.0,0.0,0.0,0.0,0.0,0.0,0.0,0.0,0.0,0.0,0.0,0.0,0.0,0.0,0.0,0.0,0.0,0.0,0.0,0.0,0.0,0.0,0.0,0.0,0.0,0.0,0.0,4.0928,0.0,0.0,0.0,0.0,0.0,0.0,0.0,0.0,0.0,0.0,0.0,0.0,0.0,0.0,0.0,0.0,0.0,0.0,0.0,0.0,0.0,0.0,0.0,0.0,0.0,0.0,0.0,0.0,0.0,0.0,0.0,0.0,0.0,0.0,0.0,0.0,0.0,0.0,0.0,0.0,0.0,0.0,0.0,0.0,0.0,0.0,0.0,0.0,0.0,0.0,0.0,0.0,0.0,0.0,0.0,0.0,0.0,0.0,0.0,0.0,0.0,0.0,0.0,0.0,0.0,0.0,0.0,0.0,0.0,0.0,0.0,0.0,0.0,0.0,0.0,0.0,0.0,0.0,0.0,0.0,0.0,0.0,0.0,0.0,0.0,0.0,0.0,0.0,0.0,0.0,0.0,0.0,0.0,0.0,0.0,0.0,0.0,0.0,0.0,0.0,0.0,0.0,0.0,0.0,0.0,0.0,0.0,0.0,4.2552,4.2614,4.2442,4.2442,4.2847,4.3502,4.2939,4.2939,4.3196,4.1798,0.0,0.0,0.0,0.0,0.0,0.0,0.0,0.0,0.0,0.0,0.0,0.0,0.0,0.0,0.0,0.0,0.0,0.0,0.0,0.0,0.0,0.0,0.0,0.0,0.0,0.0,0.0,0.0,0.0,0.0,0.0,0.0,0.0,0.0,0.0,0.0,0.0,0.0,4.0301,4.0455,4.0489,4.0489,0.0,0.0,0.0,0.0,0.0,0.0,0.0,0.0,0.0,0.0,0.0,0.0,0.0,0.0,0.0,0.0,0.0,0.0,0.0,0.0,0.0,0.0,0.0,0.0,0.0,0.0,0.0,0.0,0.0,0.0,0.0,0.0,0.0,0.0,0.0,0.0,0.0,0.0,0.0,0.0,0.0,0.0,0.0,0.0,4.1949,4.1393,0.0,0.0,0.0,0.0,0.0,0.0,0.0,0.0,0.0,0.0,0.0,0.0,0.0,4.1965,4.2269,4.2847,4.3229,4.3317,4.3989,4.4281,4.4253,4.4253,4.431,4.4412,4.4355,0.0,4.3259,4.307,0.0,0.0,0.0,0.0,0.0,0.0,0.0,0.0,0.0,0.0,0.0,0.0,0.0,0.0,0.0,0.0,0.0,0.0,0.0,0.0,0.0,0.0,0.0,0.0,0.0,0.0,0.0,0.0,0.0,0.0,0.0,0.0,0.0,0.0,0.0,0.0,3.9535,4.0146,4.0489,4.0489,4.0489,4.0489,4.0489,4.0489,4.0489,4.0489,0.0,0.0,0.0,0.0,0.0,0.0,0.0,0.0,0.0,0.0,0.0,0.0,0.0,0.0,0.0,0.0,0.0,0.0,0.0,0.0,0.0,0.0,0.0,0.0,0.0,0.0,0.0,0.0,0.0,0.0,0.0,0.0,0.0,0.0,0.0,0.0,0.0,0.0,0.0,4.1344,4.1509,4.1343,4.1026,4.0755,0.0,0.0,0.0,0.0,0.0,0.0,0.0,0.0,0.0,4.2814,4.2769,4.3,4.3575,4.3873,4.4064,4.4105,4.444,4.4542,4.444,4.444,4.4384,4.4315,4.4315,4.4138,4.3873,4.3873,4.335,4.2583,0.0,0.0,0.0,0.0,4.1981,4.177,0.0,0.0,0.0,0.0,0.0,0.0,0.0,0.0,0.0,0.0,0.0,0.0,0.0,0.0,0.0,3.5453,0.0,0.0,0.0,0.0,0.0,0.0,0.0,0.0,0.0,0.0,0.0,0.0,4.0231,4.0489,4.0489,4.0489,4.0489,4.0489,4.0489,4.0489,4.0489,4.0489,4.0489,0.0,0.0,0.0,0.0,0.0,0.0,0.0,0.0,0.0,0.0,0.0,0.0,0.0,0.0,0.0,0.0,0.0,0.0,0.0,0.0,0.0,0.0,0.0,0.0,0.0,0.0,0.0,0.0,0.0,0.0,0.0,0.0,0.0,0.0,0.0,0.0,0.0,0.0,4.1294,4.1525,4.1327,4.1329,4.1229,0.0,0.0,0.0,0.0,0.0,0.0,4.2583,4.2473,4.2814,4.3735,4.3663,4.3931,4.4598,4.4615,4.4615,4.4615,4.4615,4.4542,4.4367,4.4367,4.4281,4.4155,4.4155,4.4196,4.4253,4.4281,4.4018,4.3562,4.37,4.3003,4.2093,4.305,4.3066,4.2679,0.0,0.0,0.0,0.0,0.0,0.0,0.0,0.0,0.0,0.0,0.0,0.0,0.0,0.0,3.6531,3.7295,3.7396,3.7434,0.0,0.0,0.0,0.0,0.0,0.0,0.0,0.0,0.0,4.0455,4.0489,4.0489,4.0489,4.0489,4.0489,4.0489,4.0489,4.0489,4.0489,4.0489,4.0489,4.0489,0.0,0.0,0.0,0.0,0.0,0.0,0.0,0.0,0.0,0.0,0.0,0.0,0.0,0.0,0.0,0.0,0.0,0.0,0.0,0.0,0.0,0.0,0.0,0.0,0.0,0.0,0.0,0.0,0.0,0.0,0.0,0.0,0.0,0.0,0.0,0.0,0.0,0.0,0.0,4.1459,4.2411,0.0,0.0,0.0,0.0,4.2237,4.2269,4.2629,4.3423,4.3436,4.3781,4.4514,4.4542,4.4542,4.4615,4.4615,4.4615,4.4615,4.4615,4.4598,4.457,4.457,4.4485,4.431,4.431,4.4224,4.4126,4.4253,4.4265,4.4179,4.3562,4.3078,4.2754,4.2816,4.274,4.2679,0.0,0.0,0.0,0.0,0.0,0.0,0.0,0.0,0.0,0.0,0.0,0.0,0.0,3.6525,3.7381,3.7686,3.8287,3.845,3.7913,0.0,0.0,0.0,0.0,0.0,0.0,0.0,4.0489,4.0489,4.0489,4.0489,4.0489,4.0489,4.0489,4.0489,4.0489,4.0489,4.0489,4.0489,4.0489,4.0489,4.0489,4.0489,0.0,0.0,0.0,0.0,0.0,0.0,0.0,0.0,0.0,0.0,0.0,0.0,0.0,0.0,0.0,0.0,0.0,0.0,0.0,0.0,0.0,0.0,0.0,0.0,0.0,0.0,0.0,0.0,0.0,0.0,0.0,0.0,0.0,0.0,0.0,0.0,0.0,4.2046,4.2754,0.0,4.2363,4.263,4.2909,4.3075,4.3499,4.3902,4.4179,4.4207,4.4338,4.4598,4.4615,4.4615,4.4615,4.4615,4.4615,4.4615,4.4615,4.4542,4.4395,4.4298,4.4241,4.4184,4.4068,4.4068,4.4097,4.4155,4.4184,4.4155,4.3818,4.3611,4.3476,4.3369,4.3279,4.3265,0.0,0.0,0.0,0.0,0.0,0.0,0.0,0.0,0.0,0.0,0.0,3.6168,3.6405,3.7564,3.8436,3.8694,3.9305,3.9463,3.8928,0.0,0.0,0.0,0.0,0.0,0.0,4.0231,4.0489,4.0489,4.0489,4.0489,4.0489,4.0749,4.0715,4.0489,4.0749,4.0715,4.0489,4.0489,4.0489,4.0489,4.0489,4.0489,4.0489,0.0,0.0,0.0,0.0,0.0,0.0,0.0,0.0,0.0,0.0,0.0,0.0,0.0,0.0,0.0,0.0,0.0,0.0,0.0,0.0,0.0,0.0,0.0,0.0,0.0,0.0,0.0,0.0,0.0,0.0,0.0,0.0,0.0,0.0,0.0,4.3047,4.2363,4.3139,4.3456,4.2769,4.332,4.3785,4.3869,4.431,4.457,4.4497,4.4497,4.4615,4.4857,4.4845,4.4946,4.524,4.5216,4.5187,4.5187,4.5187,4.5084,4.498,4.488,4.4821,4.4745,4.4656,4.4627,4.464,4.4419,4.4302,4.4286,4.4069,4.3956,4.3898,4.3763,4.3658,4.3598,0.0,0.0,0.0,0.0,0.0,0.0,0.0,0.0,0.0,0.0,3.6175,3.7011,3.8774,3.9182,3.9657,4.042,4.0489,4.0489,4.0489,4.0489,0.0,0.0,0.0,0.0,4.0489,4.0489,4.0489,4.0489,4.0489,4.0489,4.0524,4.1176,4.1142,4.0524,4.1209,4.1158,4.0489,4.0524,4.0524,4.0489,4.0489,4.0489,4.0489,0.0,0.0,0.0,0.0,0.0,0.0,0.0,0.0,0.0,0.0,0.0,0.0,0.0,0.0,0.0,0.0,0.0,0.0,0.0,0.0,0.0,0.0,0.0,0.0,0.0,0.0,0.0,0.0,0.0,0.0,0.0,0.0,0.0,4.2157,4.2785,4.3078,4.2458,4.368,4.431,4.3601,4.4179,4.4615,4.4598,4.4632,4.453,4.4344,4.436,4.4714,4.5408,4.5312,4.563,4.6498,4.6368,4.631,4.631,4.631,4.631,4.631,4.631,4.6185,4.6012,4.6012,4.5937,4.5763,4.505,4.4752,4.4685,4.4236,4.3998,4.3898,4.3898,4.3763,4.3598,0.0,0.0,0.0,0.0,0.0,0.0,0.0,0.0,0.0,0.0,3.642,3.7491,3.8275,3.9441,4.0266,4.0489,4.0489,4.0489,4.0489,0.0,0.0,0.0,0.0,0.0,4.0489,4.0489,4.0489,4.0489,4.0489,4.0489,4.0524,4.1176,4.1142,4.0558,4.1706,4.1591,4.0524,4.1024,4.0922,4.0489,4.0489,4.0489,4.0489,0.0,0.0,0.0,0.0,0.0,0.0,0.0,0.0,0.0,0.0,0.0,0.0,0.0,0.0,0.0,0.0,0.0,0.0,0.0,0.0,0.0,0.0,0.0,0.0,0.0,0.0,0.0,0.0,0.0,0.0,0.0,0.0,4.3363,4.3136,4.3634,4.4018,4.396,4.4207,4.4367,4.431,4.4468,4.4542,4.4395,4.502,4.5267,4.4959,4.5698,4.6085,4.6036,4.6109,4.621,4.6337,4.6324,4.631,4.631,4.631,4.631,4.631,4.6138,4.6138,4.6216,4.606,4.5982,4.5934,4.5735,4.559,4.5398,4.4198,4.3717,4.3687,4.3687,4.3658,4.3598,0.0,0.0,0.0,0.0,0.0,0.0,0.0,0.0,0.0,0.0,3.7206,3.8281,3.9008,3.9952,4.0489,4.0489,4.0489,4.0489,4.0489,0.0,0.0,0.0,0.0,4.0489,4.0489,4.0489,4.0489,4.0489,4.0489,4.0489,4.0524,4.1176,4.1142,4.0558,4.1901,4.1917,4.0956,4.1641,4.1525,4.0938,4.0938,4.0938,4.0904,4.0627,4.0938,4.1492,4.1492,4.2204,4.3217,4.3858,0.0,0.0,0.0,0.0,0.0,0.0,0.0,0.0,0.0,0.0,0.0,0.0,0.0,0.0,0.0,0.0,0.0,0.0,0.0,0.0,0.0,0.0,0.0,0.0,4.3588,4.3972,4.3972,4.4236,4.4468,4.4587,4.4514,4.4587,4.5026,4.497,4.5048,4.5334,4.5732,4.5896,4.5744,4.6206,4.6562,4.6745,4.6698,4.6801,4.7104,4.7058,4.6995,4.6995,4.6995,4.6995,4.6995,4.6899,4.6899,0.0,4.6899,4.6851,4.6802,4.6518,4.6339,0.0,0.0,0.0,0.0,0.0,4.3598,4.3598,0.0,0.0,0.0,0.0,0.0,0.0,0.0,0.0,0.0,0.0,0.0,3.9066,4.0351,4.0489,4.0489,4.0489,4.0489,4.0489,0.0,0.0,0.0,4.0489,4.0489,4.0489,4.0489,4.0489,4.0489,4.0489,4.0489,4.0489,4.0524,4.1176,4.1142,4.0558,4.1901,4.2078,4.1426,4.2109,4.2046,4.1492,4.1492,4.1459,4.1327,4.0802,4.1024,4.1608,4.1706,4.2141,4.2914,4.4233,0.0,0.0,0.0,0.0,0.0,0.0,0.0,0.0,0.0,0.0,0.0,0.0,0.0,0.0,0.0,0.0,0.0,0.0,0.0,0.0,0.0,0.0,0.0,0.0,4.4064,4.4542,4.4559,4.4626,4.4671,4.4615,4.4654,4.4976,4.5635,4.5609,4.5854,4.6705,4.6542,4.6471,4.6572,0.0,0.0,0.0,0.0,4.7418,4.8163,4.8049,4.8001,4.8001,4.8001,4.8001,4.8001,4.8001,4.8001,4.8001,4.8001,4.8001,4.7951,4.7289,4.7023,4.6941,4.6113,4.5384,4.4738,4.4108,4.3847,4.383,0.0,0.0,0.0,0.0,0.0,0.0,0.0,0.0,0.0,3.7281,3.7625,3.8465,4.0301,4.0489,4.0489,4.0489,4.0489,4.0489,0.0,0.0,4.0489,4.0489,4.0489,4.0489,4.0489,4.0489,4.0489,4.0489,4.0489,4.0489,4.0524,4.1176,4.1142,4.0558,4.1901,4.1836,4.0749,4.1393,4.1608,4.1492,4.1492,4.1192,4.0749,4.1142,4.1706,4.2395,4.2923,4.3453,4.4006,4.445,4.499,4.5479,4.5618,0.0,0.0,0.0,0.0,0.0,0.0,0.0,0.0,0.0,0.0,0.0,0.0,0.0,0.0,0.0,0.0,0.0,0.0,0.0,0.0,4.3964,4.4167,4.431,4.4212,4.4803,4.5086,4.4654,4.498,4.5373,4.5657,4.6064,4.6346,4.6527,4.6935,4.7149,4.7056,4.7684,4.7973,4.7883,4.7931,4.7965,4.8033,4.8001,4.8001,4.8001,0.0,0.0,4.8001,4.8001,4.8001,4.8001,4.8001,4.8001,4.7984,4.7852,4.7785,4.7653,4.6311,4.5698,4.5566,4.5433,4.5367,4.5284,0.0,0.0,0.0,0.0,0.0,0.0,0.0,0.0,0.0,0.0,3.751,3.8428,3.9651,4.0141,4.0401,4.0401,4.047,0.0,0.0,4.0489,4.0489,4.0489,4.0489,4.0489,4.0489,4.0489,4.0489,4.0489,4.0489,4.0489,4.0489,4.0836,4.0802,4.0558,4.1558,4.1624,4.1057,4.1706,4.1981,4.1981,4.1981,4.1608,4.1091,4.1739,4.2205,4.2583,4.3257,4.3676,4.3972,4.4338,4.4648,4.4848,4.4778,4.5001,4.5274,0.0,0.0,0.0,0.0,0.0,0.0,0.0,0.0,0.0,0.0,0.0,0.0,0.0,0.0,4.4126,0.0,0.0,4.4196,4.4196,4.4253,4.4416,4.4716,4.5144,4.5315,4.5031,4.5638,4.6262,4.6604,4.6838,4.7099,4.7469,4.7699,4.7822,4.787,4.8172,4.826,4.8115,4.8115,4.8049,4.8001,4.8001,4.8001,4.8001,4.8001,4.8001,4.8001,4.8001,4.8001,4.8001,4.8001,4.8001,4.8001,4.8001,4.8001,4.7934,4.7189,4.6676,4.6295,4.593,4.5798,4.5748,0.0,0.0,0.0,0.0,0.0,0.0,0.0,0.0,0.0,0.0,3.7242,3.8167,3.8745,3.9523,4.0071,0.0,0.0,0.0,0.0,4.047,4.0455,4.0489,4.047,4.0455,4.0489,4.0489,4.0489,4.0489,4.0489,4.0489,4.0489,4.0489,4.0489,4.0524,4.1057,4.1309,4.1343,4.1901,4.2173,4.2269,4.23,4.1965,4.1525,4.2205,4.2489,4.2614,4.3393,4.3647,4.3676,4.4121,4.4253,4.4196,4.4097,4.4056,4.4039,4.401,4.401,0.0,0.0,0.0,0.0,0.0,0.0,0.0,0.0,0.0,4.3956,4.4172,4.4155,4.4184,4.4281,4.4196,4.4155,4.4196,4.4342,4.4615,4.519,4.5555,4.5799,4.5736,4.6439,4.7106,4.7544,4.7622,4.7864,4.8482,4.8324,4.826,4.842,4.826,4.8163,4.8163,4.8066,4.8001,4.8001,4.8001,4.8001,4.8001,4.8001,4.8001,4.8001,4.8001,4.8001,4.8001,4.8001,4.8001,4.8001,4.8001,4.8001,4.8001,4.8001,4.7636,4.704,4.6444,4.6228,4.6195,0.0,0.0,0.0,0.0,0.0,0.0,0.0,0.0,0.0,0.0,0.0,0.0,0.0,0.0,0.0,0.0,0.0,0.0,4.0455,4.0401,4.0366,4.0489,4.0401,4.0366,4.0489,4.0489,4.0489,4.0489,4.0489,4.0489,4.0489,4.0489,4.0489,4.0489,4.0593,4.0612,4.0612,4.0681,4.099,4.1459,4.1542,4.1492,4.1409,4.2078,4.2395,4.2645,4.3798,4.4121,4.4023,4.4097,4.4039,4.3956,4.3927,4.3927,4.3898,4.3717,0.0,4.3658,4.3658,4.3793,4.3927,4.3898,4.3898,4.3956,0.0,0.0,4.4015,4.4457,4.4412,4.4281,4.431,4.431,4.4196,4.3969,4.4443,4.4817,4.4793,4.6155,4.713,4.7022,4.7214,4.7404,4.7594,4.8075,4.8431,4.8467,4.8324,4.8195,4.8227,4.8082,4.8033,4.8033,4.8001,4.8001,4.8001,4.8001,4.8001,4.8001,4.8001,4.8001,4.8001,4.8001,4.8001,4.8001,4.8001,4.8001,4.8001,4.8001,4.8001,4.8001,4.8001,4.7951,4.7868,4.7785,4.7752,4.7653,0.0,0.0,0.0,0.0,0.0,0.0,0.0,0.0,0.0,0.0,0.0,0.0,0.0,0.0,0.0,0.0,0.0,0.0,3.9666,3.9945,4.0137,4.0207,4.0277,4.0347,4.0366,4.047,4.0489,4.0489,4.0489,4.0489,4.0489,4.0489,4.0489,4.0505,4.0436,4.0366,4.0366,4.0261,4.0578,4.1142,4.1194,4.1176,4.1194,4.1885,4.1917,4.1851,4.3567,4.3863,0.0,0.0,4.426,4.3868,4.3763,4.3734,4.3704,4.3628,4.3598,0.0,4.3734,4.3839,0.0,0.0,4.3898,4.3927,4.4056,4.3969,4.4015,4.4355,4.4298,4.4212,4.4281,4.4184,4.4161,0.0,4.4717,4.5186,4.6036,4.6855,4.7531,4.7903,4.7905,4.7873,4.7952,4.8172,4.8292,4.8212,4.8195,4.8179,4.8082,4.8115,4.8082,4.8001,4.8001,4.8001,4.8001,4.8001,4.8001,4.8001,4.8001,4.8001,4.8001,4.8001,4.8001,4.8001,4.8001,4.8001,4.8001,4.8001,4.8001,4.8001,4.8001,4.8001,4.8001,4.8001,4.8001,4.7968,0.0,0.0,0.0,0.0,0.0,0.0,0.0,0.0,0.0,0.0,0.0,0.0,0.0,0.0,0.0,0.0,0.0,0.0,0.0,3.9002,3.9343,3.9646,3.9523,3.9702,4.0207,4.0091,4.0161,4.042,4.042,4.0455,4.0489,4.0489,4.0489,4.0436,4.0331,4.0277,4.0207,4.0066,4.0246,4.065,4.0684,4.0684,4.0703,4.1162,4.1187,4.1181,4.3057,4.3261,0.0,0.0,4.4087,4.3539,4.3598,4.3598,4.3598,4.3598,4.3598,4.3628,4.3763,0.0,0.0,4.3822,4.3868,4.3898,4.3898,4.3868,4.391,4.4196,4.4155,4.4068,4.4184,4.4027,4.4101,4.4723,4.5023,4.5604,4.6932,4.7408,4.7803,4.8289,4.826,4.8195,4.8147,4.8163,4.813,4.8001,4.8115,4.8147,4.8001,4.8082,4.8115,4.8001,4.8001,4.8001,4.8001,4.8001,4.8001,4.8001,4.8001,4.8001,4.8001,4.8001,4.8001,4.8001,4.8001,4.8001,4.8001,4.8001,4.8001,4.8001,4.8001,4.8001,4.8001,4.8001,4.8001,4.8001,0.0,0.0,0.0,0.0,0.0,0.0,0.0,0.0,0.0,0.0,0.0,0.0,0.0,0.0,0.0,0.0,0.0,0.0,0.0,3.7396,3.7738,3.8701,3.7814,3.813,3.996,3.9205,3.9262,4.0312,4.0312,4.0366,4.0489,4.0489,4.0436,4.0312,4.0312,4.0207,4.0011,4.0011,3.991,3.9753,3.996,3.991,3.9753,3.9753,4.0145,4.0885,4.2234,0.0,0.0,0.0,4.32,4.2741,4.3402,4.3598,0.0,4.3598,4.3598,0.0,0.0,0.0,4.3868,4.3658,4.3763,4.3898,4.3898,4.3763,4.3717,4.4039,4.3998,4.3898,4.3898,4.3898,4.4072,4.4633,4.5315,4.603,4.6792,4.7633,4.8146,4.8033,4.8115,4.8147,0.0,4.8115,4.813,4.8001,4.8115,4.8147,4.8001,4.8001,4.8001,4.8001,4.8001,4.8001,4.8001,4.8001,4.8001,4.8001,4.8001,4.8001,4.8001,4.8001,4.8001,4.8001,4.8001,4.8001,4.8001,4.8001,4.8001,4.8001,4.8001,4.8001,4.8001,4.8001,4.8001,4.8001,0.0,0.0,0.0,0.0,0.0,0.0,0.0,0.0,0.0,0.0,0.0,0.0,0.0,0.0,0.0,0.0,0.0,0.0,0.0,3.6816,3.7151,3.7496,3.7319,3.751,3.813,3.7979,3.8078,3.8428,3.8972,3.9262,3.9334,3.9895,4.0137,4.0101,3.9945,3.9874,3.9803,3.9676,3.9553,3.9517,3.9553,3.9553,3.9562,4.0012,4.0312,4.0686,0.0,0.0,0.0,0.0,0.0,0.0,4.227,0.0,0.0,4.3462,0.0,0.0,0.0,0.0,4.3687,4.3628,4.3658,4.3704,4.3704,4.3658,4.3658,4.391,4.3822,4.3883,4.4467,4.4079,4.4251,4.5881,4.5947,4.6228,4.7454,4.7948,4.8147,4.8001,4.8115,0.0,0.0,0.0,0.0,4.8001,4.8033,4.8066,4.8001,4.8001,4.8001,4.8001,4.8001,4.8001,4.8001,4.8001,4.8001,4.8001,4.8001,4.8001,4.8001,4.8001,4.8001,4.8001,4.8001,4.8001,4.8001,4.8001,4.8001,4.8001,4.8001,4.8001,4.8001,4.8001,4.8001,4.8001,0.0,0.0,0.0,0.0,0.0,0.0,0.0,0.0,0.0,0.0,0.0,0.0,0.0,0.0,0.0,0.0,0.0,0.0,0.0,0.0,3.6148,3.6464,3.6306,3.6503,3.7074,3.6933,3.7011,3.7396,3.789,3.819,3.8279,3.9133,3.9487,3.9451,3.961,3.9646,3.9589,3.9445,3.9388,3.9403,3.9679,3.9768,3.9843,4.0502,4.0891,0.0,0.0,0.0,0.0,0.0,0.0,0.0,0.0,0.0,0.0,0.0,0.0,0.0,0.0,4.3598,4.3598,4.3598,4.3598,4.3598,4.3598,4.3598,4.3628,4.3763,4.3687,4.3761,4.4314,4.4202,4.4556,4.6228,4.6328,4.6609,4.7835,4.8082,4.8082,4.8001,4.8099,4.8082,0.0,0.0,0.0,4.8001,4.8001,4.8001,4.8001,4.8001,4.8001,4.8001,4.8001,4.8001,4.8001,4.8001,4.8001,4.8001,4.8001,4.8001,4.8001,4.8001,4.8001,4.8001,4.8001,4.8001,4.8001,4.8001,4.8001,4.8001,4.8001,4.8001,4.8001,4.8001,4.8001,4.8001,0.0,0.0,0.0,0.0,0.0,0.0,0.0,0.0,0.0,0.0,0.0,0.0,0.0,0.0,0.0,0.0,0.0,0.0,0.0,0.0,0.0,3.5588,3.484,3.5142,3.6724,3.6002,3.6082,3.7049,3.7088,3.7242,3.7448,3.8242,3.8502,3.8376,3.9241,3.9517,3.9337,3.9388,3.9403,3.9493,4.0142,4.0427,4.0516,4.119,0.0,0.0,0.0,0.0,0.0,0.0,0.0,0.0,0.0,0.0,0.0,0.0,0.0,4.3598,4.3598,4.3598,4.3598,4.3598,4.3598,4.3598,4.3598,4.3598,4.3598,4.3598,4.3598,4.3615,0.0,0.0,4.4903,4.5715,4.6411,4.7106,4.7885,4.8001,4.8001,0.0,0.0,0.0,0.0,0.0,0.0,4.8001,0.0,4.8001,4.8001,4.8001,4.8001,4.8001,4.8001,4.8001,4.8001,4.8001,4.8001,4.8001,4.8001,4.8001,4.8001,4.8001,4.8001,4.8001,4.8001,4.8001,4.8001,4.8001,4.8001,4.8001,4.8001,4.8001,4.8001,4.8001,4.8001,4.8001,0.0,0.0,0.0,0.0,0.0,0.0,0.0,0.0,0.0,0.0,0.0,0.0,0.0,0.0,0.0,0.0,0.0,0.0,0.0,0.0,0.0,0.0,0.0,0.0,0.0,0.0,0.0,0.0,0.0,3.6096,3.6175,3.6958,3.7343,0.0,3.8196,3.8538,3.8553,3.9156,3.9709,4.0172,0.0,4.0696,4.1205,0.0,0.0,0.0,0.0,0.0,0.0,0.0,0.0,0.0,0.0,0.0,4.271,0.0,0.0,4.3598,4.3598,4.3598,4.3598,4.3598,4.3598,4.3598,4.3598,4.3598,4.3598,4.3598,4.3598,4.3764,0.0,0.0,0.0,4.6311,4.6311,0.0,4.7819,4.8001,0.0,4.8001,0.0,4.8001,4.8001,4.8001,0.0,0.0,4.8001,4.8001,4.8001,4.8001,4.8001,4.8001,4.8001,4.8001,4.8001,4.8001,4.8001,4.8001,4.8001,4.8001,4.8001,4.8001,4.8001,4.8001,4.8001,4.8001,4.8001,4.8001,4.8001,4.8001,4.8001,4.8001,4.8001,4.8001,4.8001,4.8001,0.0,0.0,0.0,0.0,0.0,0.0,0.0,0.0,0.0,0.0,0.0,0.0,0.0,0.0,0.0,0.0,0.0,0.0,0.0,0.0,0.0,0.0,0.0,0.0,0.0,0.0,0.0,0.0,0.0,0.0,0.0,3.5963,3.6385,3.6425,3.7271,3.763,3.7668,0.0,0.0,0.0,0.0,0.0,0.0,0.0,0.0,0.0,0.0,0.0,0.0,0.0,0.0,4.1554,4.2366,4.2617,4.271,4.3402,0.0,4.3598,4.3598,4.3598,4.3598,4.3598,4.3598,4.3598,4.3598,4.3598,4.3598,4.3598,4.3598,0.0,0.0,0.0,0.0,0.0,0.0,0.0,4.7835,4.8001,4.8001,0.0,4.8001,0.0,4.8001,4.8001,4.8001,0.0,4.8001,4.8001,4.8001,4.8001,4.8001,4.8001,4.8001,4.8001,4.8001,4.8001,4.8001,4.8001,4.8001,4.8001,4.8001,4.8001,4.8001,4.8001,0.0,4.8001,4.8001,4.8001,4.8001,4.8001,4.8001,4.8001,4.8001,4.8001,4.8001,4.7968,0.0,0.0,0.0,0.0,0.0,0.0,0.0,0.0,0.0,0.0,0.0,0.0,0.0,0.0,0.0,0.0,0.0,0.0,0.0,0.0,0.0,0.0,0.0,0.0,0.0,0.0,0.0,0.0,0.0,0.0,0.0,0.0,0.0,0.0,0.0,0.0,0.0,0.0,0.0,0.0,0.0,0.0,0.0,0.0,0.0,0.0,0.0,0.0,0.0,0.0,4.1945,4.1554,4.2366,4.2617,4.271,4.3402,4.3598,4.3598,4.3598,4.3598,4.3598,4.3598,4.3598,4.3598,4.3598,4.3598,4.3598,4.3598,0.0,4.3598,4.3598,4.4125,4.4821,4.5649,0.0,4.704,4.7885,4.8001,4.8001,4.8001,4.8001,4.8001,4.8001,4.8001,4.8001,4.8001,4.8001,4.8001,4.8001,4.8001,4.8001,4.8001,4.8001,4.8001,4.8001,4.8001,4.8001,4.8001,4.8001,4.8001,4.8001,4.8001,4.8001,4.8001,4.8001,0.0,4.8001,4.8001,4.8001,4.8001,4.8001,4.8001,4.8001,4.8001,4.7935,4.7737,0.0,0.0,0.0,0.0,0.0,0.0,0.0,0.0,0.0,0.0,0.0,0.0,0.0,0.0,0.0,0.0,0.0,0.0,0.0,0.0,0.0,0.0,0.0,0.0,0.0,0.0,0.0,0.0,0.0,0.0,0.0,0.0,0.0,0.0,0.0,0.0,0.0,0.0,0.0,0.0,0.0,0.0,0.0,0.0,0.0,0.0,0.0,0.0,0.0,0.0,4.1945,4.1554,4.2366,4.2617,4.271,4.3402,4.3598,4.3598,4.3598,4.3598,4.3598,4.3598,4.3598,4.3598,4.3598,4.3598,0.0,0.0,0.0,4.3598,4.3598,4.3698,0.0,4.5582,0.0,0.0,0.0,0.0,4.8001,0.0,0.0,0.0,0.0,0.0,0.0,0.0,0.0,4.8001,4.8001,4.8001,4.8001,4.8001,4.8001,4.8001,4.8001,4.8001,4.8001,4.8001,4.8001,4.8001,4.8001,4.8001,4.8001,4.8001,4.8001,0.0,4.8001,4.8001,4.8001,4.8001,4.8001,4.8001,4.8001,4.8001,4.7588,4.6999,0.0,0.0,0.0,0.0,0.0,0.0,0.0,0.0,0.0,0.0,0.0,0.0,0.0,0.0,0.0,0.0,0.0,0.0,0.0,0.0,0.0,0.0,0.0,0.0,0.0,0.0,0.0,0.0,0.0,0.0,0.0,0.0,0.0,0.0,0.0,0.0,0.0,0.0,0.0,0.0,0.0,0.0,0.0,0.0,0.0,0.0,0.0,0.0,0.0,0.0,4.1608,4.1072,4.2237,4.2617,4.271,4.3402,4.3372,4.3066,4.3066,4.3066,4.3066,4.3066,4.3325,4.3598,4.3598,0.0,0.0,0.0,0.0,4.4175,4.4175,0.0,0.0,0.0,0.0,0.0,0.0,0.0,0.0,0.0,0.0,0.0,0.0,0.0,0.0,0.0,0.0,4.8001,4.8001,4.8001,4.8001,4.8001,4.8001,4.8001,4.8001,4.8001,4.8001,4.8001,4.8001,4.8001,4.8001,4.8001,4.8001,4.8001,4.8001,0.0,4.8001,4.8001,4.8001,4.8001,4.8001,4.8001,4.7968,4.7521,4.7118,4.6673,0.0,0.0,0.0,0.0,0.0,0.0,0.0,0.0,0.0,0.0,0.0,0.0,0.0,0.0,0.0,0.0,0.0,0.0,0.0,0.0,0.0,0.0,0.0,0.0,0.0,0.0,0.0,0.0,0.0,0.0,0.0,0.0,0.0,0.0,0.0,0.0,0.0,0.0,0.0,0.0,0.0,0.0,0.0,0.0,0.0,0.0,0.0,0.0,0.0,0.0,4.1373,4.0766,4.1952,4.227,4.2285,4.2943,4.2772,4.2412,4.2554,4.2475,4.2443,4.2741,4.3113,4.3432,4.3568,4.3598,0.0,0.0,4.4307,4.4738,4.4903,0.0,0.0,0.0,0.0,0.0,0.0,0.0,0.0,0.0,0.0,0.0,0.0,0.0,0.0,0.0,0.0,0.0,4.8001,4.8001,4.8001,4.8001,4.8001,4.8001,4.8001,4.8001,4.8001,4.8001,4.8001,4.8001,4.8001,4.8001,4.8001,4.8001,4.8001,0.0,0.0,4.8001,4.8001,4.8001,4.8001,4.8001,4.7886,4.7118,4.6708,4.6359,0.0,0.0,0.0,0.0,0.0,0.0,0.0,0.0,0.0,0.0,0.0,0.0,0.0,0.0,0.0,0.0,0.0,0.0,0.0,0.0,0.0,0.0,0.0,0.0,0.0,0.0,0.0,0.0,0.0,0.0,0.0,0.0,0.0,0.0,0.0,0.0,0.0,0.0,0.0,0.0,0.0,0.0,0.0,0.0,0.0,0.0,0.0,0.0,0.0,0.0,0.0,4.1099,4.1428,4.1148,4.0805,4.1492,0.0,0.0,4.2412,4.2126,4.1917,4.3204,4.3113,4.2851,4.3462,0.0,0.0,4.4456,4.4638,4.4887,4.5566,4.5698,0.0,0.0,0.0,0.0,0.0,0.0,0.0,0.0,0.0,0.0,0.0,0.0,0.0,0.0,0.0,0.0,4.8001,4.8001,4.8001,4.8001,4.8001,4.8001,4.8001,4.8001,4.8001,4.8001,4.8001,4.8001,4.8001,4.8001,4.8001,4.8001,4.8001,0.0,0.0,4.8001,4.8001,4.8001,4.8001,4.8001,4.7886,4.7118,4.6359,4.5697,0.0,0.0,0.0,0.0,0.0,0.0,0.0,0.0,0.0,0.0,0.0,0.0,0.0,0.0,0.0,0.0,0.0,0.0,0.0,0.0,0.0,0.0,0.0,0.0,0.0,0.0,0.0,0.0,0.0,0.0,0.0,0.0,0.0,0.0,0.0,0.0,0.0,0.0,0.0,0.0,0.0,0.0,0.0,0.0,0.0,0.0,0.0,0.0,0.0,0.0,0.0,0.0,4.131,4.0671,0.0,0.0,4.1127,4.0805,4.1227,4.1142,4.1042,4.1591,4.2158,4.2793,4.3498,0.0,0.0,4.5202,4.5715,4.6096,4.6411,4.646,4.646,0.0,0.0,0.0,0.0,0.0,0.0,0.0,0.0,0.0,0.0,0.0,0.0,0.0,0.0,0.0,4.8001,4.8001,4.8001,4.8001,4.8001,4.8001,4.8001,4.8001,4.8001,4.8001,4.8001,4.8001,4.8001,4.8001,4.8001,4.7968,4.7488,0.0,0.0,4.6997,4.6878,4.722,4.6809,4.6601,4.6531,4.5701,4.5243,4.4849,0.0,0.0,0.0,0.0,0.0,0.0,0.0,0.0,0.0,0.0,0.0,0.0,0.0,0.0,0.0,0.0,0.0,0.0,0.0,0.0,0.0,0.0,0.0,0.0,0.0,0.0,0.0,0.0,0.0,0.0,0.0,0.0,0.0,0.0,0.0,0.0,0.0,0.0,0.0,0.0,0.0,0.0,0.0,0.0,0.0,0.0,0.0,0.0,0.0,0.0,0.0,0.0,0.0,0.0,0.0,0.0,4.0393,3.997,4.0374,4.0355,4.0366,4.1224,4.2039,4.2912,0.0,0.0,4.5218,4.5963,4.6527,4.6957,4.7189,4.7222,4.7156,0.0,0.0,0.0,0.0,0.0,0.0,0.0,0.0,0.0,0.0,0.0,0.0,0.0,0.0,0.0,4.8001,4.8001,4.8001,4.8001,4.8001,4.8001,4.8001,4.8001,4.8001,4.8001,4.8001,4.8001,4.8001,4.8001,4.8001,4.7968,4.7152,0.0,0.0,4.6234,4.602,4.6429,4.5897,4.5697,4.5588,4.4812,4.451,4.4358,0.0,0.0,0.0,0.0,0.0,0.0,0.0,0.0,0.0,0.0,0.0,0.0,0.0,0.0,0.0,0.0,0.0,0.0,0.0,0.0,0.0,0.0,0.0,0.0,0.0,0.0,0.0,0.0,0.0,0.0,0.0,0.0,0.0,0.0,0.0,0.0,0.0,0.0,0.0,0.0,0.0,0.0,0.0,0.0,0.0,0.0,0.0,0.0,0.0,0.0,0.0,0.0,0.0,0.0,0.0,0.0,3.9265,3.9307,4.0235,3.9985,4.0117,4.2941,4.3118,4.3146,0.0,0.0,4.5997,4.6742,4.6891,4.7123,4.7852,4.7984,4.7752,4.7023,0.0,0.0,0.0,0.0,0.0,0.0,0.0,0.0,0.0,0.0,0.0,0.0,0.0,0.0,4.8001,4.8001,4.8001,4.8001,4.8001,4.8001,4.8001,4.8001,4.8001,4.8001,4.8001,4.8001,4.8001,4.8001,4.8001,0.0,0.0,0.0,0.0,4.602,4.5697,4.5697,4.5697,4.5697,4.5588,4.4812,4.451,4.4358,0.0,0.0,0.0,0.0,0.0,0.0,0.0,0.0,0.0,0.0,0.0,0.0,0.0,0.0,0.0,0.0,0.0,0.0,0.0,0.0,0.0,0.0,0.0,0.0,0.0,0.0,0.0,0.0,0.0,0.0,0.0,0.0,0.0,0.0,0.0,0.0,0.0,0.0,0.0,0.0,0.0,0.0,0.0,0.0,0.0,0.0,0.0,0.0,0.0,0.0,0.0,0.0,0.0,0.0,0.0,0.0,0.0,0.0,4.0912,4.0815,4.0801,4.1887,4.2299,4.2931,4.4649,0.0,4.611,4.739,4.7653,4.7719,4.7968,4.8001,4.7918,4.7686,4.7222,0.0,0.0,0.0,0.0,0.0,0.0,0.0,0.0,0.0,0.0,0.0,0.0,0.0,4.8001,4.8001,4.8001,4.8001,4.8001,4.8001,4.8001,4.8001,4.8001,4.8001,4.8001,4.8001,4.7968,4.7438,4.7186,0.0,0.0,0.0,0.0,4.4624,4.4373,4.4812,4.4259,4.4066,4.4043,4.3771,4.3669,4.363,0.0,0.0,0.0,0.0,0.0,0.0,0.0,0.0,0.0,0.0,0.0,0.0,0.0,0.0,0.0,0.0,0.0,0.0,0.0,0.0,0.0,0.0,0.0,0.0,0.0,0.0,0.0,0.0,0.0,0.0,0.0,0.0,0.0,0.0,0.0,0.0,0.0,0.0,0.0,0.0,0.0,0.0,0.0,0.0,0.0,0.0,0.0,0.0,0.0,0.0,0.0,0.0,0.0,0.0,0.0,0.0,0.0,0.0,0.0,4.1118,4.123,4.1821,4.2399,0.0,0.0,0.0,4.648,4.7721,4.8001,4.8001,4.8001,4.8001,4.8001,4.8001,4.7388,0.0,0.0,0.0,0.0,0.0,0.0,0.0,0.0,0.0,0.0,0.0,0.0,0.0,4.8001,4.8001,4.8001,4.8001,4.8001,4.8001,4.8001,4.8001,4.8001,4.8001,4.7704,4.7555,4.7521,4.6759,4.6394,0.0,0.0,0.0,0.0,4.3849,4.3591,4.4004,4.3488,4.329,4.329,4.329,4.329,4.329,0.0,0.0,0.0,0.0,0.0,0.0,0.0,0.0,0.0,0.0,0.0,0.0,0.0,0.0,0.0,0.0,0.0,0.0,0.0,0.0,0.0,0.0,0.0,0.0,0.0,0.0,0.0,0.0,3.6956,3.6956,3.7413,0.0,0.0,0.0,0.0,0.0,0.0,0.0,0.0,0.0,0.0,0.0,0.0,0.0,0.0,0.0,0.0,0.0,0.0,0.0,0.0,0.0,0.0,0.0,0.0,0.0,0.0,0.0,0.0,0.0,0.0,0.0,0.0,0.0,0.0,0.0,0.0,0.0,4.8001,4.8001,4.8001,4.8001,4.8001,4.8001,4.7388,0.0,0.0,0.0,0.0,0.0,0.0,0.0,0.0,0.0,0.0,0.0,0.0,0.0,4.8001,4.8001,4.8001,4.8001,4.8001,4.8001,4.8001,4.8001,4.8001,4.8001,4.722,4.6862,4.6777,4.6056,4.566,0.0,0.0,0.0,0.0,4.3591,4.329,4.329,4.329,4.329,4.329,4.329,4.329,4.329,0.0,0.0,0.0,0.0,0.0,0.0,0.0,0.0,0.0,0.0,0.0,0.0,0.0,0.0,0.0,0.0,0.0,0.0,0.0,0.0,0.0,0.0,0.0,0.0,0.0,0.0,0.0,3.7201,3.6687,3.6628,3.6862,3.6581,0.0,0.0,0.0,0.0,0.0,0.0,0.0,0.0,0.0,0.0,0.0,0.0,0.0,0.0,3.958,3.969,0.0,0.0,0.0,0.0,0.0,0.0,0.0,0.0,4.1986,0.0,0.0,0.0,0.0,0.0,0.0,0.0,0.0,0.0,0.0,0.0,0.0,4.8001,4.8001,4.8001,4.8001,4.8001,4.7388,0.0,0.0,0.0,0.0,0.0,0.0,0.0,0.0,0.0,0.0,0.0,0.0,4.8001,4.8001,4.8001,4.8001,4.8001,4.8001,4.8001,4.8001,4.8001,4.8001,4.8001,4.782,4.7421,4.6777,4.6056,4.5369,0.0,0.0,0.0,4.3551,4.3369,4.329,4.329,4.329,4.329,4.329,4.329,4.329,4.329,0.0,0.0,0.0,0.0,0.0,0.0,0.0,0.0,0.0,0.0,0.0,0.0,0.0,0.0,0.0,0.0,0.0,0.0,0.0,0.0,0.0,0.0,0.0,0.0,0.0,0.0,0.0,0.0,0.0,3.6499,0.0,0.0,0.0,0.0,0.0,0.0,0.0,0.0,0.0,0.0,0.0,0.0,0.0,0.0,0.0,0.0,3.9177,3.9265,0.0,3.9228,3.8995,3.8782,0.0,0.0,0.0,0.0,4.1705,0.0,0.0,0.0,0.0,0.0,0.0,0.0,0.0,0.0,0.0,0.0,0.0,0.0,4.8001,0.0,0.0,4.8001,4.7669,0.0,0.0,0.0,0.0,0.0,0.0,0.0,0.0,0.0,0.0,0.0,0.0,4.8001,4.8001,4.8001,4.8001,4.8001,4.8001,4.8001,4.8001,4.8001,4.782,4.7454,4.71,4.6515,4.5737,4.4946,4.4358,0.0,0.0,0.0,4.329,4.329,4.329,4.329,4.329,4.329,4.329,4.329,4.329,4.329,0.0,0.0,0.0,0.0,0.0,0.0,0.0,0.0,0.0,0.0,0.0,0.0,0.0,0.0,0.0,0.0,0.0,0.0,0.0,0.0,0.0,0.0,0.0,0.0,0.0,0.0,0.0,0.0,0.0,0.0,0.0,0.0,0.0,0.0,0.0,0.0,0.0,0.0,0.0,0.0,0.0,0.0,0.0,0.0,0.0,0.0,0.0,0.0,0.0,3.9301,3.8958,3.859,3.9156,0.0,0.0,0.0,0.0,0.0,0.0,0.0,0.0,0.0,0.0,0.0,0.0,0.0,0.0,0.0,0.0,0.0,0.0,0.0,0.0,0.0,0.0,0.0,0.0,0.0,0.0,0.0,0.0,0.0,0.0,0.0,0.0,0.0,0.0,4.8001,4.8001,4.7886,4.782,4.782,4.7704,4.7638,4.7638,4.7754,4.7471,4.6777,4.604,4.5295,4.4488,4.3771,4.3409,4.329,0.0,0.0,4.329,4.329,4.329,4.329,4.329,4.329,4.329,4.329,4.329,4.329,0.0,0.0,0.0,0.0,0.0,0.0,0.0,0.0,0.0,0.0,0.0,0.0,0.0,0.0,0.0,0.0,0.0,0.0,0.0,0.0,0.0,0.0,0.0,0.0,0.0,0.0,0.0,0.0,0.0,0.0,3.6452,3.6405,3.6405,0.0,0.0,0.0,0.0,0.0,0.0,0.0,0.0,0.0,0.0,0.0,0.0,0.0,0.0,0.0,0.0,3.9141,3.8848,3.8553,3.8797,0.0,0.0,0.0,0.0,0.0,4.2511,4.3418,0.0,0.0,0.0,0.0,0.0,0.0,0.0,0.0,0.0,0.0,0.0,0.0,0.0,0.0,0.0,0.0,0.0,0.0,0.0,0.0,0.0,0.0,0.0,0.0,0.0,0.0,0.0,4.8001,4.8001,4.7337,4.6999,4.6999,4.6375,4.6056,4.6056,4.6689,4.6931,4.6777,4.604,4.5295,4.4488,4.4373,4.3966,4.329,0.0,4.329,4.329,4.329,4.329,4.329,4.329,4.329,4.329,4.329,4.329,4.329,0.0,0.0,0.0,0.0,0.0,0.0,0.0,0.0,0.0,0.0,0.0,0.0,0.0,0.0,0.0,0.0,0.0,0.0,0.0,0.0,0.0,0.0,0.0,0.0,0.0,0.0,0.0,0.0,0.0,3.6499,3.6405,3.6405,3.6405,3.6405,0.0,0.0,0.0,0.0,0.0,0.0,0.0,0.0,0.0,0.0,0.0,0.0,0.0,0.0,0.0,0.0,3.8848,3.8553,3.887,0.0,0.0,0.0,0.0,0.0,4.2075,4.3289,0.0,0.0,0.0,0.0,0.0,0.0,0.0,0.0,0.0,0.0,0.0,0.0,0.0,0.0,0.0,0.0,0.0,0.0,0.0,0.0,0.0,0.0,0.0,0.0,0.0,0.0,0.0,0.0,4.7371,4.6999,4.6604,4.6218,4.5877,4.5697,4.5697,4.5608,4.5556,4.5556,4.5206,4.4624,4.3849,4.3849,4.3669,4.329,0.0,4.329,4.329,4.329,4.329,4.329,4.329,4.329,4.329,4.329,4.329,4.329,0.0,0.0,0.0,0.0,0.0,0.0,0.0,0.0,0.0,0.0,0.0,0.0,0.0,0.0,0.0,0.0,0.0,0.0,0.0,0.0,0.0,0.0,0.0,0.0,0.0,0.0,0.0,3.6709,3.6675,3.6534,3.6405,3.6405,3.6405,0.0,0.0,0.0,0.0,0.0,0.0,0.0,0.0,0.0,0.0,0.0,0.0,0.0,0.0,0.0,0.0,0.0,0.0,0.0,0.0,0.0,0.0,0.0,4.0584,4.1249,4.1666,4.3136,4.4536,0.0,0.0,0.0,0.0,0.0,0.0,0.0,0.0,0.0,0.0,0.0,0.0,0.0,0.0,0.0,0.0,0.0,0.0,0.0,0.0,0.0,0.0,0.0,0.0,0.0,0.0,0.0,4.6846,4.6638,4.6182,4.5442,4.5258,4.5147,4.5147,4.451,4.4297,4.451,4.4297,4.3888,4.329,4.329,4.329,4.329,4.329,4.329,4.329,4.329,4.329,4.329,4.329,4.329,4.329,4.329,4.329,4.329,0.0,0.0,0.0,0.0,0.0,0.0,0.0,0.0,0.0,0.0,0.0,0.0,0.0,0.0,0.0,0.0,0.0,0.0,0.0,0.0,0.0,0.0,0.0,0.0,0.0,3.7261,3.7015,3.6709,3.6499,3.6405,3.6405,3.6405,3.6405,0.0,0.0,0.0,0.0,0.0,0.0,0.0,0.0,0.0,0.0,0.0,0.0,0.0,0.0,0.0,0.0,0.0,0.0,0.0,0.0,0.0,0.0,0.0,4.0129,4.0704,4.1713,4.3302,4.482,4.543,0.0,0.0,0.0,0.0,0.0,0.0,0.0,0.0,0.0,0.0,0.0,0.0,0.0,0.0,0.0,0.0,0.0,0.0,0.0,0.0,0.0,0.0,0.0,0.0,0.0,0.0,4.6846,4.6147,4.5405,4.4624,4.3849,4.3472,4.3472,4.3409,4.3771,4.4472,4.3732,4.3369,4.329,4.329,4.329,4.329,4.329,4.329,4.329,4.329,4.329,4.329,4.329,4.329,4.329,4.329,4.329,4.329,0.0,0.0,0.0,0.0,0.0,0.0,0.0,0.0,0.0,0.0,0.0,0.0,0.0,0.0,0.0,0.0,0.0,0.0,0.0,0.0,0.0,0.0,0.0,3.7854,3.7749,3.7505,3.7214,3.6956,3.6593,3.6405,3.6405,3.6405,0.0,0.0,0.0,0.0,0.0,0.0,0.0,0.0,0.0,0.0,0.0,0.0,0.0,0.0,0.0,0.0,0.0,0.0,3.887,0.0,0.0,0.0,0.0,0.0,3.9972,4.0502,4.0882,4.2827,4.4768,0.0,0.0,0.0,0.0,0.0,0.0,0.0,0.0,0.0,0.0,0.0,0.0,0.0,0.0,0.0,0.0,0.0,0.0,0.0,0.0,0.0,0.0,0.0,0.0,0.0,0.0,0.0,4.6163,4.539,4.4601,4.3771,4.3448,4.329,4.329,4.329,4.3448,4.3732,4.3448,4.329,4.329,4.329,4.329,4.329,4.329,4.329,4.329,4.329,4.329,4.329,4.329,4.329,4.329,4.329,4.329,4.329,0.0,0.0,0.0,0.0,0.0,0.0,0.0,0.0,0.0,0.0,0.0,0.0,0.0,0.0,0.0,0.0,0.0,0.0,0.0,0.0,0.0,0.0,0.0,3.79,3.79,3.7551,3.7307,3.7214,3.6734,3.6452,3.6405,0.0,0.0,0.0,0.0,0.0,0.0,0.0,0.0,0.0,0.0,0.0,0.0,0.0,0.0,0.0,0.0,0.0,0.0,0.0,3.9017,3.9017,0.0,0.0,0.0,0.0,0.0,4.0816,4.1012,4.2874,0.0,0.0,0.0,0.0,0.0,0.0,0.0,0.0,0.0,0.0,0.0,0.0,0.0,0.0,0.0,0.0,0.0,0.0,0.0,0.0,0.0,0.0,0.0,0.0,0.0,0.0,0.0,0.0,0.0,4.5184,4.4396,4.3329,4.329,4.329,4.329,4.329,4.329,4.329,4.329,4.329,4.329,4.329,4.329,4.329,4.329,4.329,4.329,4.329,4.329,4.329,4.329,4.329,4.329,4.329,4.329,4.329,0.0,0.0,0.0,0.0,0.0,0.0,0.0,0.0,0.0,0.0,0.0,0.0,0.0,0.0,0.0,0.0,0.0,0.0,0.0,0.0,0.0,0.0,0.0,3.79,3.79,3.7366,3.7214,3.7505,3.6968,3.6581,3.6405,0.0,0.0,0.0,0.0,0.0,0.0,0.0,0.0,0.0,0.0,3.6956,0.0,0.0,0.0,0.0,0.0,0.0,0.0,0.0,3.8797,3.8819,0.0,0.0,0.0,0.0,4.0421,4.1703,4.2335,4.3614,0.0,0.0,0.0,0.0,0.0,0.0,0.0,0.0,0.0,0.0,0.0,0.0,0.0,0.0,0.0,0.0,0.0,0.0,0.0,0.0,0.0,0.0,0.0,0.0,0.0,0.0,0.0,0.0,0.0,4.566,4.4962,4.3369,4.329,4.329,4.329,4.329,4.329,4.329,4.329,4.329,4.329,4.329,4.329,4.329,4.329,4.329,4.329,4.329,4.329,4.329,4.329,4.329,4.329,4.329,4.329,4.329,0.0,0.0,0.0,0.0,0.0,0.0,0.0,0.0,0.0,0.0,0.0,0.0,0.0,0.0,0.0,0.0,0.0,0.0,0.0,0.0,0.0,0.0,0.0,0.0,0.0,0.0,3.7366,3.6747,3.6593,3.6452,0.0,0.0,0.0,3.6405,0.0,0.0,0.0,0.0,0.0,0.0,0.0,3.6956,0.0,0.0,0.0,0.0,0.0,0.0,0.0,0.0,0.0,0.0,0.0,0.0,0.0,3.9337,3.9688,4.0177,4.0911,0.0,0.0,0.0,0.0,0.0,0.0,0.0,0.0,0.0,0.0,0.0,0.0,0.0,0.0,0.0,0.0,0.0,0.0,0.0,0.0,0.0,0.0,0.0,0.0,0.0,0.0,0.0,0.0,0.0,0.0,4.4335,4.3771,4.3329,4.329,4.329,4.329,4.329,4.329,4.329,4.329,4.329,4.329,4.329,4.329,4.329,4.329,4.329,4.329,4.329,4.329,4.329,4.329,4.329,4.329,4.329,4.329,4.329,0.0,0.0,0.0,0.0,0.0,0.0,0.0,0.0,0.0,0.0,0.0,0.0,0.0,0.0,0.0,0.0,0.0,0.0,0.0,0.0,0.0,0.0,0.0,0.0,0.0,3.7749,3.732,0.0,0.0,0.0,0.0,0.0,0.0,3.6405,0.0,0.0,0.0,0.0,0.0,3.6405,3.6405,3.6722,3.7315,0.0,0.0,0.0,0.0,0.0,0.0,0.0,0.0,0.0,0.0,0.0,0.0,4.007,4.067,4.1324,4.2354,0.0,0.0,0.0,0.0,0.0,0.0,0.0,0.0,0.0,0.0,0.0,0.0,0.0,0.0,0.0,0.0,0.0,0.0,0.0,0.0,0.0,0.0,0.0,0.0,0.0,0.0,0.0,0.0,0.0,0.0,4.4028,4.363,4.329,4.329,4.329,4.329,4.329,4.329,4.329,4.329,4.329,4.329,4.329,4.329,4.329,4.329,4.329,4.329,4.329,4.329,4.329,4.329,4.329,4.329,4.329,4.329,4.329,0.0,0.0,0.0,0.0,0.0,0.0,0.0,0.0,0.0,0.0,0.0,0.0,0.0,0.0,0.0,0.0,0.0,0.0,0.0,0.0,0.0,0.0,0.0,0.0,0.0,0.0,0.0,0.0,0.0,0.0,0.0,0.0,3.6405,3.6405,0.0,3.6405,0.0,0.0,3.6405,3.6405,3.6405,3.6405,3.6581,3.8315,0.0,0.0,0.0,0.0,0.0,0.0,0.0,0.0,4.0248,0.0,3.9727,4.1077,4.2439,4.3799,0.0,0.0,0.0,0.0,0.0,0.0,0.0,0.0,0.0,0.0,0.0,0.0,0.0,0.0,0.0,0.0,0.0,0.0,0.0,0.0,0.0,0.0,0.0,0.0,0.0,0.0,0.0,0.0,0.0,0.0,0.0,4.4412,4.4066,4.3329,4.329,4.329,4.329,4.329,4.329,4.329,4.329,4.329,4.329,4.329,4.329,4.329,4.329,4.329,4.329,4.329,4.329,4.329,4.329,4.329,4.329,4.329,4.329,4.329,0.0,0.0,0.0,0.0,0.0,0.0,0.0,0.0,0.0,0.0,0.0,0.0,0.0,0.0,0.0,0.0,0.0,0.0,0.0,0.0,0.0,0.0,0.0,0.0,0.0,0.0,0.0,0.0,0.0,0.0,0.0,0.0,0.0,3.6405,0.0,3.6405,0.0,3.6405,3.6405,3.6405,3.6405,3.6405,3.6452,3.6849,3.7919,0.0,0.0,0.0,0.0,0.0,0.0,0.0,4.0834,4.0449,4.004,4.0521,4.1331,0.0,0.0,0.0,0.0,0.0,0.0,0.0,0.0,0.0,0.0,0.0,0.0,0.0,0.0,0.0,0.0,0.0,0.0,0.0,0.0,0.0,0.0,0.0,0.0,0.0,0.0,0.0,0.0,0.0,0.0,0.0,4.3591,4.3551,4.3472,4.329,4.329,4.329,4.329,4.329,4.329,0.0,4.329,4.329,4.329,4.329,4.329,4.329,4.329,4.329,4.329,4.329,4.329,4.329,4.329,4.329,4.329,4.329,4.329,4.329,0.0,0.0,0.0,0.0,0.0,0.0,0.0,0.0,0.0,0.0,0.0,0.0,0.0,0.0,0.0,0.0,0.0,0.0,0.0,0.0,0.0,0.0,0.0,0.0,0.0,0.0,0.0,0.0,0.0,0.0,0.0,0.0,0.0,0.0,0.0,3.6405,0.0,3.6405,3.6405,3.6405,3.6405,3.6405,3.6452,3.7049,0.0,0.0,0.0,0.0,0.0,0.0,0.0,0.0,0.0,0.0,4.0883,4.1654,4.1943,0.0,0.0,0.0,0.0,0.0,0.0,0.0,0.0,0.0,0.0,0.0,0.0,0.0,0.0,0.0,0.0,0.0,0.0,0.0,0.0,0.0,0.0,0.0,0.0,0.0,0.0,0.0,0.0,0.0,0.0,4.4143,4.3329,4.329,4.329,4.329,4.329,4.329,4.329,4.329,4.329,4.329,4.329,4.329,4.329,4.329,4.329,4.329,4.329,4.329,4.329,4.329,4.329,4.329,4.329,4.329,4.329,4.329,4.329,4.329,0.0,0.0,0.0,0.0,0.0,0.0,0.0,0.0,0.0,0.0,0.0,0.0,0.0,0.0,0.0,0.0,0.0,0.0,0.0,0.0,0.0,0.0,0.0,0.0,0.0,0.0,0.0,0.0,0.0,0.0,0.0,0.0,0.0,0.0,0.0,0.0,3.6452,3.6405,3.6405,3.6405,3.6405,3.6499,3.6769,0.0,0.0,0.0,0.0,0.0,0.0,4.297,0.0,0.0,0.0,0.0,4.1791,4.2984,0.0,0.0,0.0,0.0,0.0,0.0,0.0,0.0,0.0,0.0,0.0,0.0,0.0,0.0,0.0,0.0,0.0,0.0,0.0,0.0,0.0,0.0,0.0,0.0,0.0,0.0,0.0,0.0,0.0,0.0,0.0,4.3989,4.3329,4.329,4.329,4.329,4.329,4.329,4.329,4.329,4.329,4.329,4.329,4.329,4.329,4.329,4.329,4.329,4.329,4.329,4.329,4.329,4.329,4.329,4.329,4.329,4.329,4.329,4.329,4.329,0.0,0.0,0.0,0.0,0.0,0.0,0.0,0.0,0.0,0.0,0.0,0.0,0.0,0.0,0.0,0.0,0.0,0.0,0.0,0.0,0.0,0.0,0.0,0.0,0.0,0.0,0.0,0.0,0.0,0.0,0.0,0.0,0.0,0.0,0.0,0.0,0.0,3.6452,3.6405,3.6405,3.6405,3.6909,0.0,0.0,0.0,0.0,0.0,0.0,0.0,0.0,4.315,0.0,0.0,0.0,0.0,0.0,0.0,0.0,0.0,0.0,0.0,0.0,0.0,0.0,0.0,0.0,0.0,0.0,0.0,0.0,0.0,0.0,0.0,0.0,0.0,0.0,0.0,0.0,0.0,0.0,0.0,0.0,0.0,0.0,0.0,0.0,4.3448,4.3409,4.329,4.329,4.329,4.329,4.329,4.329,4.329,4.329,4.329,4.329,4.329,4.329,4.329,4.329,4.329,4.329,4.329,4.329,4.329,4.329,4.329,4.329,4.329,4.329,4.329,4.329,4.329,4.329,0.0,0.0,0.0,0.0,0.0,0.0,0.0,0.0,0.0,0.0,0.0,0.0,0.0,0.0,0.0,0.0,0.0,0.0,0.0,0.0,0.0,0.0,0.0,0.0,0.0,0.0,0.0,0.0,0.0,0.0,0.0,3.8509,3.7795,0.0,0.0,0.0,0.0,0.0,0.0,0.0,0.0,0.0,0.0,0.0,0.0,0.0,0.0,0.0,0.0,0.0,0.0,0.0,0.0,0.0,0.0,0.0,0.0,0.0,0.0,0.0,0.0,0.0,0.0,0.0,0.0,0.0,0.0,0.0,0.0,0.0,0.0,0.0,0.0,0.0,0.0,0.0,0.0,0.0,0.0,0.0,0.0,0.0,0.0,0.0,0.0,0.0,4.329,4.329,4.329,4.329,4.329,4.329,4.329,4.325,4.3115,4.325,4.329,4.329,4.329,4.329,4.329,4.329,4.329,4.329,4.329,4.329,4.329,4.329,4.329,4.329,4.329,4.329,4.329,4.3155,4.3115,4.3115,0.0,0.0,0.0,0.0,0.0,0.0,0.0,0.0,0.0,0.0,0.0,0.0,0.0,0.0,0.0,0.0,0.0,0.0,0.0,0.0,0.0,0.0,0.0,0.0,0.0,0.0,0.0,0.0,0.0,0.0,4.0304,3.9798,3.8988,0.0,3.742,0.0,0.0,0.0,0.0,0.0,0.0,0.0,0.0,0.0,0.0,0.0,0.0,0.0,0.0,0.0,0.0,0.0,0.0,0.0,0.0,0.0,0.0,0.0,0.0,0.0,0.0,0.0,0.0,0.0,0.0,0.0,0.0,0.0,0.0,0.0,0.0,0.0,0.0,0.0,0.0,0.0,0.0,0.0,0.0,0.0,0.0,0.0,0.0,0.0,0.0,0.0,4.329,4.329,4.329,4.329,4.329,4.329,4.329,4.325,4.3076,4.325,4.325,4.321,4.329,4.325,4.325,4.329,4.329,4.329,4.329,4.329,4.329,4.329,4.329,4.329,4.329,4.329,4.329,4.3076,4.2981,4.2996,0.0,0.0,0.0,0.0,0.0,0.0,0.0,0.0,0.0,0.0,0.0,0.0,0.0,0.0,0.0,0.0,0.0,0.0,0.0,0.0,0.0,0.0,0.0,0.0,0.0,0.0,0.0,0.0,0.0,0.0,4.0589,4.0546,4.0504,4.0332,3.8368,3.7353,3.7155,0.0,0.0,0.0,0.0,0.0,0.0,0.0,0.0,0.0,0.0,0.0,0.0,0.0,0.0,0.0,0.0,0.0,0.0,0.0,0.0,0.0,0.0,0.0,0.0,0.0,0.0,0.0,0.0,0.0,0.0,0.0,0.0,0.0,0.0,0.0,0.0,0.0,0.0,0.0,0.0,0.0,0.0,0.0,0.0,0.0,0.0,0.0,0.0,0.0,4.329,4.329,4.329,4.329,4.329,4.329,4.329,4.329,4.329,4.329,4.321,4.3036,4.321,4.321,4.3036,4.321,4.329,4.329,4.329,4.329,4.329,4.329,4.329,4.329,4.329,4.329,4.329,4.3076,4.2981,4.2996,0.0,0.0,0.0,0.0,0.0,0.0,0.0,0.0,0.0,0.0,0.0,0.0,0.0,0.0,0.0,0.0,0.0,0.0,0.0,0.0,0.0,0.0,0.0,0.0,0.0,0.0,0.0,0.0,0.0,4.2345,4.2304,4.1769,4.1505,4.1421,4.0087,3.9431,3.9373,3.9522,0.0,0.0,0.0,0.0,0.0,0.0,0.0,0.0,0.0,0.0,0.0,0.0,0.0,0.0,0.0,0.0,0.0,0.0,0.0,0.0,0.0,0.0,0.0,0.0,0.0,0.0,0.0,0.0,0.0,0.0,0.0,0.0,0.0,0.0,0.0,0.0,0.0,0.0,0.0,0.0,0.0,0.0,0.0,0.0,0.0,0.0,0.0,0.0,0.0,4.329,4.329,4.329,4.325,4.3115,4.3115,4.3115,4.3115,4.3115,4.3155,4.321,4.325,4.325,4.321,4.325,4.329,4.329,4.329,4.329,4.329,4.329,4.329,4.329,4.329,4.321,4.3076,4.2875,4.2729,4.2581,0.0,0.0,0.0,0.0,0.0,0.0,0.0,0.0,0.0,0.0,0.0,0.0,0.0,0.0,0.0,0.0,0.0,0.0,0.0,0.0,0.0,0.0,0.0,0.0,0.0,0.0,0.0,0.0,0.0,0.0,0.0,0.0,4.2456,4.2415,4.1796,0.0,0.0,0.0,0.0,3.9227,0.0,0.0,4.0774,0.0,0.0,0.0,0.0,0.0,0.0,0.0,0.0,0.0,0.0,0.0,0.0,0.0,0.0,0.0,0.0,0.0,0.0,0.0,0.0,0.0,0.0,0.0,0.0,0.0,0.0,0.0,0.0,0.0,0.0,0.0,0.0,0.0,0.0,0.0,0.0,0.0,0.0,0.0,0.0,0.0,0.0,0.0,0.0,0.0,4.329,4.325,4.3155,4.3115,4.3036,4.2981,4.2981,4.2981,4.3036,4.309,4.317,4.321,4.321,4.325,4.329,4.329,4.329,4.329,4.329,4.329,4.329,4.329,4.329,4.317,4.2996,4.2769,4.2581,4.2392,0.0,0.0,0.0,0.0,0.0,0.0,0.0,0.0,0.0,0.0,0.0,0.0,0.0,0.0,0.0,0.0,0.0,0.0,0.0,0.0,0.0,0.0,0.0,0.0,0.0,0.0,0.0,0.0,0.0,0.0,0.0,0.0,4.329,0.0,4.329,4.2193,4.029,0.0,4.029,4.0333,0.0,4.1782,4.2073,0.0,0.0,0.0,4.329,4.329,0.0,0.0,0.0,0.0,0.0,0.0,0.0,0.0,0.0,0.0,0.0,0.0,0.0,0.0,0.0,0.0,0.0,0.0,0.0,0.0,0.0,0.0,0.0,0.0,0.0,0.0,0.0,0.0,0.0,0.0,0.0,0.0,0.0,0.0,0.0,0.0,0.0,0.0,4.3115,4.3076,4.329,4.3115,4.3076,4.329,4.3076,4.2981,4.2981,4.2981,4.2915,4.2729,4.2915,4.2981,4.3036,4.321,4.329,4.329,4.329,4.329,4.329,4.329,4.329,4.329,4.3305,4.3155,4.2996,4.2769,4.2581,4.2392,0.0,0.0,0.0,0.0,0.0,0.0,0.0,0.0,0.0,0.0,0.0,0.0,0.0,0.0,0.0,0.0,0.0,0.0,0.0,0.0,0.0,0.0,0.0,0.0,0.0,0.0,0.0,0.0,0.0,0.0,0.0,0.0,0.0,0.0,4.329,4.2981,4.2426,4.2426,0.0,0.0,4.2371,4.2386,0.0,0.0,0.0,0.0,0.0,4.329,0.0,0.0,4.329,4.329,0.0,0.0,0.0,0.0,0.0,0.0,4.329,0.0,0.0,0.0,0.0,0.0,0.0,0.0,0.0,0.0,0.0,0.0,0.0,0.0,0.0,0.0,0.0,0.0,0.0,0.0,0.0,0.0,0.0,0.0,0.0,0.0,0.0,0.0,4.297,4.293,4.329,4.297,4.2809,4.285,4.2809,4.2769,4.2769,4.2915,4.3036,4.313,4.3036,4.3076,4.321,4.325,4.329,4.329,4.329,4.321,4.3076,4.3076,4.3155,4.325,4.297,4.285,4.2769,4.2541,4.2366,4.2175,0.0,0.0,0.0,0.0,0.0,0.0,0.0,0.0,0.0,0.0,0.0,0.0,0.0,0.0,0.0,0.0,0.0,0.0,0.0,0.0,0.0,0.0,0.0,0.0,0.0,0.0,0.0,0.0,0.0,0.0,0.0,0.0,0.0,0.0,0.0,0.0,0.0,0.0,0.0,0.0,4.2508,0.0,0.0,4.3036,4.329,0.0,0.0,0.0,4.329,4.329,4.329,0.0,0.0,0.0,0.0,0.0,0.0,0.0,0.0,0.0,0.0,0.0,0.0,0.0,4.3409,4.3991,4.426,0.0,0.0,0.0,0.0,0.0,0.0,0.0,0.0,0.0,0.0,0.0,0.0,0.0,0.0,0.0,0.0,4.2892,4.3076,4.329,4.2864,4.2703,4.305,4.2743,4.2703,4.293,4.2703,4.2622,4.2688,4.2729,4.285,4.305,4.2915,4.2955,4.317,4.325,4.325,4.3155,4.3155,4.3155,4.3115,4.2955,4.2996,4.3155,4.293,4.2769,4.2688,4.2459,4.2284,4.2092,0.0,0.0,0.0,0.0,0.0,0.0,0.0,0.0,0.0,0.0,0.0,0.0,0.0,0.0,0.0,0.0,0.0,0.0,0.0,0.0,0.0,0.0,0.0,0.0,0.0,0.0,0.0,0.0,0.0,0.0,0.0,0.0,0.0,0.0,0.0,0.0,0.0,0.0,0.0,4.321,4.2193,4.2412,0.0,0.0,4.329,0.0,4.329,4.329,4.329,4.329,4.329,0.0,0.0,0.0,0.0,0.0,4.329,0.0,0.0,0.0,0.0,0.0,0.0,0.0,4.329,4.3789,4.409,4.3418,0.0,0.0,0.0,0.0,0.0,0.0,0.0,0.0,0.0,0.0,0.0,0.0,0.0,0.0,4.323,4.3076,4.3036,4.325,4.2743,4.25,4.2688,4.25,4.2677,4.321,4.2703,4.2474,4.2648,4.25,4.2541,4.2729,4.2688,4.2809,4.3036,4.321,4.3155,4.2981,4.3036,4.3115,4.321,4.285,4.285,4.2996,4.2955,4.2835,4.2662,4.2433,4.2242,4.2092,0.0,0.0,0.0,0.0,0.0,0.0,0.0,0.0,0.0,0.0,0.0,0.0,0.0,0.0,0.0,0.0,0.0,0.0,0.0,0.0,0.0,0.0,0.0,0.0,0.0,0.0,0.0,0.0,0.0,0.0,0.0,0.0,0.0,0.0,0.0,0.0,0.0,0.0,0.0,4.329,4.3076,0.0,4.329,4.329,4.329,4.329,4.329,4.329,4.329,0.0,4.329,4.329,0.0,0.0,0.0,0.0,0.0,0.0,0.0,0.0,0.0,0.0,0.0,0.0,4.329,4.3043,4.2919,0.0,0.0,0.0,0.0,0.0,0.0,0.0,0.0,0.0,0.0,0.0,0.0,0.0,0.0,0.0,4.323,4.297,4.285,4.3036,4.2809,4.2662,4.2688,4.25,4.2514,4.2809,4.2541,4.2433,4.2474,4.2581,4.2729,4.2955,4.2769,4.289,4.325,4.3115,4.3036,4.3036,4.3155,4.309,4.2809,4.2915,4.2955,4.2996,4.2662,4.2514,4.2433,4.2242,4.2133,4.2092,0.0,0.0,0.0,0.0,0.0,0.0,0.0,0.0,0.0,0.0,0.0,0.0,0.0,0.0,0.0,0.0,0.0,0.0,0.0,0.0,0.0,0.0,0.0,0.0,0.0,0.0,0.0,0.0,0.0,0.0,0.0,0.0,0.0,0.0,0.0,0.0,0.0,0.0,4.329,4.329,4.329,0.0,4.329,4.329,4.329,4.329,4.329,4.329,4.329,4.329,4.329,0.0,0.0,4.329,4.329,0.0,4.329,4.329,0.0,0.0,0.0,4.329,0.0,0.0,0.0,4.309,4.294,4.323,0.0,0.0,0.0,0.0,0.0,0.0,0.0,0.0,0.0,0.0,0.0,0.0,0.0,0.0,4.3126,4.2769,4.2541,4.2541,4.2541,4.2541,4.2541,4.2351,4.2433,4.285,4.2474,4.2366,4.2541,4.2541,4.2648,4.2835,4.2729,4.285,4.3155,4.2955,4.2835,4.2835,4.297,4.289,4.2688,4.2795,4.2809,4.2688,4.2459,4.2392,4.2392,4.2175,4.2092,4.2051,0.0,0.0,0.0,0.0,0.0,0.0,0.0,0.0,0.0,0.0,0.0,0.0,0.0,0.0,0.0,0.0,0.0,0.0,0.0,0.0,0.0,0.0,0.0,4.2237,0.0,0.0,0.0,0.0,0.0,0.0,0.0,0.0,0.0,0.0,0.0,0.0,0.0,0.0,0.0,4.329,0.0,4.329,4.3329,4.3472,4.3512,4.3512,4.3512,4.3433,4.329,4.329,0.0,4.329,4.329,4.329,0.0,0.0,0.0,0.0,0.0,0.0,0.0,0.0,0.0,4.329,0.0,0.0,0.0,4.325,0.0,0.0,0.0,0.0,0.0,0.0,0.0,0.0,0.0,0.0,0.0,0.0,0.0,0.0,4.2955,4.2622,4.2366,4.2201,4.2284,4.2392,4.25,4.2242,4.2392,4.2996,4.2392,4.2284,4.2662,4.25,4.25,4.2662,4.2729,4.2795,4.2955,4.2769,4.2688,4.2688,4.2688,4.2688,4.2688,4.2662,4.2541,4.2392,4.2392,4.2392,4.231,4.2175,4.2092,4.1995,0.0,0.0,0.0,0.0,0.0,0.0,0.0,0.0,0.0,0.0,0.0,0.0,0.0,0.0,0.0,0.0,0.0,0.0,4.1769,0.0,0.0,0.0,0.0,0.0,4.317,0.0,0.0,0.0,0.0,0.0,0.0,0.0,0.0,0.0,4.329,0.0,0.0,0.0,4.329,0.0,4.329,4.329,0.0,4.4105,4.4358,4.4358,4.4358,4.3927,4.329,0.0,4.329,4.329,0.0,4.329,0.0,0.0,0.0,0.0,0.0,0.0,0.0,0.0,4.329,0.0,0.0,0.0,4.325,4.3076,0.0,0.0,0.0,0.0,0.0,0.0,0.0,0.0,0.0,0.0,0.0,0.0,0.0,0.0,0.0,4.2541,4.2459,4.2622,4.231,4.2351,4.2915,4.2392,4.2392,4.2996,4.2392,4.2216,4.2433,4.2581,4.2581,4.2433,4.2809,4.2875,4.2729,4.2688,4.2688,4.2688,4.2688,4.2688,4.2688,4.2514,4.2433,4.2392,4.2392,4.2284,4.2133,4.2092,4.2092,4.2092,0.0,0.0,0.0,0.0,0.0,0.0,0.0,0.0,0.0,0.0,0.0,0.0,0.0,0.0,0.0,0.0,0.0,4.2304,0.0,0.0,0.0,0.0,0.0,0.0,0.0,0.0,0.0,0.0,4.329,0.0,0.0,0.0,0.0,0.0,4.329,0.0,4.3966,0.0,0.0,0.0,0.0,0.0,0.0,4.4373,4.451,4.4548,4.5036,4.4662,4.4082,0.0,4.4373,0.0,0.0,0.0,0.0,0.0,0.0,0.0,0.0,0.0,0.0,0.0,0.0,0.0,0.0,0.0,4.329,0.0,0.0,0.0,0.0,0.0,0.0,0.0,0.0,0.0,0.0,0.0,0.0,0.0,0.0,0.0,0.0,0.0,0.0,0.0,4.2242,4.2242,4.2607,4.2325,4.231,4.2795,4.2351,4.2325,4.2729,4.2622,4.2541,4.2581,4.2729,4.2769,4.2703,4.2581,4.2581,4.2688,4.2581,4.2541,4.25,4.2433,4.231,4.2242,4.2242,4.2175,4.2092,4.2092,4.1717,4.124,0.0,0.0,0.0,0.0,0.0,0.0,0.0,0.0,0.0,0.0,0.0,0.0,4.199,4.2196,0.0,0.0,0.0,4.329,0.0,0.0,4.329,0.0,0.0,0.0,0.0,0.0,0.0,0.0,0.0,0.0,0.0,0.0,0.0,0.0,0.0,4.3732,4.4472,0.0,0.0,4.4472,4.4105,4.4434,4.5132,4.5132,4.5132,4.5206,4.5789,4.5499,4.4924,4.5515,4.5295,0.0,4.5515,0.0,0.0,0.0,0.0,0.0,4.3708,0.0,0.0,0.0,0.0,0.0,0.0,0.0,0.0,0.0,0.0,0.0,0.0,0.0,0.0,0.0,0.0,0.0,0.0,0.0,0.0,0.0,0.0,0.0,0.0,0.0,0.0,4.2541,4.2284,4.2242,4.2541,4.2284,4.2284,4.2688,4.2325,4.2351,4.2915,4.2581,4.2459,4.2622,4.2729,4.2703,4.2541,4.2541,4.2581,4.2622,4.2474,4.2392,4.2392,4.2366,4.2242,4.2092,4.2092,4.1912,4.1675,4.1675,4.1395,4.0916,0.0,4.3988,0.0,0.0,0.0,0.0,0.0,0.0,0.0,0.0,0.0,0.0,0.0,0.0,0.0,0.0,0.0,4.329,4.329,0.0,4.329,0.0,0.0,4.329,0.0,0.0,0.0,0.0,0.0,0.0,0.0,0.0,0.0,0.0,0.0,4.3732,4.451,4.4472,4.4488,4.4548,4.5332,4.6076,4.6742,0.0,4.6742,4.6742,4.6742,0.0,0.0,4.5697,4.5697,0.0,0.0,0.0,0.0,0.0,0.0,0.0,0.0,0.0,0.0,4.3512,0.0,0.0,0.0,0.0,4.325,0.0,0.0,0.0,0.0,0.0,0.0,0.0,0.0,0.0,0.0,0.0,0.0,0.0,0.0,0.0,0.0,0.0,4.2351,4.2955,4.2433,4.2366,4.2955,4.2433,4.2284,4.2688,4.2325,4.2284,4.2688,4.25,4.2392,4.2392,4.2795,4.2688,4.2133,4.2729,4.2769,4.2392,4.2392,4.2392,4.2392,4.2216,4.2092,4.2092,4.2092,4.1493,4.0646,4.0646,4.124,4.1773,0.0,0.0,0.0,0.0,0.0,0.0,0.0,4.3036,0.0,0.0,0.0,0.0,0.0,4.3115,4.329,0.0,0.0,4.329,4.329,4.329,0.0,0.0,0.0,4.329,0.0,0.0,0.0,0.0,0.0,0.0,0.0,0.0,0.0,0.0,0.0,4.4028,0.0,0.0,0.0,0.0,0.0,4.6288,4.6127,0.0,0.0,4.6862,4.7404,4.7084,0.0,4.7015,4.6878,4.6515,4.7066,4.6531,4.5805,4.6288,4.6076,0.0,0.0,0.0,4.5701,4.4434,0.0,0.0,0.0,0.0,0.0,0.0,0.0,0.0,0.0,0.0,0.0,0.0,0.0,0.0,0.0,0.0,0.0,0.0,0.0,0.0,0.0,0.0,0.0,4.2769,4.2514,4.2433,4.2769,4.2459,4.2351,4.2514,4.2242,4.2366,4.2875,4.2433,4.2392,4.2809,4.2662,4.2581,4.25,4.2688,4.2729,4.2581,4.2474,4.2392,4.2392,4.2175,4.2092,4.2092,4.2092,4.1912,4.1577,4.1577,4.1001,4.0014,4.4026,0.0,0.0,0.0,0.0,0.0,0.0,0.0,0.0,0.0,4.329,0.0,4.329,0.0,4.329,0.0,4.329,4.329,4.329,4.329,0.0,4.329,4.329,0.0,0.0,0.0,0.0,0.0,0.0,4.329,0.0,0.0,0.0,0.0,0.0,0.0,0.0,0.0,4.5629,0.0,0.0,4.6689,0.0,0.0,4.7033,4.6896,0.0,4.7671,4.7303,4.782,4.7671,4.7337,4.7853,4.732,4.6601,4.7084,4.6878,4.6461,4.6163,4.6429,0.0,4.5243,4.5332,0.0,4.4043,0.0,0.0,0.0,0.0,0.0,0.0,0.0,0.0,0.0,0.0,0.0,0.0,0.0,0.0,0.0,0.0,0.0,0.0,0.0,4.2284,4.2648,4.2433,4.2392,0.0,4.25,4.2351,4.2284,4.2242,4.2392,4.2769,4.231,4.2351,4.2875,4.2541,4.2514,4.2688,4.2688,4.2688,4.2688,4.2514,4.2392,4.2392,4.2175,4.2092,4.2092,4.2092,4.1856,4.1577,4.1577,4.0374,3.8644,0.0,0.0,0.0,0.0,4.3463,0.0,0.0,0.0,4.329,0.0,4.329,4.329,4.329,4.329,4.329,4.329,4.329,0.0,4.329,4.329,0.0,0.0,4.329,4.329,4.329,0.0,0.0,0.0,0.0,0.0,0.0,0.0,0.0,0.0,4.329,0.0,4.5697,4.5697,4.6147,4.6846,4.6846,4.7287,4.7919,4.7968,4.7488,4.6896,4.7704,4.8001,4.8001,4.8001,4.8001,4.8001,4.8001,4.8001,4.8001,4.8001,4.8001,4.782,4.7067,4.6846,4.6673,4.5949,0.0,0.0,0.0,0.0,4.4259,0.0,0.0,0.0,0.0,0.0,0.0,0.0,0.0,0.0,0.0,0.0,0.0,0.0,0.0,0.0,0.0,4.2092,4.2284,4.2648,4.2366,4.2284,0.0,4.25,4.2325,4.2092,4.2325,4.2392,4.2392,4.2201,4.231,4.2688,4.2514,4.25,4.2688,4.2688,4.2688,4.2688,4.2459,4.2392,4.2351,4.2175,4.2092,4.2092,4.2092,4.1535,4.0646,4.056,3.9417,3.7854,4.3988,4.366,4.3384,0.0,4.3344,4.329,0.0,0.0,0.0,0.0,4.329,4.329,4.329,4.329,4.329,4.329,4.329,0.0,0.0,0.0,0.0,4.329,4.329,4.329,4.329,4.329,0.0,4.329,0.0,0.0,4.329,0.0,0.0,0.0,0.0,0.0,4.5697,4.5697,4.648,4.7704,4.7704,4.7454,0.0,0.0,4.7488,4.6896,4.7704,4.8001,4.8001,4.8001,4.8001,4.8001,4.8001,4.8001,4.8001,4.8001,4.8001,4.7968,4.7754,4.7704,4.7488,4.6708,4.6499,4.6324,0.0,0.0,0.0,0.0,0.0,0.0,0.0,0.0,0.0,0.0,0.0,0.0,0.0,0.0,0.0,0.0,0.0,0.0,0.0,4.2092,4.2284,4.2648,4.2474,4.2433,4.2688,0.0,4.2474,4.2092,4.2433,4.2541,4.2392,4.2514,4.2581,4.2688,4.2662,4.2662,4.2688,4.2688,4.2622,4.2459,4.2433,4.2325,4.2175,4.2133,4.2092,4.2092,4.2092,4.1953,4.1535,4.0087,3.9241,3.872,4.3988,0.0,0.0,4.329,0.0,0.0,4.329,0.0,0.0,4.329,4.329,0.0,4.329,4.329,4.329,4.329,4.329,0.0,4.329,0.0,0.0,4.329,4.329,4.329,4.329,4.329,0.0,4.329,0.0,0.0,4.329,0.0,0.0,0.0,0.0,4.4004,0.0,4.5897,4.6689,4.7521,4.7853,0.0,0.0,4.782,4.7704,4.7371,4.7853,4.8001,4.8001,4.8001,4.8001,4.8001,4.8001,4.8001,4.8001,4.8001,4.8001,4.8001,4.8001,4.8001,4.7886,4.7454,4.7067,4.6604,4.5877,4.4999,4.4259,0.0,0.0,0.0,0.0,0.0,0.0,0.0,0.0,0.0,0.0,0.0,0.0,0.0,0.0,0.0,4.2092,4.2242,4.2433,4.2541,4.2459,4.2514,0.0,0.0,4.2541,4.2242,4.2541,4.2622,4.2392,4.25,4.2662,4.285,4.2648,4.2703,4.297,4.2703,4.2622,4.2648,4.2474,4.2325,4.2201,4.2133,4.2092,4.2092,4.2092,4.2092,4.1912,4.036,3.9549,3.9033,0.0,0.0,0.0,0.0,0.0,0.0,0.0,4.329,0.0,4.329,0.0,4.329,4.329,4.329,4.329,4.329,0.0,4.329,4.329,4.329,4.329,4.329,4.329,4.329,4.329,4.329,0.0,0.0,0.0,0.0,4.329,0.0,0.0,0.0,0.0,0.0,0.0,4.6237,4.6846,4.6999,4.7704,4.8001,4.8001,4.8001,4.8001,4.8001,4.8001,4.8001,4.8001,4.8001,4.8001,4.8001,4.8001,4.8001,4.8001,4.8001,4.8001,4.8001,4.8001,4.8001,4.8001,4.8001,4.7471,4.6793,4.6163,4.539,4.4586,4.3771,4.3512,4.3409,0.0,0.0,0.0,0.0,0.0,0.0,0.0,0.0,0.0,0.0,0.0,0.0,0.0,4.2433,4.2541,4.2392,4.2392,4.2474,0.0,0.0,4.2581,4.2433,4.2622,4.2622,4.2392,4.2474,4.2622,4.2915,4.2662,4.2743,4.321,4.2662,4.2622,4.2915,4.2541,4.2351,4.2366,4.2175,4.2092,4.2092,4.2092,4.2092,4.1953,4.0845,3.9899,3.8944,0.0,0.0,0.0,0.0,0.0,4.329,4.329,4.329,4.329,4.329,4.329,4.329,4.329,4.329,4.329,4.329,4.329,0.0,0.0,0.0,0.0,4.329,4.329,4.329,4.329,4.329,4.329,0.0,4.329,4.329,0.0,0.0,0.0,0.0,0.0,0.0,4.6413,4.6673,0.0,4.782,4.7935,4.8001,4.8001,4.8001,4.8001,4.8001,4.8001,4.8001,4.8001,4.8001,4.8001,4.8001,4.8001,4.8001,4.8001,4.8001,4.8001,4.8001,4.8001,4.8001,4.8001,4.8001,4.7886,4.7754,4.7638,4.6965,4.6166,4.5426,4.4737,4.4028,4.322,0.0,0.0,0.0,0.0,0.0,0.0,0.0,0.0,0.0,0.0,0.0,0.0,0.0,0.0,0.0,0.0,0.0,0.0,0.0,4.25,0.0,4.2688,0.0,0.0,0.0,4.2769,4.25,4.2945,4.301,4.2809,4.2703,4.2581,4.2514,4.2242,4.2133,4.2133,4.2092,4.2092,4.2092,4.2092,4.2092,4.187,4.01,3.9329,3.9033,0.0,0.0,0.0,0.0,0.0,0.0,0.0,4.329,0.0,4.329,4.329,4.329,4.329,4.329,4.329,4.329,4.329,4.329,4.329,4.329,4.329,4.329,4.329,0.0,4.329,4.329,4.329,4.329,4.329,4.329,0.0,0.0,0.0,0.0,0.0,4.4834,0.0,0.0,0.0,4.7404,4.782,4.8001,4.8001,4.8001,4.8001,4.8001,4.8001,4.8001,4.8001,4.8001,4.8001,4.8001,4.8001,4.8001,4.8001,4.8001,4.8001,4.8001,4.8001,4.8001,4.8001,4.8001,4.7671,4.7371,4.7371,4.6793,4.6005,4.5258,4.4774,4.4167,4.318,4.285,0.0,0.0,0.0,0.0,0.0,0.0,0.0,0.0,0.0,0.0,0.0,0.0,0.0,0.0,0.0,0.0,0.0,0.0,4.2622,0.0,0.0,0.0,4.2541,0.0,4.297,4.2864,4.305,4.3036,4.2835,4.2729,4.2662,4.2541,4.2366,4.2242,4.2242,4.2133,4.2092,4.2092,4.2092,4.2092,4.1912,4.0446,3.9942,3.9678,0.0,4.329,0.0,0.0,4.329,0.0,4.329,4.329,4.329,4.329,4.329,4.329,4.329,4.329,4.329,4.329,4.329,4.329,4.329,4.329,4.329,4.329,4.329,4.329,4.329,4.329,4.329,0.0,4.329,4.3215,0.0,0.0,0.0,0.0,0.0,0.0,0.0,0.0,4.6793,4.6999,4.7704,4.8001,4.8001,4.8001,4.8001,4.8001,4.8001,4.8001,4.8001,4.8001,4.8001,4.8001,4.8001,4.8001,4.8001,4.8001,4.8001,4.8001,4.8001,4.8001,4.8001,4.8001,4.7521,4.6999,4.6862,4.6359,4.5645,4.4699,4.4358,4.3989,4.314,4.293,0.0,0.0,0.0,0.0,0.0,0.0,0.0,0.0,0.0,0.0,0.0,0.0,0.0,0.0,0.0,4.2433,4.2688,4.2622,4.2607,0.0,0.0,4.2795,4.2688,0.0,4.3076,4.325,4.3115,4.3076,4.3076,4.285,4.2729,4.2688,4.2514,4.2392,4.231,4.2175,4.2092,4.2092,4.2092,4.2092,4.1968,4.0972,4.0603,4.03,0.0,0.0,0.0,0.0,0.0,0.0,4.329,4.329,4.329,4.329,4.329,4.329,4.329,4.329,4.329,4.329,4.329,4.329,4.329,4.329,4.329,4.329,4.329,4.329,4.329,4.329,4.329,0.0,4.329,4.303,4.2515,0.0,0.0,0.0,0.0,0.0,0.0,4.6566,4.674,4.7371,4.782,4.8001,4.8001,4.8001,4.8001,4.8001,4.8001,4.8001,4.8001,4.8001,4.8001,4.8001,4.8001,4.8001,4.8001,4.8001,4.8001,4.8001,4.8001,4.8001,4.8001,4.8001,4.7935,4.7704,4.6965,4.6742,4.6272,4.4796,4.3927,4.3314,4.3061,4.3115,4.313,0.0,0.0,0.0,0.0,0.0,0.0,0.0,0.0,0.0,0.0,0.0,0.0,0.0,4.2201,4.2284,4.2688,4.2351,4.2392,4.2941,4.2662,4.2541,4.2688,4.2915,4.3036,4.3036,4.321,4.325,4.325,4.3076,4.2875,4.2688,4.2514,4.2284,4.2133,4.2092,4.2092,4.2092,4.2092,4.2092,4.1968,4.0972,4.0603,4.0456,0.0,0.0,0.0,0.0,0.0,0.0,0.0,4.329,4.329,4.329,4.329,4.329,4.329,4.329,4.329,4.329,4.329,4.329,4.329,4.329,4.329,4.329,4.329,4.329,4.329,4.329,4.329,0.0,0.0,4.317,4.2955,4.3689,0.0,0.0,0.0,4.6111,4.6896,4.7202,4.7504,4.777,4.7935,4.8001,4.8001,4.8001,4.8001,4.8001,4.8001,4.8001,4.8001,4.8001,4.8001,4.8001,4.8001,4.8001,4.8001,4.8001,4.8001,4.8001,4.8001,4.7638,4.7303,4.7303,4.6947,4.6531,4.6218,4.6147,4.5825,4.4737,4.3849,4.329,4.321,4.3155,4.3115,0.0,0.0,0.0,0.0,0.0,0.0,0.0,0.0,0.0,0.0,0.0,0.0,0.0,0.0,4.2201,4.25,4.2459,4.2514,4.2622,0.0,4.285,4.2688,4.301,4.317,4.317,4.325,4.325,4.3115,4.2915,4.2648,4.2366,4.2392,4.2284,4.2092,4.2092,4.2092,4.2092,4.2092,4.2092,4.1968,4.0972,4.0842,4.0972,4.329,0.0,4.329,0.0,4.329,4.329,4.329,4.329,4.329,4.329,4.329,4.329,4.329,4.329,4.329,4.329,4.329,4.329,4.329,4.329,4.329,4.329,4.329,0.0,4.329,4.329,4.329,4.329,4.329,4.32,4.3045,4.3854,0.0,0.0,4.6272,4.6673,4.6811,4.7521,4.782,4.782,4.7968,4.8001,4.8001,4.8001,4.8001,4.8001,4.8001,4.8001,4.7968,4.7853,4.7886,4.8001,4.8001,4.8001,4.7968,4.7704,4.7638,4.7605,4.7387,4.6913,4.6464,4.6464,4.6092,4.5624,4.5405,4.5369,4.511,4.4297,4.3708,4.329,4.329,4.317,4.3115,4.321,0.0,0.0,0.0,0.0,0.0,0.0,0.0,4.2474,4.2284,0.0,0.0,0.0,0.0,4.2366,4.2459,4.2581,4.2622,0.0,0.0,0.0,4.2809,4.313,4.329,4.329,4.329,4.325,4.3076,4.2809,4.2541,4.2284,4.2325,4.2242,4.2092,4.2092,4.2092,4.2092,4.2092,4.2092,4.1995,4.1296,4.1426,4.1774,4.329,4.329,4.329,4.329,4.329,4.329,4.329,4.329,4.329,4.329,4.329,4.329,4.329,4.329,4.329,4.329,4.329,4.329,4.329,4.329,4.329,0.0,0.0,4.329,4.329,4.329,4.329,4.329,0.0,0.0,4.241,0.0,4.4272,4.5697,4.6143,4.6705,4.7404,4.7404,4.7404,4.7438,4.7853,4.8001,4.8001,4.8001,4.8001,4.8001,4.8001,4.8001,4.7935,4.7555,4.7671,4.8001,4.8001,4.8001,4.7853,4.7033,4.6811,4.6638,4.5949,4.5733,4.5697,4.5697,4.5697,4.5478,4.4699,4.451,4.4297,4.3472,4.329,4.329,4.329,4.329,4.325,4.3036,0.0,0.0,0.0,0.0,0.0,0.0,4.2092,4.2242,4.2648,0.0,0.0,0.0,0.0,0.0,0.0,0.0,0.0,4.2996,4.2981,0.0,4.2981,4.321,4.329,4.329,4.329,4.329,4.329,4.289,4.2688,4.2648,4.2284,4.2092,4.2092,4.2092,4.2092,4.2092,4.2092,4.2092,4.2092,4.2092,4.2469,4.2895,4.329,4.329,4.329,4.329,4.329,4.329,4.329,4.329,4.329,4.329,4.329,4.329,4.329,4.329,4.329,0.0,4.329,4.329,0.0,4.329,4.329,4.329,4.329,4.329,4.329,4.329,4.329,4.329,0.0,0.0,0.0,4.4337,4.5295,4.7252,4.6844,4.6931,4.7404,4.7404,4.7286,4.7082,4.7454,4.7588,4.7638,4.7902,4.8001,4.8001,4.8001,4.8001,4.7968,4.7853,4.7886,4.7886,4.7337,4.7555,4.7853,4.705,4.6811,4.6638,4.5913,4.5295,4.4887,4.4887,4.4472,4.4004,4.3732,4.3669,4.3591,4.3369,4.329,4.329,4.329,4.321,4.3076,4.3036,4.2981,0.0,0.0,0.0,0.0,0.0,4.2607,4.2662,0.0,4.2433,0.0,0.0,0.0,0.0,0.0,0.0,0.0,0.0,4.3036,0.0,4.2981,4.321,4.329,4.329,4.329,4.325,4.3076,4.2809,4.2622,4.2459,4.2216,4.2092,4.2092,4.2092,4.2092,4.2092,4.2092,4.2092,4.2092,4.2092,4.2308,4.2573,4.329,4.329,4.329,4.329,4.329,4.329,4.329,4.329,4.329,4.329,4.329,4.329,4.329,4.329,0.0,4.329,4.329,4.329,4.329,4.329,4.329,4.329,4.329,4.329,4.329,4.329,0.0,4.329,4.321,4.3771,4.4924,4.4699,4.5608,4.7354,4.7118,4.7253,4.7638,4.7638,4.7488,4.7336,4.7538,4.7638,4.7671,4.7886,4.7902,4.777,4.7968,4.7886,4.777,4.777,4.7671,4.7421,4.6724,4.6724,4.6862,4.6131,4.5953,4.5773,4.5036,4.4434,4.4028,4.4028,4.3654,4.329,4.329,4.329,4.329,4.329,4.329,4.329,4.329,4.321,4.3115,4.3115,4.3036,4.2955,4.285,0.0,0.0,0.0,0.0,0.0,0.0,4.2581,4.2541,0.0,0.0,0.0,0.0,0.0,0.0,4.293,4.317,4.325,4.3115,4.325,4.329,4.329,4.329,4.321,4.2996,4.2875,4.2648,4.2392,4.2284,4.2175,4.2092,4.2092,4.2092,4.2092,4.2092,4.2092,4.2121,4.2353,4.2682,4.3032,4.329,4.329,4.329,0.0,4.329,0.0,4.329,4.329,4.329,4.329,4.329,4.329,4.329,4.329,4.329,4.329,0.0,0.0,0.0,4.329,4.329,4.329,4.329,4.329,4.329,4.329,4.3329,4.3369,4.3195,4.3339,4.3849,4.4548,4.5442,4.6442,4.71,4.7555,4.7902,4.7902,4.7869,4.7853,4.7853,4.7902,4.7968,4.7968,4.7737,4.7488,4.7853,4.7737,4.7438,4.7438,4.7152,4.6673,4.6127,4.5593,4.5085,4.4608,4.4472,4.4282,4.3512,4.329,4.329,4.329,4.329,4.329,4.329,4.329,4.329,4.329,4.329,4.329,4.329,4.329,4.329,4.329,4.3115,4.2996,4.2996,0.0,0.0,0.0,0.0,0.0,4.2729,4.2875,4.2915,0.0,0.0,0.0,0.0,0.0,4.289,4.329,4.329,4.329,4.329,4.329,4.329,4.329,4.329,4.321,4.3036,4.2981,4.2769,4.2433,4.2392,4.2284,4.2092,4.2092,4.2092,4.2092,4.2092,4.2092,4.2165,4.2774,4.3413,4.4081,0.0,0.0,4.329,4.329,4.329,4.329,4.329,4.329,4.329,4.329,4.329,4.329,4.329,4.329,4.329,4.329,4.329,4.329,4.329,4.329,4.329,4.329,4.329,4.329,4.329,4.329,4.3591,4.422,4.4182,4.4781,4.6008,4.5645,4.6234,4.7571,4.7152,4.6828,4.6722,4.6722,4.6531,4.6234,4.6234,4.6775,4.7555,4.7555,4.7671,4.7853,4.7968,4.7935,4.7853,4.7853,4.7287,4.6448,4.5685,4.4915,4.4213,4.4074,4.4151,4.4113,4.3299,4.317,4.329,4.329,4.329,4.325,4.3115,4.321,4.329,4.329,4.329,4.329,4.329,4.3155,4.3076,4.3076,4.2915,4.2769,4.2769,4.2875,0.0,0.0,4.305,4.309,4.2955,4.2835,4.2769,0.0,0.0,0.0,4.2915,4.2915,4.3036,4.329,4.329,4.329,4.329,4.329,4.329,4.329,4.329,4.329,4.321,4.293,4.2729,4.2622,4.2325,4.2133,4.2092,4.2092,4.2092,4.2092,4.2092,4.2092,4.2165,4.2774,4.3413,4.4081,4.329,4.329,4.329,4.329,4.329,4.329,4.329,4.329,4.329,4.329,4.329,4.329,4.329,4.329,4.329,4.329,4.329,4.329,4.329,4.329,4.329,4.329,4.329,4.329,4.329,4.3669,4.4167,4.4856,4.4856,4.541,4.6445,4.602,4.6426,4.7471,4.674,4.6375,4.6285,4.5881,4.5809,4.5965,4.5877,4.6269,4.6913,4.727,4.7354,4.7286,4.782,4.7688,4.7218,4.7303,4.6499,4.541,4.5048,4.4213,4.3403,4.3585,4.3663,4.3545,4.314,4.3155,4.329,4.329,4.329,4.325,4.3155,4.321,4.329,4.329,4.329,4.329,4.329,4.321,4.3155,4.3155,4.305,4.297,4.297,4.309,0.0,4.2875,4.3036,4.3076,4.2875,4.2835,4.285,4.285,4.2809,0.0,4.2981,4.3076,4.321,4.329,4.329,4.329,4.329,4.329,4.329,4.329,4.329,4.325,4.317,4.2915,4.2729,4.2541,4.231,4.2175,4.2092,4.2092,4.2092,4.2092,4.2092,4.2266,4.2586,4.321,4.3848,4.4487,4.329,4.329,4.329,4.329,4.329,4.329,4.329,4.329,4.329,4.329,4.329,4.329,4.329,4.329,4.329,4.329,4.329,4.329,4.329,4.329,4.329,4.329,4.329,4.329,4.329,4.3966,4.4646,4.5342,4.5306,4.5577,4.6214,4.6179,4.6442,4.6945,4.6321,4.6179,4.6321,4.5473,4.5597,4.6356,4.5985,4.6072,4.6426,4.7015,4.6878,4.6496,4.7421,4.7134,4.6321,4.6308,4.5431,4.4343,4.454,4.3843,4.2955,4.3245,4.3165,4.2981,4.2981,4.3155,4.3305,4.321,4.325,4.329,4.321,4.325,4.329,4.325,4.325,4.325,4.325,4.325,4.325,4.325,4.325,4.325,4.325,0.0,4.313,4.2809,4.2955,4.2996,4.2809,4.2915,4.3036,4.3036,4.317,4.321,4.3036,4.321,4.329,4.329,4.329,4.329,4.329,4.329,4.329,4.329,4.329,4.321,4.3036,4.2996,4.2769,4.2433,4.2392,4.2242,4.2092,4.2092,4.2092,4.2092,4.2092,4.2469,4.3065,4.3747,4.4371,4.498,4.329,4.329,4.329,4.329,4.329,4.329,4.329,4.329,4.329,4.329,4.329,4.329,4.329,4.329,4.329,4.329,4.329,4.329,4.329,4.329,4.329,4.329,4.329,4.329,4.329,4.3409,4.4182,4.5645,4.5279,4.5825,4.7168,4.6894,4.6979,4.727,4.6566,4.6426,4.6673,4.5933,4.604,4.6655,4.5645,4.5825,4.6689,4.6531,4.6601,4.6708,4.6742,4.6638,4.6378,4.5706,4.5217,4.4905,4.5106,4.4502,4.3687,4.35,4.3254,4.2981,4.2981,4.3155,4.321,4.289,4.305,4.321,4.285,4.305,4.325,4.3076,4.3036,4.3036,4.3036,4.3036,4.3036,4.3036,4.3036,4.3036,4.3036,0.0,4.3076,4.321,4.325,4.325,4.321,4.3076,4.3076,4.325,4.3115,4.3115,4.325,4.329,4.329,4.329,4.329,4.329,4.329,4.329,4.329,4.329,4.329,4.329,4.325,4.289,4.2729,4.2607,4.2284,4.2133,4.2092,4.2092,4.2092,4.2092,4.2092,4.2469,4.3065,4.3747,4.4371,4.498,4.329,4.329,4.329,4.329,4.329,4.329,4.329,4.329,4.329,4.329,4.329,4.329,4.329,4.329,4.329,4.329,4.329,4.329,4.329,4.329,4.329,4.329,4.329,4.3512,4.3927,4.3966,4.4737,4.6288,4.6111,4.662,4.7704,4.7134,4.6844,4.674,4.566,4.5426,4.5825,4.4608,4.4781,4.5825,4.5206,4.5316,4.5969,4.6636,4.662,4.6253,4.6569,4.6131,4.5337,4.4856,4.435,4.3967,4.4289,4.392,4.3467,4.3717,4.3339,4.289,4.3076,4.3155,4.3076,4.2915,4.293,4.293,4.2729,4.293,4.3076,4.2875,4.2996,4.3115,4.3036,4.3076,4.3115,4.3036,4.3076,0.0,4.3036,4.3076,4.3155,4.3155,4.3155,4.3155,4.3155,4.3036,4.3076,4.329,4.321,4.321,4.329,4.329,4.329,4.329,4.329,4.329,4.329,4.329,4.329,4.329,4.329,4.329,4.329,4.301,4.2795,4.2688,4.2392,4.2216,4.2092,4.2092,4.2092,4.2121,4.2455,4.2977,4.3602,4.424,4.4879,4.5459,4.329,4.329,4.329,4.329,4.329,4.329,4.329,4.329,4.329,4.325,4.325,4.329,4.325,4.325,4.329,4.329,4.329,4.329,4.329,4.329,4.329,4.329,4.329,4.3591,4.422,4.422,4.4909,4.6272,4.6182,4.655,4.732,4.662,4.6198,4.5949,4.4662,4.451,4.5147,4.3678,4.3935,4.5369,4.511,4.5036,4.5169,4.6515,4.634,4.5442,4.5989,4.5447,4.4373,4.4028,4.3639,4.3339,4.3693,4.3615,4.3457,4.3918,4.3448,4.285,4.321,4.3155,4.2981,4.2981,4.2915,4.2809,4.2769,4.2915,4.2996,4.2795,4.301,4.317,4.2955,4.305,4.313,4.2955,0.0,4.317,4.3036,4.3155,4.325,4.3076,4.3076,4.3076,4.3076,4.3036,4.3076,4.329,4.325,4.325,4.329,4.329,4.329,4.329,4.329,4.329,4.329,4.329,4.329,4.329,4.329,4.329,4.329,4.3036,4.285,4.2688,4.2433,4.2242,4.2092,4.2092,4.2179,4.2353,4.2818,4.3485,4.4255,4.4719,4.53,4.588,4.329,4.329,4.329,4.329,4.329,4.329,4.329,4.329,4.325,4.3036,4.317,4.325,4.3036,4.321,4.329,4.329,4.329,4.329,4.329,4.329,4.329,4.329,4.329,4.3329,4.3409,4.3409,4.381,4.4662,4.4366,4.4594,4.5295,4.4918,4.4918,4.5147,4.412,4.4396,4.5588,4.4548,4.4924,4.6179,4.5769,4.5295,4.4887,4.5588,4.5169,4.4335,4.4358,4.4335,4.4105,4.3339,4.3521,4.4143,4.4373,4.4396,4.4358,4.422,4.36,4.3036,4.325,4.3155,4.2981,4.2981,4.3115,4.321,4.3036,4.3115,4.321,4.3036,4.2981,4.2955,4.2769,4.2729,4.2729,4.2729,0.0,0.0,4.2981,4.3155,4.329,4.329,4.329,4.329,4.329,4.3115,4.3076,4.329,4.3115,4.3115,4.329,4.329,4.329,4.329,4.329,4.329,4.329,4.329,4.329,4.329,4.329,4.329,4.3305,4.289,4.2729,4.2688,4.2284,4.2092,4.2092,4.2092,4.2426,4.2934,4.2977,4.3732,4.4821,4.4864,4.53,4.588,4.329,4.329,4.329,4.329,4.329,4.329,4.329,4.329,4.325,4.321,4.325,4.325,4.321,4.3155,4.3155,4.329,4.321,4.3155,4.329,4.329,4.329,4.329,4.329,4.329,4.329,4.329,4.3693,4.451,4.4373,4.4715,4.5442,4.4715,4.4427,4.451,4.3497,4.36,4.4517,4.378,4.3974,4.4818,4.4924,4.4737,4.451,4.5369,4.5147,4.4412,4.4412,4.4082,4.3591,4.329,4.3394,4.3615,4.3615,4.3654,4.3732,4.3654,4.3354,4.3036,4.325,4.3155,4.2981,4.2981,4.2955,4.293,4.285,4.2955,4.3076,4.285,4.301,4.3115,4.2915,4.301,4.305,4.2915,0.0,4.3155,4.3036,4.3155,4.329,4.329,4.329,4.329,4.329,4.325,4.321,4.329,4.325,4.321,4.329,4.329,4.329,4.329,4.329,4.329,4.329,4.329,4.329,4.329,4.329,4.325,4.3115,4.309,4.2864,4.25,4.2459,4.231,4.2092,4.2092,4.2455,4.3036,4.3442,4.4139,4.4937,4.5358,4.5663,4.588,4.329,4.329,4.329,4.329,4.329,4.329,4.321,4.321,4.317,4.313,4.317,4.317,4.313,4.3036,4.3076,4.321,4.3076,4.3076,4.321,4.321,4.325,4.329,4.329,4.329,4.329,4.329,4.3551,4.4105,4.4105,4.4412,4.4924,4.4259,4.3927,4.3888,4.3115,4.314,4.3663,4.322,4.3379,4.395,4.4373,4.4297,4.4105,4.4999,4.4759,4.4028,4.4105,4.3786,4.329,4.329,4.329,4.329,4.3155,4.321,4.329,4.321,4.3155,4.3115,4.321,4.3155,4.3076,4.3076,4.2996,4.289,4.289,4.301,4.3036,4.293,4.309,4.325,4.3036,4.3115,4.3155,4.3036,4.3115,4.317,4.3115,4.321,4.329,4.329,4.329,4.329,4.329,4.325,4.325,4.329,4.325,4.325,4.329,4.329,4.329,4.329,4.329,4.329,4.329,4.329,4.329,4.329,4.329,4.325,4.3115,4.3155,4.293,4.2514,4.2581,4.2392,4.2107,4.2295,4.2745,4.3369,4.4023,4.4647,4.5256,4.5721,4.588,4.588,4.329,4.329,4.329,4.329,4.329,4.325,4.3036,4.2981,4.2915,4.2729,4.2875,4.2915,4.2729,4.2875,4.2981,4.2981,4.2981,4.2996,4.2981,4.2981,4.3076,4.329,4.329,4.329,4.329,4.329,4.329,4.329,4.329,4.329,4.329,4.329,4.329,4.329,4.3076,4.3115,4.329,4.3076,4.3354,4.4011,4.4351,4.4143,4.3669,4.4259,4.3873,4.3036,4.325,4.329,4.329,4.329,4.329,4.329,4.329,4.329,4.325,4.3076,4.3155,4.325,4.3076,4.3155,4.329,4.329,4.329,4.329,4.329,4.329,4.329,4.329,4.329,4.325,4.3036,4.2981,4.2981,4.2981,4.2981,4.3076,4.325,4.329,4.329,4.329,4.329,4.329,4.329,4.3115,4.3076,4.329,4.3115,4.3076,4.329,4.329,4.329,4.329,4.329,4.329,4.329,4.329,4.329,4.329,4.329,4.329,4.329,4.3076,4.2875,4.2688,4.2514,4.2284,4.215,4.2745,4.3398,4.4066,4.4661,4.53,4.588,4.588,4.588,4.588,4.329,4.329,4.329,4.329,4.329,4.325,4.3036,4.3115,4.313,4.2955,4.309,4.3115,4.2915,4.285,4.2835,4.2996,4.2729,4.2662,4.2769,4.2915,4.3036,4.3076,4.321,4.329,4.329,4.329,4.329,4.329,4.329,4.329,4.329,4.3155,4.3076,4.3076,4.2875,4.2809,4.289,4.2955,4.3036,4.313,4.3512,4.3472,4.322,4.3551,4.3472,4.321,4.329,4.329,4.3409,4.3966,4.3786,4.329,4.329,4.321,4.3115,4.321,4.325,4.329,4.325,4.325,4.329,4.329,4.329,4.329,4.329,4.329,4.329,4.329,4.329,4.329,4.321,4.321,4.321,4.321,4.321,4.325,4.329,4.329,4.329,4.329,4.329,4.329,4.329,4.325,4.325,4.329,4.325,4.325,4.329,4.329,4.329,4.329,4.329,4.329,4.329,4.329,4.329,4.329,4.329,4.325,4.3076,4.3036,4.2795,4.2474,4.2433,4.2532,4.2745,4.2919,4.3631,4.4632,4.4821,4.53,4.588,4.588,4.588,4.588,4.329,4.329,4.329,4.329,4.329,4.325,4.3036,4.3115,4.3115,4.2915,4.301,4.297,4.2769,4.2729,4.2769,4.2875,4.2648,4.2581,4.2688,4.2795,4.2915,4.2981,4.321,4.329,4.329,4.329,4.329,4.329,4.329,4.329,4.329,4.317,4.3115,4.3115,4.301,4.293,4.293,4.309,4.3036,4.297,4.321,4.325,4.3115,4.325,4.329,4.329,4.329,4.329,4.3369,4.3849,4.3693,4.329,4.329,4.321,4.3155,4.325,4.329,4.329,4.329,4.329,4.329,4.329,4.329,4.329,4.329,4.329,4.329,4.329,4.329,4.329,4.329,4.329,4.329,4.329,4.329,4.329,4.329,4.329,4.329,4.329,4.329,4.329,4.329,4.329,4.329,4.329,4.329,4.329,4.329,4.329,4.329,4.329,4.329,4.329,4.329,4.329,4.329,4.329,4.329,4.321,4.2981,4.2981,4.2769,4.2407,4.2655,4.2852,4.3021,4.3529,4.4197,4.4908,4.5169,4.5532,4.588,4.588,4.588,4.588,4.329,4.329,4.329,4.329,4.329,4.325,4.3036,4.3036,4.2955,4.2729,4.2729,4.2662,4.2474,4.2622,4.2729,4.2688,4.2688,4.2648,4.2648,4.2688,4.2809,4.2981,4.321,4.329,4.329,4.329,4.329,4.329,4.329,4.329,4.329,4.329,4.329,4.329,4.329,4.329,4.329,4.329,4.329,4.329,4.329,4.329,4.329,4.329,4.329,4.329,4.329,4.329,4.329,4.329,4.3329,4.3394,4.3329,4.329,4.329,4.329,4.329,4.329,4.329,4.329,4.329,4.329,4.329,4.329,4.329,4.329,4.329,4.329,4.329,4.329,4.329,4.329,4.329,4.329,4.329,4.329,4.329,4.329,4.329,4.329,4.329,4.329,4.329,4.329,4.329,4.329,4.329,4.329,4.329,4.329,4.329,4.329,4.329,4.329,4.329,4.329,4.329,4.329,4.329,4.321,4.3036,4.3036,4.2839,4.2565,4.3052,4.3233,4.3253,4.44,4.4922,4.5039,4.5648,4.588,4.588,4.588,4.588,4.588,4.329,4.329,4.329,4.329,4.329,4.325,4.3036,4.3115,4.309,4.2729,4.297,4.305,4.2648,4.2795,4.2875,4.2729,4.2541,4.2474,4.2474,4.2622,4.2809,4.2981,4.321,4.329,4.329,4.329,4.329,4.329,4.329,4.329,4.329,4.329,4.329,4.329,4.329,4.329,4.329,4.329,4.329,4.329,4.329,4.329,4.329,4.329,4.329,4.329,4.329,4.329,4.329,4.329,4.3732,4.4143,4.3488,4.329,4.329,4.329,4.329,4.329,4.329,4.329,4.329,4.329,4.329,4.329,4.329,4.329,4.329,4.329,4.329,4.329,4.329,4.329,4.329,4.329,4.329,4.329,4.329,4.329,4.329,4.329,4.329,4.329,4.329,4.329,4.329,4.329,4.329,4.329,4.329,4.329,4.329,4.329,4.329,4.329,4.329,4.329,4.329,4.329,4.329,4.329,4.325,4.3076,4.3131,4.3416,4.3326,4.3729,4.4501,4.4777,4.5198,4.5692,4.5822,4.588,4.588,4.588,4.588,4.588,4.329,4.329,4.329,4.329,4.329,4.325,4.3155,4.325,4.321,4.2875,4.305,4.305,4.2729,4.2795,4.2795,4.2688,4.2688,4.2688,4.2688,4.2769,4.2915,4.3115,4.325,4.329,4.329,4.329,4.329,4.329,4.329,4.329,4.329,4.329,4.329,4.329,4.329,4.329,4.329,4.329,4.329,4.329,4.329,4.329,4.329,4.329,4.329,4.329,4.329,4.329,4.329,4.329,4.3591,4.3849,4.3433,4.329,4.329,4.329,4.329,4.329,4.329,4.329,4.329,4.329,4.329,4.329,4.329,4.329,4.329,4.329,4.329,4.329,4.329,4.329,4.329,4.329,4.329,4.329,4.329,4.329,4.329,4.329,4.329,4.329,4.329,4.329,4.329,4.329,4.329,4.329,4.329,4.329,4.329,4.329,4.329,4.329,4.329,4.329,4.329,4.329,4.329,4.3429,4.3607,4.3526,4.3678,4.3994,4.4175,4.4501,4.4908,4.5227,4.5576,4.588,4.588,4.588,4.588,4.588,4.588,4.5924,4.329,4.329,4.329,4.329,4.329,4.329,4.329,4.329,4.325,4.3036,4.3036,4.2955,4.2769,4.2769,4.2769,4.2769,4.2835,4.2915,4.2955,4.2955,4.3036,4.325,4.329,4.329,4.329,4.329,4.329,4.329,4.329,4.329,4.329,4.329,4.329,4.329,4.329,4.329,4.329,4.329,4.329,4.329,4.329,4.329,4.329,4.329,4.329,4.329,4.329,4.329,4.329,4.329,4.329,4.329,4.329,4.329,4.329,4.329,4.329,4.329,4.329,4.329,4.329,4.329,4.329,4.329,4.329,4.329,4.329,4.329,4.329,4.329,4.329,4.329,4.329,4.329,4.329,4.329,4.329,4.329,4.329,4.329,4.329,4.329,4.329,4.329,4.329,4.329,4.329,4.329,4.329,4.329,4.329,4.329,4.329,4.329,4.329,4.329,4.3349,4.3469,4.3469,4.3673,4.4046,4.4165,4.4317,4.4541,4.5126,4.523,4.5097,4.5693,4.5925,4.588,4.5925,4.5925,4.588,4.588,4.588,4.5982,4.329,4.329,4.329,4.329,4.329,4.329,4.329,4.329,4.325,4.3036,4.3155,4.317,4.2996,4.2955,4.2955,4.2955,4.2662,4.2541,4.2729,4.2729,4.285,4.3036,4.321,4.329,4.329,4.329,4.329,4.329,4.329,4.329,4.329,4.329,4.329,4.329,4.329,4.329,4.329,4.329,4.329,4.329,4.329,4.329,4.329,4.329,4.329,4.329,4.329,4.329,4.329,4.329,4.329,4.329,4.329,4.329,4.329,4.329,4.329,4.329,4.329,4.329,4.329,4.329,4.329,4.329,4.329,4.329,4.329,4.329,4.329,4.329,4.329,4.329,4.329,4.329,4.329,4.329,4.329,4.329,4.329,4.329,4.329,4.329,4.329,4.329,4.329,4.329,4.329,4.329,4.329,4.329,4.329,4.329,4.329,4.329,4.329,4.329,4.3574,4.4182,4.4182,4.4186,4.4291,4.4859,4.5236,4.5417,4.5505,4.5639,4.5809,4.6061,4.6046,4.5925,4.609,4.6046,4.588,4.588,4.588,4.5982,4.329,4.329,4.329,4.329,4.329,4.329,4.329,4.329,4.325,4.317,4.325,4.325,4.317,4.3155,4.3115,4.3036,4.285,4.2809,4.301,4.2915,4.2955,4.3155,4.325,4.329,4.329,4.329,4.329,4.329,4.329,4.329,4.329,4.329,4.329,4.329,4.329,4.329,4.329,4.329,4.329,4.329,4.329,4.329,4.329,4.329,4.329,4.329,4.329,4.329,4.329,4.329,4.329,4.329,4.329,4.329,4.329,4.329,4.329,4.329,4.329,4.329,4.329,4.329,4.329,4.329,4.329,4.329,4.329,4.329,4.329,4.329,4.329,4.329,4.329,4.329,4.329,4.329,4.329,4.329,4.329,4.329,4.329,4.329,4.329,4.329,4.329,4.329,4.329,4.329,4.329,4.329,4.329,4.329,4.329,4.329,4.329,4.3663,4.3992,4.4332,4.508,4.5439,4.5454,4.5738,4.5977,4.6167,4.6298,4.6226,4.609,4.6314,4.6269,4.609,4.618,4.609,4.588,4.588,4.6189,4.6718]}]]